Date StartTime U_cm/s V_cm/s W_cm/s Ustd_cm/s Vstd_cm/s Wstd_cm/s Uvar_(cm/s)^2 Vvar_(cm/s)^2 Wvar_(cm/s)^2 KE_(m/s)^2 TurbulentKE_(m/s)^2 HorizWindSpeed_cm/s FrictionSpeec_cm/s DragCoef SpeedOfSound_m/s SonicTemperature_C Pressure_mb 
05/04/2014  00:00:00     -146.988      -61.996       19.961      123.695       96.826       52.822    15300.375     9375.365     2790.209        2.665        1.373      159.528       49.204        0.095      341.613       16.445      856.882
05/04/2014  00:01:00     -244.558     -182.987        1.061      115.982      108.013       53.314    13451.795    11666.822     2842.397        6.062        1.398      305.439       57.171        0.035      341.592       16.410      856.928
05/04/2014  00:02:00      -86.462     -216.191       -2.824       81.934      108.825       37.421     6713.209    11842.915     1400.336        3.709        0.998      232.840       43.064        0.034      341.598       16.419      856.900
05/04/2014  00:03:00     -123.376     -112.539        2.421       91.106       56.471       42.884     8300.237     3188.968     1839.022        2.061        0.666      166.993       38.263        0.052      341.518       16.283      856.898
05/04/2014  00:04:00     -260.156     -123.773       10.596      174.202      124.879       59.992    30346.174    15594.721     3598.991        6.632        2.477      288.099       68.920        0.057      341.383       16.054      856.905
05/04/2014  00:05:00     -344.017     -135.304       -3.607      137.143      105.613       74.911    18808.142    11154.056     5611.616        8.611        1.779      369.669       73.441        0.039      341.401       16.084      856.882
05/04/2014  00:06:00     -276.200     -146.300        5.032      133.115      100.602       63.946    17719.544    10120.852     4089.128        6.482        1.596      312.554       71.204        0.052      341.421       16.118      856.846
05/04/2014  00:07:00     -369.198      -74.365      -12.036      110.054       95.246       59.352    12111.818     9071.733     3522.610        8.334        1.235      376.613       55.562        0.022      341.402       16.086      856.851
05/04/2014  00:08:00     -230.842     -120.630       -5.698      116.269       72.915       51.682    13518.426     5316.651     2670.999        4.468        1.075      260.460       50.636        0.038      341.345       15.989      856.911
05/04/2014  00:09:00     -184.827      -83.362       -5.011      127.234      100.549       48.221    16188.568    10110.061     2325.265        3.487        1.431      202.756       49.879        0.061      341.293       15.904      856.906
05/04/2014  00:10:00     -231.723      -47.560      -20.948       91.239       88.185       48.703     8324.470     7776.548     2372.008        3.743        0.924      236.553       44.140        0.035      341.306       15.924      856.812
05/04/2014  00:11:00     -230.264      -64.761       -0.662       99.109       74.297       39.214     9822.551     5519.974     1537.734        3.704        0.844      239.198       31.553        0.017      341.227       15.792      856.743
05/04/2014  00:12:00     -322.276     -100.425       -2.750       93.021       90.436       48.355     8652.831     8178.624     2338.191        6.656        0.958      337.560       53.827        0.025      341.403       16.087      856.772
05/04/2014  00:13:00     -299.039     -115.882        0.664      114.281       90.276       58.501    13060.049     8149.775     3422.417        6.374        1.232      320.707       66.995        0.044      341.371       16.034      856.815
05/04/2014  00:14:00     -159.343      -97.882        6.066      105.571       98.122       50.951    11145.152     9628.000     2596.020        2.918        1.168      187.006       45.202        0.058      341.330       15.966      856.820
05/04/2014  00:15:00     -194.224     -131.590        0.836       96.690       62.699       42.085     9348.865     3931.147     1771.177        3.504        0.753      234.604       44.425        0.036      341.268       15.860      856.802
05/04/2014  00:16:00     -229.448      -96.561        0.259      108.605       83.183       55.153    11795.065     6919.344     3041.902        4.186        1.088      248.938       58.457        0.055      341.195       15.736      856.790
05/04/2014  00:17:00     -229.008     -134.874      -15.648      103.563       83.443       46.545    10725.351     6962.754     2166.471        4.536        0.993      265.773       48.354        0.033      341.237       15.808      856.812
05/04/2014  00:18:00     -185.399     -137.387        4.195      100.682       66.179       46.927    10136.870     4379.657     2202.158        3.499        0.836      230.755       39.749        0.030      341.213       15.767      856.812
05/04/2014  00:19:00      -71.677     -174.022        3.114       50.056       47.435       35.001     2505.564     2250.126     1225.077        2.070        0.299      188.205       25.894        0.019      341.310       15.930      856.786
05/04/2014  00:20:00      -72.450      -99.560       -3.993       52.863       38.816       22.577     2794.520     1506.664      509.731        0.999        0.241      123.131       10.547        0.007      341.246       15.825      856.770
05/04/2014  00:21:00      -84.042      -99.668        6.666       52.993       54.522       27.539     2808.285     2972.691      758.415        1.179        0.327      130.372       24.483        0.035      341.189       15.729      856.804
05/04/2014  00:22:00     -234.082     -136.123       -7.676      132.538       66.395       47.473    17566.235     4408.232     2253.689        4.880        1.211      270.784       47.054        0.030      341.184       15.717      856.840
05/04/2014  00:23:00     -273.914     -116.767      -12.426      133.568      111.699       63.337    17840.481    12476.624     4011.576        6.157        1.716      297.764       68.136        0.052      341.153       15.665      856.864
05/04/2014  00:24:00     -168.553      -77.932        0.614      126.104      102.263       51.892    15902.270    10457.691     2692.753        3.176        1.453      185.697       56.219        0.092      341.113       15.598      856.851
05/04/2014  00:25:00     -251.135      -88.171      -11.830       86.697       87.486       50.632     7516.378     7653.781     2563.569        4.435        0.887      266.163       41.722        0.025      341.207       15.756      856.813
05/04/2014  00:26:00     -129.010      -70.457        2.937      107.504       71.677       40.926    11557.040     5137.536     1674.976        1.999        0.918      146.996       49.682        0.114      341.132       15.631      856.789
05/04/2014  00:27:00     -177.937     -133.423        4.327      123.098       82.105       64.376    15153.021     6741.219     4144.324        3.776        1.302      222.404       64.541        0.084      341.124       15.615      856.772
05/04/2014  00:28:00     -215.489     -166.180       -5.458       91.474       69.378       48.887     8367.579     4813.331     2389.925        4.482        0.779      272.123       55.932        0.042      341.146       15.654      856.765
05/04/2014  00:29:00     -179.105     -136.388        2.224       88.623       65.537       46.067     7854.096     4295.156     2122.184        3.248        0.714      225.123       44.130        0.038      341.100       15.574      856.785
05/04/2014  00:30:00     -298.450      -72.607       -2.954      156.842      133.636       65.014    24599.556    17858.461     4226.758        7.051        2.334      307.155       65.664        0.046      341.125       15.617      856.776
05/04/2014  00:31:00     -234.637     -113.575      -12.157       99.291       95.609       52.372     9858.760     9141.063     2742.822        4.492        1.087      260.679       58.007        0.050      341.196       15.737      856.716
05/04/2014  00:32:00     -170.108     -101.601      -14.191       55.097       65.667       38.665     3035.700     4312.184     1494.946        2.415        0.442      198.140       31.284        0.025      341.171       15.697      856.659
05/04/2014  00:33:00     -238.582     -105.647       -6.003      120.607       96.876       57.656    14546.000     9384.957     3324.215        4.768        1.363      260.927       63.464        0.059      341.119       15.608      856.659
05/04/2014  00:34:00     -371.161     -156.842      -11.834      132.390      124.254       67.753    17527.045    15439.127     4590.409       10.002        1.878      402.940       72.753        0.033      341.156       15.670      856.663
05/04/2014  00:35:00     -422.487     -123.960      -14.061      130.553      116.134       64.240    17044.204    13487.089     4126.838       11.435        1.733      440.297       53.528        0.015      341.343       15.987      856.653
05/04/2014  00:36:00     -345.413     -137.654       -6.840      130.928      103.598       58.077    17142.259    10732.572     3372.960        8.477        1.562      371.831       63.529        0.029      341.233       15.800      856.687
05/04/2014  00:37:00     -276.181     -130.584      -14.010      102.405       74.416       43.138    10486.877     5537.684     1860.913        5.570        0.894      305.496       35.541        0.014      341.186       15.721      856.708
05/04/2014  00:38:00     -218.341     -127.232       -5.059       92.991       77.894       50.984     8647.234     6067.538     2599.370        4.060        0.866      252.707       45.258        0.032      341.182       15.714      856.717
05/04/2014  00:39:00     -189.621     -115.713       11.687      145.200       93.850       58.206    21083.010     8807.848     3387.921        4.137        1.664      222.139       68.462        0.095      341.177       15.706      856.722
05/04/2014  00:40:00     -366.677     -191.071      -14.607      141.945       96.593       54.082    20148.368     9330.210     2924.899       10.178        1.620      413.473       45.854        0.012      341.277       15.876      856.645
05/04/2014  00:41:00     -213.818     -113.267       -2.261      106.799       78.164       48.397    11406.097     6109.626     2342.269        3.920        0.993      241.966       46.569        0.037      341.224       15.787      856.595
05/04/2014  00:42:00      -47.597       84.973        0.349       76.289       68.626       37.427     5820.045     4709.529     1400.793        1.071        0.597       97.396       33.759        0.120      341.197       15.742      856.572
05/04/2014  00:43:00       -3.021      -28.196       17.099       48.292       52.530       40.755     2332.089     2759.425     1660.988        0.392        0.338       28.357       30.208        1.135      341.144       15.653      856.609
05/04/2014  00:44:00     -226.230     -130.143       -7.093      126.385      103.332       58.362    15973.195    10677.511     3406.151        4.911        1.503      260.993       60.066        0.053      341.070       15.526      856.680
05/04/2014  00:45:00     -236.477     -185.850       -7.416      163.523      127.725       78.781    26739.748    16313.568     6206.519        6.988        2.463      300.768       93.107        0.096      341.144       15.650      856.712
05/04/2014  00:46:00     -294.696     -139.024      -17.257       89.301       99.515       54.938     7974.616     9903.227     3018.226        6.368        1.045      325.843       40.991        0.016      341.131       15.627      856.718
05/04/2014  00:47:00     -305.018      -33.870      -26.971      164.352       81.636       48.312    27011.445     6664.391     2334.096        6.545        1.800      306.892       65.028        0.045      341.112       15.597      856.660
05/04/2014  00:48:00     -253.283      -66.798      -16.472       75.822       85.327       46.885     5749.048     7280.721     2198.181        4.205        0.761      261.943       28.713        0.012      341.059       15.505      856.636
05/04/2014  00:49:00     -195.304      -71.278       12.371      128.142       81.308       49.840    16420.343     6611.057     2484.012        3.444        1.276      207.905       50.269        0.058      341.023       15.445      856.668
05/04/2014  00:50:00     -262.212      -24.078       -5.110       89.871       80.451       62.181     8076.863     6472.315     3866.497        4.388        0.921      263.315       62.785        0.057      341.090       15.556      856.653
05/04/2014  00:51:00     -229.843      -63.177       -7.221       82.784       75.050       42.411     6853.135     5632.433     1798.661        3.557        0.714      238.367       38.996        0.027      341.207       15.755      856.579
05/04/2014  00:52:00     -161.362      -22.406      -12.575       67.454       46.276       25.541     4550.034     2141.440      652.350        1.702        0.367      162.911       32.382        0.040      341.221       15.782      856.567
05/04/2014  00:53:00      -67.770      -76.151        3.582       52.971       62.272       31.932     2805.897     3877.863     1019.634        0.905        0.385      101.940       31.885        0.098      341.196       15.741      856.588
05/04/2014  00:54:00     -115.835      -96.981        4.637       81.231       59.735       36.822     6598.535     3568.239     1355.891        1.718        0.576      151.073       43.619        0.083      341.281       15.883      856.617
05/04/2014  00:55:00     -184.494     -135.890      -11.418       83.010       68.639       47.033     6890.698     4711.322     2212.076        3.322        0.691      229.138       29.655        0.017      341.188       15.723      856.641
05/04/2014  00:56:00     -140.585      -82.624        6.554       97.037       83.031       36.688     9416.184     6894.191     1346.002        2.214        0.883      163.067       46.013        0.080      341.127       15.622      856.693
05/04/2014  00:57:00      -98.301      -68.374       14.146       84.702       54.288       41.622     7174.449     2947.140     1732.368        1.319        0.593      119.742       37.706        0.099      341.057       15.504      856.728
05/04/2014  00:58:00     -125.711     -145.234       -2.245       73.993       72.096       32.310     5474.894     5197.810     1043.964        2.431        0.586      192.083       27.954        0.021      341.132       15.628      856.735
05/04/2014  00:59:00     -309.215     -132.630       -4.477      162.077       97.684       55.694    26268.954     9542.201     3101.774        7.606        1.946      336.459       59.629        0.031      341.185       15.719      856.685
05/04/2014  01:00:00     -313.059       -4.097      -26.504       80.483       67.118       42.199     6477.572     4504.764     1780.757        5.574        0.638      313.086       36.228        0.013      341.109       15.591      856.620
05/04/2014  01:01:00     -317.377     -101.342       -8.123      138.999       93.317       50.986    19320.606     8708.143     2599.576        7.084        1.531      333.165       47.300        0.020      341.049       15.489      856.578
05/04/2014  01:02:00     -337.791      -82.722      -27.005      117.041       84.138       48.338    13698.609     7079.261     2336.565        7.239        1.156      347.773       54.252        0.024      341.095       15.566      856.645
05/04/2014  01:03:00     -202.731     -112.927       -1.930      125.051       83.680       53.176    15637.651     7002.284     2827.688        3.966        1.273      232.062       63.973        0.076      340.993       15.395      856.678
05/04/2014  01:04:00     -239.437      -60.833       -2.092       93.900       79.193       49.357     8817.295     6271.475     2436.129        3.928        0.876      247.044       40.606        0.027      341.004       15.413      856.694
05/04/2014  01:05:00     -225.134      -31.647       -0.083      109.267       81.797       55.056    11939.279     6690.722     3031.112        3.667        1.083      227.348       60.927        0.072      340.992       15.392      856.690
05/04/2014  01:06:00     -141.280      -55.200        3.546       94.440       73.858       48.738     8918.884     5454.990     2375.417        1.988        0.837      151.681       48.895        0.104      340.944       15.311      856.690
05/04/2014  01:07:00     -232.823      -39.115       -0.883       80.735       94.709       52.046     6518.195     8969.763     2708.822        3.696        0.910      236.086       43.288        0.034      341.013       15.428      856.730
05/04/2014  01:08:00     -138.405      -15.278        5.853       57.865       62.482       31.087     3348.361     3904.058      966.389        1.382        0.411      139.245       25.969        0.035      340.961       15.343      856.763
05/04/2014  01:09:00     -165.632       17.525       -9.280       53.215       47.895       30.643     2831.798     2293.959      939.020        1.694        0.303      166.557       25.754        0.024      341.072       15.530      856.719
05/04/2014  01:10:00     -203.142       32.685       -8.583       53.224       52.393       32.286     2832.758     2744.988     1042.411        2.451        0.331      205.754       25.855        0.016      341.096       15.569      856.646
05/04/2014  01:11:00     -135.245      -35.641       -6.504       33.890       58.430       21.454     1148.522     3414.063      460.253        1.231        0.251      139.862       11.958        0.007      341.107       15.591      856.664
05/04/2014  01:12:00     -125.599      -68.654       -9.290       44.808       30.782       18.365     2007.742      947.541      337.267        1.193        0.165      143.138       12.559        0.008      341.083       15.550      856.719
05/04/2014  01:13:00      -52.117      -41.591        9.501       58.983       37.763       26.544     3478.957     1426.043      704.563        0.507        0.280       66.678       31.144        0.218      340.851       15.157      856.768
05/04/2014  01:14:00     -126.604      -53.840        1.545       60.145       65.597       29.960     3617.442     4302.940      897.590        1.387        0.441      137.577       29.809        0.047      341.127       15.623      856.756
05/04/2014  01:15:00     -132.943       -4.692       -4.531       53.693       58.200       32.749     2882.909     3387.215     1072.528        1.253        0.367      133.026       27.082        0.041      341.072       15.530      856.670
05/04/2014  01:16:00      -65.722       54.382      -11.028       36.080       32.599       23.258     1301.798     1062.708      540.919        0.515        0.145       85.304       25.649        0.090      341.006       15.419      856.613
05/04/2014  01:17:00      -96.249      -10.251       -6.987       46.978       46.921       20.559     2206.970     2201.557      422.679        0.712        0.242       96.794       15.840        0.027      341.074       15.534      856.637
05/04/2014  01:18:00     -124.692      -77.844       -1.643       84.799       64.375       39.257     7190.906     4144.190     1541.147        1.724        0.644      146.996       36.446        0.061      340.969       15.354      856.668
05/04/2014  01:19:00     -206.761      -63.698        9.629      110.847       95.539       53.680    12286.989     9127.656     2881.532        3.559        1.215      216.351       47.910        0.049      340.883       15.209      856.723
05/04/2014  01:20:00     -250.767      -38.030        9.581      158.372       70.770       51.018    25081.720     5008.459     2602.879        4.855        1.635      253.634       61.776        0.059      340.874       15.193      856.786
05/04/2014  01:21:00     -211.880      -21.496       -2.018       85.391       71.142       49.128     7291.665     5061.228     2413.532        3.006        0.738      212.967       45.418        0.045      340.810       15.085      856.823
05/04/2014  01:22:00     -221.638       -6.148        2.009      108.299       65.577       40.658    11728.573     4300.394     1653.086        3.342        0.884      221.724       43.443        0.038      341.035       15.466      856.824
05/04/2014  01:23:00     -139.334      -48.485       -0.752       91.026       70.523       40.343     8285.816     4973.426     1627.584        1.832        0.744      147.529       44.364        0.090      341.134       15.635      856.804
05/04/2014  01:24:00      -92.233      -40.649        8.417       73.890       50.546       34.658     5459.660     2554.861     1201.178        0.972        0.461      100.793       42.208        0.175      341.079       15.542      856.804
05/04/2014  01:25:00      -90.975      -40.112       -4.074       41.894       45.260       18.794     1755.143     2048.427      353.220        0.703        0.208       99.426       18.237        0.034      341.105       15.586      856.792
05/04/2014  01:26:00      -35.597      -33.734       14.262       35.827       29.531       19.823     1283.554      872.081      392.949        0.258        0.127       49.042       20.810        0.180      340.845       15.148      856.766
05/04/2014  01:27:00      -77.840        3.894        5.164       76.736       28.257       24.593     5888.384      798.446      604.836        0.669        0.365       77.938       29.392        0.142      340.656       14.827      856.737
05/04/2014  01:28:00     -150.674      -32.571       -9.059       58.343       50.155       28.158     3403.933     2515.555      792.850        1.528        0.336      154.154       25.404        0.027      341.103       15.583      856.763
05/04/2014  01:29:00      -70.853      -14.957        0.297       32.927       55.790       22.591     1084.182     3112.486      510.364        0.497        0.235       72.414       21.214        0.086      341.046       15.486      856.799
05/04/2014  01:30:00      -71.366      -16.166        5.286       41.208       38.898       24.360     1698.093     1513.031      593.392        0.459        0.190       73.174       24.181        0.109      340.896       15.232      856.803
05/04/2014  01:31:00     -105.880      -27.495       -9.095       42.246       29.552       22.494     1784.733      873.327      505.966        0.761        0.158      109.392       22.593        0.043      341.066       15.521      856.746
05/04/2014  01:32:00     -130.628      -38.265       -5.037       53.032       46.181       30.638     2812.369     2132.643      938.713        1.222        0.294      136.117       21.826        0.026      341.046       15.486      856.685
05/04/2014  01:33:00     -223.437      -48.505       -3.755       64.015       52.764       38.203     4097.926     2784.085     1459.493        3.031        0.417      228.641       38.621        0.029      340.971       15.356      856.693
05/04/2014  01:34:00     -181.600      -58.364       -3.874       62.246       55.312       28.397     3874.528     3059.418      806.394        2.207        0.387      190.748       29.471        0.024      340.885       15.212      856.730
05/04/2014  01:35:00     -124.872      -30.204       -5.362       57.229       35.824       27.832     3275.170     1283.345      774.647        1.093        0.267      128.472       32.857        0.065      340.863       15.176      856.749
05/04/2014  01:36:00      -35.831      -32.116        5.207       55.509       21.149       16.073     3081.242      447.268      258.325        0.306        0.189       48.118       21.422        0.198      340.771       15.022      856.727
05/04/2014  01:37:00       17.937      -36.386        6.150       17.921       28.003       14.506      321.165      784.184      210.418        0.150        0.066       40.567        7.709        0.036      340.533       14.619      856.676
05/04/2014  01:38:00       32.998       14.967       34.762       25.494       17.603       18.014      649.953      309.860      324.503        0.190        0.064       36.233        6.636        0.034      339.995       13.711      856.615
05/04/2014  01:39:00       43.657        4.447        8.267       25.331       18.846       17.675      641.654      355.179      312.398        0.165        0.065       43.883       12.678        0.083      340.508       14.577      856.582
05/04/2014  01:40:00       18.516       32.415       -2.088       21.522       20.968       11.718      463.181      439.646      137.307        0.122        0.052       37.331        9.790        0.069      340.510       14.580      856.572
05/04/2014  01:41:00      -46.592       42.704      -10.755       30.228       20.785       10.114      913.725      431.999      102.299        0.278        0.072       63.202        9.798        0.024      341.177       15.708      856.563
05/04/2014  01:42:00      -95.249      -30.371       -7.052       27.148       36.318       16.827      736.993     1318.985      283.140        0.619        0.117       99.974       11.950        0.014      340.854       15.161      856.609
05/04/2014  01:43:00      -72.518      -52.071        2.987       57.242       45.051       31.636     3276.702     2029.612     1000.812        0.714        0.315       89.277       30.459        0.116      340.663       14.839      856.687
05/04/2014  01:44:00      -36.428      -85.060        3.330       22.072       29.031       20.905      487.189      842.821      437.033        0.517        0.088       92.532       16.689        0.033      341.052       15.496      856.743
05/04/2014  01:45:00      -37.334      -37.393        5.054       31.619       28.703       15.818      999.769      823.838      250.215        0.245        0.104       52.840       13.978        0.070      341.064       15.517      856.758
05/04/2014  01:46:00      -30.895       -9.668        6.944       12.269        9.599        8.164      150.519       92.140       66.646        0.070        0.015       32.373        3.122        0.009      341.038       15.473      856.752
05/04/2014  01:47:00        6.146       -0.059       11.835       16.570       17.225       11.168      274.577      296.687      124.713        0.044        0.035        6.147        8.400        1.868      340.359       14.325      856.726
05/04/2014  01:48:00      -22.458      -11.640       11.686       62.459       18.246       16.088     3901.155      332.916      258.837        0.263        0.225       25.296       29.539        1.364      340.717       14.930      856.720
05/04/2014  01:49:00      -72.232       -0.717       -2.923       43.500       30.398       19.328     1892.249      924.064      373.554        0.421        0.159       72.236       20.745        0.082      340.752       14.988      856.738
05/04/2014  01:50:00     -170.080      -70.200       -2.341       61.221       57.939       34.354     3747.987     3356.972     1180.209        2.107        0.414      183.998       31.075        0.029      340.866       15.181      856.745
05/04/2014  01:51:00     -145.379       23.021       -7.013       73.034       48.299       27.992     5334.031     2332.779      783.564        1.508        0.423      147.190       29.037        0.039      340.908       15.253      856.740
05/04/2014  01:52:00     -179.883      -28.359       -1.349      101.018       75.427       42.569    10204.648     5689.297     1812.130        2.543        0.885      182.104       42.693        0.055      340.854       15.160      856.737
05/04/2014  01:53:00     -196.264      -50.168       -3.229       90.292       67.162       43.061     8152.632     4510.759     1854.233        2.778        0.726      202.575       50.440        0.062      340.840       15.135      856.726
05/04/2014  01:54:00     -137.162      -44.125        0.672       64.150       48.140       34.270     4115.192     2317.459     1174.465        1.418        0.380      144.085       33.913        0.055      340.704       14.908      856.713
05/04/2014  01:55:00     -104.858      -91.146       -7.699       75.007       49.498       38.619     5626.041     2450.020     1491.399        1.446        0.478      138.935       39.254        0.080      340.754       14.994      856.690
05/04/2014  01:56:00     -129.885      -70.940        0.559       53.493       44.164       23.409     2861.528     1950.427      547.984        1.363        0.268      147.996       24.267        0.027      340.812       15.091      856.667
05/04/2014  01:57:00     -123.321      -42.115        3.719       41.320       46.869       27.633     1707.346     2196.695      763.565        1.083        0.233      130.314       21.788        0.028      340.728       14.949      856.660
05/04/2014  01:58:00     -201.855      -54.238        1.367       61.010       49.556       31.274     3722.269     2455.748      978.058        2.542        0.358      209.015       25.367        0.015      340.730       14.949      856.668
05/04/2014  01:59:00     -208.453      -62.484       14.582       92.991       85.961       45.645     8647.354     7389.306     2083.438        3.284        0.906      217.616       50.586        0.054      341.034       15.464      856.693
05/04/2014  02:00:00     -249.985      -83.686       -0.889      112.436       88.698       46.029    12641.877     7867.289     2118.646        4.606        1.131      263.620       52.108        0.039      341.115       15.600      856.705
05/04/2014  02:01:00     -179.333     -106.226       16.834      104.136       80.051       51.060    10844.285     6408.134     2607.165        3.179        0.993      208.432       50.222        0.058      341.047       15.487      856.740
05/04/2014  02:02:00     -197.285      -94.078      -10.760       55.995       46.429       31.557     3135.386     2155.627      995.820        2.709        0.314      218.568       27.672        0.016      341.154       15.667      856.755
05/04/2014  02:03:00     -146.206      -81.361        1.015       82.993       65.242       39.016     6887.777     4256.529     1522.249        2.033        0.633      167.320       42.146        0.063      341.087       15.555      856.756
05/04/2014  02:04:00     -148.052     -100.741        8.010       90.412       61.469       38.374     8174.304     3778.419     1472.542        2.278        0.671      179.076       37.747        0.044      341.103       15.581      856.766
05/04/2014  02:05:00     -140.242      -50.820       -0.258      102.933       60.736       43.471    10595.139     3688.912     1889.721        1.921        0.809      149.166       42.800        0.082      340.976       15.366      856.759
05/04/2014  02:06:00     -210.172      -29.789      -11.310       88.216       90.610       43.769     7782.027     8210.153     1915.768        3.154        0.895      212.273       44.894        0.045      340.947       15.315      856.750
05/04/2014  02:07:00     -308.197       -1.906      -17.620      160.238       86.294       48.965    25676.142     7446.690     2397.567        6.540        1.776      308.203       65.953        0.046      340.978       15.367      856.720
05/04/2014  02:08:00      -90.873      -21.922       19.942      120.685       59.065       55.037    14564.773     3488.648     3029.040        1.511        1.054       93.480       71.988        0.593      340.877       15.200      856.705
05/04/2014  02:09:00     -184.341      -37.219       -1.320      113.972       77.247       54.596    12989.707     5967.038     2980.766        2.865        1.097      188.061       64.399        0.117      340.855       15.162      856.684
05/04/2014  02:10:00     -204.519     -107.873       -5.417      104.112       80.470       49.119    10839.369     6475.411     2412.724        3.661        0.986      231.224       53.700        0.054      340.851       15.152      856.644
05/04/2014  02:11:00     -281.325      -52.930      -23.033       72.656      103.368       38.134     5278.944    10685.044     1454.236        4.994        0.871      286.261       25.539        0.008      340.943       15.309      856.596
05/04/2014  02:12:00     -234.846      -75.363        3.461       82.067       81.587       46.558     6734.993     6656.483     2167.676        3.820        0.778      246.642       38.771        0.025      340.908       15.250      856.546
05/04/2014  02:13:00     -244.346      -68.365       -5.050       94.167      100.256       54.654     8867.467    10051.193     2987.104        4.315        1.095      253.730       52.747        0.043      340.945       15.313      856.543
05/04/2014  02:14:00     -199.946     -102.525      -18.672      117.499       73.141       48.500    13805.911     5349.605     2352.227        3.617        1.075      224.699       53.535        0.057      340.939       15.304      856.571
05/04/2014  02:15:00     -124.426      -60.740        1.777       73.530       64.318       38.507     5406.619     4136.769     1482.804        1.510        0.551      138.460       36.292        0.069      340.834       15.127      856.611
05/04/2014  02:16:00     -160.578      -51.162        9.680      125.279      102.360       48.903    15694.715    10477.544     2391.536        2.852        1.428      168.531       51.609        0.094      340.887       15.216      856.635
05/04/2014  02:17:00      -98.416      -33.966        5.817      110.073       70.122       62.943    12116.050     4917.074     3961.807        1.593        1.050      104.113       71.223        0.468      340.824       15.110      856.642
05/04/2014  02:18:00      -43.579      -33.110       29.332       85.636       72.548       44.190     7333.533     5263.271     1952.762        0.920        0.727       54.731       54.977        1.009      340.665       14.842      856.652
05/04/2014  02:19:00     -288.699      -69.339      -19.352      111.532       97.221       46.325    12439.457     9452.008     2146.017        5.628        1.202      296.909       46.475        0.025      340.936       15.297      856.660
05/04/2014  02:20:00     -251.194      -49.706      -10.497      123.772      106.319       53.167    15319.483    11303.680     2826.721        4.756        1.472      256.065       53.001        0.043      340.978       15.368      856.655
05/04/2014  02:21:00     -224.826      -34.501      -12.608       63.780       56.430       28.342     4067.827     3184.395      803.247        2.997        0.403      227.457       15.291        0.005      340.964       15.346      856.614
05/04/2014  02:22:00     -189.820      -63.277        9.792      114.255      100.755       47.376    13054.117    10151.511     2244.517        3.279        1.273      200.090       62.854        0.099      340.864       15.177      856.616
05/04/2014  02:23:00     -261.017       25.786       -7.189      119.026       86.377       53.144    14167.204     7460.922     2824.333        4.664        1.223      262.287       59.701        0.052      340.892       15.223      856.647
05/04/2014  02:24:00     -179.766       -9.126       -0.085      124.396       58.484       50.732    15474.364     3420.423     2573.711        2.693        1.073      179.997       56.214        0.098      340.836       15.128      856.646
05/04/2014  02:25:00     -152.061      -45.684        3.279       79.647       63.215       42.089     6343.596     3996.159     1771.508        1.866        0.606      158.776       50.325        0.100      340.741       14.970      856.666
05/04/2014  02:26:00     -149.457      -15.642       -9.074       77.387       59.012       34.399     5988.816     3482.425     1183.289        1.666        0.533      150.273       23.870        0.025      340.788       15.050      856.680
05/04/2014  02:27:00      -95.228      -70.419       10.551       61.246       97.735       33.501     3751.077     9552.211     1122.325        1.428        0.721      118.436       28.904        0.060      340.876       15.199      856.673
05/04/2014  02:28:00     -146.015      -99.469       -1.460       95.906       79.254       43.511     9197.977     6281.269     1893.187        2.429        0.869      176.676       40.805        0.053      340.879       15.203      856.638
05/04/2014  02:29:00     -230.109      -69.485       -6.116       86.255       88.267       45.204     7439.872     7791.138     2043.420        3.754        0.864      240.371       44.101        0.034      340.863       15.173      856.614
05/04/2014  02:30:00     -246.495      -75.878        1.757      112.247       72.715       49.958    12599.299     5287.454     2495.827        4.345        1.019      257.910       48.075        0.035      340.744       14.972      856.592
05/04/2014  02:31:00     -213.493      -96.502        2.845       90.192       89.370       47.391     8134.525     7986.943     2245.925        3.663        0.918      234.290       43.892        0.035      340.943       15.309      856.627
05/04/2014  02:32:00     -222.518      -42.255       -7.343       82.102      110.478       52.621     6740.796    12205.479     2768.961        3.653        1.086      226.495       46.292        0.042      341.108       15.589      856.635
05/04/2014  02:33:00     -192.626       -2.065      -14.610       47.145       46.589       20.062     2222.660     2170.540      402.490        2.106        0.240      192.637       20.443        0.011      340.990       15.389      856.603
05/04/2014  02:34:00     -165.999      -20.924       -3.571       77.131       49.011       34.883     5949.175     2402.038     1216.800        1.879        0.478      167.313       31.353        0.035      340.888       15.218      856.570
05/04/2014  02:35:00     -234.206      -32.407      -14.349       82.217       76.373       38.477     6759.680     5832.882     1480.512        3.509        0.704      236.437       40.926        0.030      340.821       15.103      856.552
05/04/2014  02:36:00     -306.533      -58.414       -7.134      112.357       91.878       55.703    12624.077     8441.624     3102.842        6.079        1.208      312.049       62.100        0.040      340.759       14.998      856.532
05/04/2014  02:37:00     -321.855      -66.398       -4.718      143.094       99.514       57.202    20475.910     9903.042     3272.117        7.083        1.683      328.633       70.560        0.046      340.748       14.979      856.546
05/04/2014  02:38:00     -328.474      -18.938      -27.520      138.197       70.813       54.621    19098.534     5014.516     2983.508        6.805        1.355      329.019       69.076        0.044      340.897       15.233      856.583
05/04/2014  02:39:00      -80.990      -95.052       30.008      101.693       74.536       53.889    10341.427     5555.547     2903.972        1.764        0.940      124.877       61.250        0.241      340.747       14.980      856.617
05/04/2014  02:40:00      -26.886      -41.552       15.149       44.721       46.376       22.490     1999.935     2150.722      505.817        0.367        0.233       49.491       20.251        0.167      340.770       15.019      856.645
05/04/2014  02:41:00      -80.012      -97.825        5.587       63.753       77.562       37.589     4064.408     6015.858     1412.955        1.375        0.575      126.379       33.893        0.072      340.814       15.092      856.669
05/04/2014  02:42:00     -105.462     -145.197       -3.855       66.250       82.157       32.626     4389.071     6749.695     1064.484        2.221        0.610      179.456       34.371        0.037      340.904       15.246      856.661
05/04/2014  02:43:00      -18.916     -147.891        5.062       58.756       72.048       35.315     3452.300     5190.976     1247.151        1.607        0.495      149.096       30.118        0.041      340.926       15.283      856.667
05/04/2014  02:44:00     -105.423      -83.718       18.397       85.072       65.734       45.242     7237.187     4320.911     2046.870        1.603        0.680      134.621       43.524        0.105      340.799       15.067      856.680
05/04/2014  02:45:00     -131.790      -75.204        6.229       92.051       51.176       34.125     8473.360     2619.017     1164.521        1.766        0.613      151.737       42.938        0.080      340.778       15.031      856.688
05/04/2014  02:46:00     -152.573      -57.689       -3.904      105.133       80.345       44.441    11052.875     6455.322     1975.038        2.305        0.974      163.115       54.127        0.110      340.883       15.209      856.651
05/04/2014  02:47:00     -117.236      -85.405        0.402       59.076       65.443       39.471     3490.028     4282.802     1557.948        1.518        0.467      145.046       26.648        0.034      341.056       15.503      856.615
05/04/2014  02:48:00     -122.121      -63.666       -4.693       50.831       43.966       25.110     2583.828     1932.990      630.530        1.207        0.257      137.721       22.763        0.027      340.938       15.305      856.615
05/04/2014  02:49:00       22.621      -55.836       10.696       67.789       41.472       33.414     4595.304     1719.909     1116.488        0.559        0.372       60.244       24.594        0.167      340.407       14.407      856.620
05/04/2014  02:50:00        6.565      -19.472       11.982       31.818       27.183       23.032     1012.363      738.936      530.465        0.142        0.114       20.549       17.300        0.709      340.349       14.307      856.582
05/04/2014  02:51:00       17.137        7.035        3.195       19.874       24.752       16.345      394.992      612.671      267.161        0.081        0.064       18.524        4.472        0.058      340.070       13.838      856.559
05/04/2014  02:52:00      -81.688      -32.588       -7.175       48.500       24.129       14.826     2352.215      582.192      219.810        0.547        0.158       87.949       16.324        0.034      340.632       14.788      856.558
05/04/2014  02:53:00      -44.379      -21.054       12.141       74.139       25.804       23.003     5496.545      665.860      529.130        0.462        0.335       49.120       30.877        0.395      340.654       14.823      856.593
05/04/2014  02:54:00      -42.869     -110.424        5.339       34.803       65.771       26.366     1211.229     4325.867      695.164        1.014        0.312      118.453       29.474        0.062      340.700       14.900      856.622
05/04/2014  02:55:00       -4.702      -86.884      -11.541       37.989       43.950       31.110     1443.172     1931.560      967.823        0.602        0.217       87.011        2.208        0.001      340.895       15.231      856.617
05/04/2014  02:56:00     -181.830     -151.150        1.698       80.354       71.441       46.064     6456.739     5103.814     2121.936        3.479        0.684      236.450       45.056        0.036      340.928       15.284      856.646
05/04/2014  02:57:00     -180.979      -60.161       -0.030       82.592       74.441       40.104     6821.366     5541.456     1608.311        2.517        0.699      190.717       40.207        0.044      340.987       15.385      856.657
05/04/2014  02:58:00     -129.365     -127.206        4.515       86.870       67.909       44.119     7546.388     4611.568     1946.529        2.352        0.705      181.429       45.857        0.064      340.958       15.337      856.648
05/04/2014  02:59:00      -63.818      -85.416       -4.156       39.029       44.974       22.952     1523.279     2022.691      526.807        0.773        0.204      106.624       16.875        0.025      340.959       15.340      856.632
05/04/2014  03:00:00       -0.778      -72.123        4.788       47.002       33.186       23.880     2209.182     1101.329      570.260        0.455        0.194       72.127       17.509        0.059      340.860       15.173      856.633
05/04/2014  03:01:00      -79.138      -65.307        5.540       50.359       44.996       26.615     2536.025     2024.615      708.373        0.791        0.263      102.605       23.099        0.051      340.770       15.021      856.646
05/04/2014  03:02:00      -80.655      -65.222        6.140       59.293       47.708       25.798     3515.717     2276.046      665.561        0.863        0.323      103.726       30.834        0.088      340.692       14.887      856.662
05/04/2014  03:03:00     -125.135      -68.236        5.235       42.514       37.468       21.014     1807.405     1403.882      441.607        1.200        0.183      142.531       20.183        0.020      340.669       14.850      856.649
05/04/2014  03:04:00      -74.079      -43.493        9.167       75.622       39.879       31.285     5718.737     1590.339      978.724        0.787        0.414       85.903       39.478        0.211      340.730       14.954      856.634
05/04/2014  03:05:00      -51.795      -56.598       24.909       52.975       42.692       26.790     2806.387     1822.589      717.728        0.593        0.267       76.720       24.042        0.098      340.806       15.079      856.650
05/04/2014  03:06:00      -72.068      -65.734        0.400       96.746       32.211       25.253     9359.808     1037.541      637.707        1.027        0.552       97.544       32.244        0.109      340.581       14.699      856.648
05/04/2014  03:07:00        6.743      -81.289        2.452       36.308       33.013       20.168     1318.297     1089.865      406.735        0.474        0.141       81.568       12.611        0.024      340.612       14.754      856.650
05/04/2014  03:08:00        0.351      -36.340        2.884       19.534       18.511       16.379      381.581      342.645      268.271        0.116        0.050       36.341       10.138        0.078      340.574       14.690      856.669
05/04/2014  03:09:00        7.806        2.537       10.843       18.807       35.462       18.619      353.721     1257.551      346.659        0.107        0.098        8.208       20.915        6.493      340.260       14.158      856.661
05/04/2014  03:10:00      -35.310      -52.776        1.908       32.694       37.046       23.151     1068.901     1372.434      535.959        0.351        0.149       63.499       13.359        0.044      340.785       15.046      856.617
05/04/2014  03:11:00      -35.507      -42.370        9.227       57.874       46.176       33.285     3349.371     2132.246     1107.868        0.486        0.329       55.281       27.329        0.244      340.610       14.750      856.581
05/04/2014  03:12:00       46.506      -80.438       -3.706       36.823       35.179       28.165     1355.918     1237.583      793.290        0.602        0.169       92.914       20.920        0.051      340.431       14.447      856.603
05/04/2014  03:13:00      -21.931      -64.426       -6.513       90.396       24.892       20.775     8171.455      619.618      431.617        0.695        0.461       68.056       22.613        0.110      340.668       14.848      856.610
05/04/2014  03:14:00     -125.656      -63.510       -6.614       28.750       27.685       21.037      826.543      766.463      442.576        1.095        0.102      140.794       10.745        0.006      340.806       15.082      856.589
05/04/2014  03:15:00      -76.264      -81.392        6.927       58.707       31.683       28.669     3446.548     1003.805      821.907        0.888        0.264      111.539       26.640        0.057      340.764       15.009      856.587
05/04/2014  03:16:00      -69.607      -75.974        2.579       36.966       34.981       20.725     1366.461     1223.696      429.524        0.682        0.151      103.040       19.964        0.038      341.059       15.510      856.592
05/04/2014  03:17:00      -60.438     -111.289       -3.398       37.339       40.214       24.246     1394.211     1617.137      587.869        0.982        0.180      126.641       17.120        0.018      341.030       15.460      856.595
05/04/2014  03:18:00     -105.409     -100.159       -4.524       28.584       40.708       17.388      817.019     1657.117      302.330        1.197        0.139      145.406       14.063        0.009      340.960       15.341      856.581
05/04/2014  03:19:00      -66.518      -65.790        0.014       59.362       28.639       19.824     3523.842      820.213      392.983        0.674        0.237       93.557       19.014        0.041      340.932       15.294      856.564
05/04/2014  03:20:00      -12.577      -67.451       18.262       25.918       47.522       19.966      671.733     2258.355      398.654        0.418        0.166       68.614       23.318        0.115      340.850       15.154      856.556
05/04/2014  03:21:00      -65.163      -87.980       -8.324       38.581       47.859       23.727     1488.508     2290.524      562.980        0.820        0.217      109.484       12.687        0.013      340.776       15.032      856.555
05/04/2014  03:22:00      -19.612      -45.936      -12.656       37.645       32.109       19.612     1417.135     1030.963      384.627        0.274        0.142       49.947       19.901        0.159      340.588       14.712      856.583
05/04/2014  03:23:00     -128.849      -93.777       -6.255       44.906       52.801       23.696     2016.526     2787.942      561.482        1.540        0.268      159.362       22.439        0.020      340.997       15.402      856.605
05/04/2014  03:24:00     -102.982      -61.632        2.649       48.492       46.711       32.973     2351.449     2181.916     1087.210        1.001        0.281      120.015       28.514        0.056      340.712       14.920      856.628
05/04/2014  03:25:00     -172.925      -99.602       -4.862       57.709       44.025       30.051     3330.335     1938.217      903.070        2.301        0.309      199.559       28.833        0.021      340.640       14.798      856.620
05/04/2014  03:26:00     -131.842      -79.897        0.548       40.442       41.072       26.289     1635.549     1686.892      691.087        1.389        0.201      154.162       25.830        0.028      340.565       14.673      856.605
05/04/2014  03:27:00      -69.735      -50.239       13.666       66.636       34.974       29.803     4440.358     1223.202      888.215        0.706        0.328       85.947       38.470        0.200      340.534       14.620      856.610
05/04/2014  03:28:00     -112.430      -53.252        2.255       51.195       37.171       28.116     2620.922     1381.646      790.487        1.014        0.240      124.404       26.034        0.044      340.573       14.687      856.616
05/04/2014  03:29:00     -111.598      -88.377       -3.029       57.423       26.922       26.789     3297.411      724.783      717.627        1.251        0.237      142.354       29.762        0.044      340.717       14.931      856.643
05/04/2014  03:30:00     -104.755      -90.399        1.395       67.377       43.571       28.655     4539.654     1898.460      821.089        1.320        0.363      138.368       31.403        0.052      340.682       14.870      856.685
05/04/2014  03:31:00     -109.220      -66.149        5.285       59.337       54.279       32.129     3520.925     2946.262     1032.282        1.191        0.375      127.690       27.516        0.046      340.721       14.938      856.668
05/04/2014  03:32:00     -155.194      -91.451       -5.552       44.513       23.538       20.570     1981.395      554.030      423.139        1.772        0.148      180.135       21.493        0.014      340.801       15.072      856.638
05/04/2014  03:33:00      -99.461      -92.042        9.162       71.517       42.405       34.670     5114.743     1798.185     1201.976        1.328        0.406      135.515       34.091        0.063      340.793       15.059      856.647
05/04/2014  03:34:00     -116.584     -105.090        5.602       63.142       63.177       37.895     3986.868     3991.314     1436.065        1.704        0.471      156.958       39.047        0.062      340.785       15.044      856.700
05/04/2014  03:35:00      -58.972     -158.744        1.089       45.422       95.089       26.558     2063.140     9041.905      705.350        2.024        0.591      169.344       36.102        0.045      340.742       14.971      856.729
05/04/2014  03:36:00      -92.016     -119.477       12.348       76.757       74.479       44.954     5891.669     5547.064     2020.886        1.817        0.673      150.803       44.157        0.086      340.479       14.525      856.746
05/04/2014  03:37:00     -129.470     -209.602       11.963       77.226      112.254       54.857     5963.886    12600.993     3009.292        4.120        1.079      246.365       46.087        0.035      340.539       14.625      856.765
05/04/2014  03:38:00     -185.872     -136.867        2.232      106.345       79.684       45.312    11309.311     6349.535     2053.165        3.650        0.986      230.827       56.025        0.059      340.669       14.847      856.750
05/04/2014  03:39:00     -186.780     -150.555       -5.548      102.100       69.217       49.595    10424.341     4790.984     2459.706        3.763        0.884      239.903       48.572        0.041      340.628       14.776      856.763
05/04/2014  03:40:00     -123.153      -54.075       16.560       88.500       70.161       40.270     7832.331     4922.543     1621.634        1.637        0.719      134.502       46.293        0.118      340.614       14.754      856.671
05/04/2014  03:41:00      -59.304     -146.673       -3.800       76.959       53.073       31.738     5922.737     2816.719     1007.285        1.739        0.487      158.208       18.483        0.014      340.687       14.879      856.621
05/04/2014  03:42:00     -279.838     -106.510      -24.495       72.687       57.130       47.019     5283.351     3263.848     2210.816        5.050        0.538      299.423       32.499        0.012      340.748       14.978      856.564
05/04/2014  03:43:00     -111.493      -82.470        4.998       99.284       76.175       47.830     9857.310     5802.584     2287.708        1.860        0.897      138.680       54.659        0.155      340.609       14.747      856.639
05/04/2014  03:44:00     -135.156     -126.065        0.698       71.373       61.704       39.810     5094.038     3807.336     1584.829        2.232        0.524      184.823       36.071        0.038      340.616       14.756      856.666
05/04/2014  03:45:00     -196.782     -114.117       -9.087      106.876       56.780       39.244    11422.384     3224.005     1540.084        3.400        0.809      227.477       45.047        0.039      340.555       14.654      856.663
05/04/2014  03:46:00     -109.071      -37.999       20.061       95.627       87.883       50.353     9144.477     7723.464     2535.381        1.657        0.970      115.500       42.071        0.133      340.513       14.584      856.666
05/04/2014  03:47:00      -93.106      -86.222        2.068       83.969       99.964       42.916     7050.748     9992.743     1841.765        1.749        0.944      126.897       45.039        0.126      340.692       14.887      856.700
05/04/2014  03:48:00     -104.507     -150.597        7.403       70.794       82.520       37.283     5011.819     6809.520     1389.990        2.343        0.661      183.306       16.791        0.008      340.673       14.854      856.720
05/04/2014  03:49:00     -158.823     -113.567       -8.933       66.132       60.372       30.277     4373.462     3644.760      916.697        2.357        0.447      195.249        9.405        0.002      340.750       14.985      856.630
05/04/2014  03:50:00     -180.654      -86.318       -5.225       98.967       63.957       41.806     9794.529     4090.533     1747.778        2.787        0.782      200.216       45.383        0.051      340.751       14.987      856.617
05/04/2014  03:51:00     -140.939      -86.429       -3.418       80.153       65.909       37.519     6424.561     4344.044     1407.663        1.976        0.609      165.329       35.976        0.047      340.679       14.864      856.631
05/04/2014  03:52:00      -64.685     -123.833       -6.223       92.943       73.145       40.784     8638.427     5350.228     1663.337        1.760        0.783      139.710       45.164        0.105      340.767       15.014      856.660
05/04/2014  03:53:00      -36.673      -76.570       11.005       55.816       97.696       37.268     3115.386     9544.476     1388.897        1.069        0.702       84.899       35.738        0.177      340.708       14.916      856.666
05/04/2014  03:54:00      -93.739     -106.553       -3.998       87.583      116.189       48.916     7670.762    13499.928     2392.757        2.186        1.178      141.917       37.151        0.069      341.077       15.539      856.654
05/04/2014  03:55:00      -68.350     -167.565        7.320       99.839      124.841       61.514     9967.734    15585.194     3783.978        3.106        1.467      180.969       52.727        0.085      341.232       15.799      856.696
05/04/2014  03:56:00      -95.375     -193.529        3.621       85.724      107.719       41.370     7348.537    11603.324     1711.483        3.361        1.033      215.754       28.023        0.017      341.269       15.862      856.714
05/04/2014  03:57:00     -205.355     -118.554        5.181      111.276       78.966       46.408    12382.244     6235.595     2153.734        3.851        1.039      237.120       35.456        0.022      341.214       15.769      856.666
05/04/2014  03:58:00      -38.931     -124.404        5.526       55.190       62.676       30.586     3045.956     3928.321      935.508        1.246        0.395      130.353       29.151        0.050      341.159       15.678      856.683
05/04/2014  03:59:00     -201.927     -135.883       -0.381      107.540       68.346       40.583    11564.952     4671.187     1646.977        3.856        0.894      243.390       51.820        0.045      341.047       15.485      856.720
05/04/2014  04:00:00     -239.302     -145.749      -15.610       77.644       57.823       40.205     6028.663     3343.494     1616.449        4.487        0.549      280.193       41.318        0.022      340.896       15.230      856.731
05/04/2014  04:01:00     -271.459      -93.655      -10.578      116.876      115.715       47.463    13659.978    13389.987     2252.783        5.593        1.465      287.161       51.951        0.033      340.976       15.366      856.660
05/04/2014  04:02:00     -245.847      -71.339       -7.626      124.377       92.354       61.907    15469.668     8529.201     3832.497        4.670        1.392      255.988       67.829        0.070      340.815       15.093      856.661
05/04/2014  04:03:00     -191.155      -53.306      -14.815       86.643       63.935       33.312     7507.026     4087.665     1109.699        2.615        0.635      198.449       17.828        0.008      340.923       15.276      856.616
05/04/2014  04:04:00     -203.354      -67.497       13.754      139.433       99.902       56.199    19441.564     9980.454     3158.275        3.933        1.629      214.263       76.606        0.128      340.907       15.250      856.653
05/04/2014  04:05:00     -239.453     -153.481      -18.180       92.528      104.985       49.788     8561.514    11021.954     2478.869        5.164        1.103      284.419       49.415        0.030      341.023       15.444      856.697
05/04/2014  04:06:00     -177.887     -129.635       -3.183       99.658       95.607       61.730     9931.681     9140.787     3810.572        3.567        1.144      220.112       54.720        0.062      340.954       15.328      856.699
05/04/2014  04:07:00     -243.376      -72.366       -6.192       95.448       69.617       43.220     9110.247     4846.506     1867.980        4.016        0.791      253.907       44.643        0.031      340.913       15.257      856.620
05/04/2014  04:08:00     -181.422      -92.520       -0.380       89.072       79.583       40.475     7933.781     6333.521     1638.203        2.869        0.795      203.651       32.147        0.025      340.982       15.376      856.607
05/04/2014  04:09:00     -183.224      -89.626        1.696       88.446       62.544       42.608     7822.699     3911.775     1815.474        2.758        0.677      203.970       44.811        0.048      340.842       15.138      856.616
05/04/2014  04:10:00     -142.081     -112.467        0.344      119.689       84.409       54.197    14325.391     7124.918     2937.324        2.861        1.219      181.206       60.572        0.112      340.810       15.086      856.668
05/04/2014  04:11:00     -126.309      -66.985       11.295       67.211       44.762       28.290     4517.270     2003.636      800.325        1.394        0.366      142.972       28.065        0.039      341.008       15.421      856.655
05/04/2014  04:12:00     -139.969      -57.109       -2.168       85.087       64.008       32.810     7239.864     4097.036     1076.504        1.763        0.621      151.171       35.958        0.057      340.773       15.023      856.600
05/04/2014  04:13:00      -77.346      -59.892        8.505       60.918       45.170       26.995     3711.027     2040.313      728.738        0.806        0.324       97.823       25.052        0.066      340.843       15.143      856.548
05/04/2014  04:14:00      -61.447      -63.018       21.518       92.995       72.460       45.067     8648.083     5250.466     2031.027        1.207        0.796       88.017       47.812        0.295      340.760       15.003      856.573
05/04/2014  04:15:00     -210.469     -152.048       -4.527       97.018       77.200       51.120     9412.465     5959.825     2613.209        4.271        0.899      259.645       47.980        0.034      340.794       15.058      856.622
05/04/2014  04:16:00     -190.665      -86.102      -11.461       79.459       57.585       35.542     6313.695     3316.062     1263.201        2.739        0.545      209.205       34.400        0.027      340.772       15.020      856.655
05/04/2014  04:17:00     -211.686     -112.434      -12.493       84.434       61.617       41.385     7129.145     3796.621     1712.677        3.512        0.632      239.693       43.338        0.033      340.849       15.151      856.622
05/04/2014  04:18:00      -79.331       -2.253       -3.343       44.422       47.041       35.895     1973.307     2212.832     1288.436        0.589        0.274       79.363       33.768        0.181      340.849       15.153      856.555
05/04/2014  04:19:00      -58.360      -19.177        5.231      152.521       53.567       35.291    23262.585     2869.413     1245.485        1.558        1.369       61.430       51.625        0.706      340.643       14.804      856.502
05/04/2014  04:20:00     -243.789      -51.311      -15.245       92.934       94.111       48.287     8636.757     8856.870     2331.640        4.106        0.991      249.130       41.063        0.027      340.995       15.397      856.458
05/04/2014  04:21:00     -234.959      -94.108        0.331       72.826       51.931       33.754     5303.635     2696.810     1139.303        3.660        0.457      253.105       33.560        0.018      340.947       15.315      856.472
05/04/2014  04:22:00      -80.372      -33.532       13.065       87.573       51.872       33.205     7668.979     2690.729     1102.596        0.961        0.573       87.087       41.080        0.223      340.976       15.368      856.493
05/04/2014  04:23:00      -62.451     -120.597       -9.858       85.812       80.704       36.444     7363.782     6513.113     1328.190        1.687        0.760      135.807       38.948        0.082      341.207       15.759      856.523
05/04/2014  04:24:00     -221.096     -158.788      -22.543       78.187       80.867       33.474     6113.168     6539.437     1120.504        4.419        0.689      272.208       25.656        0.009      341.008       15.417      856.584
05/04/2014  04:25:00     -292.573     -200.166      -15.113      103.484       87.724       55.628    10708.897     7695.526     3094.509        7.369        1.075      354.493       58.045        0.027      340.999       15.404      856.645
05/04/2014  04:26:00     -220.144      -85.704       -0.132      107.595       97.686       52.749    11576.762     9542.467     2782.490        3.985        1.195      236.238       60.082        0.065      340.967       15.349      856.648
05/04/2014  04:27:00     -380.032     -100.862        0.677      114.665      110.787       52.751    13148.124    12273.833     2782.649        9.140        1.410      393.189       52.424        0.018      341.159       15.674      856.627
05/04/2014  04:28:00     -324.058     -122.488      -27.194       64.846       50.032       36.851     4205.006     2503.209     1357.990        6.441        0.403      346.434       30.061        0.008      340.979       15.369      856.598
05/04/2014  04:29:00     -266.770      -25.187      -32.958       70.453       81.757       26.223     4963.681     6684.154      687.667        4.261        0.617      267.957       29.379        0.012      341.094       15.564      856.563
05/04/2014  04:30:00      -23.159     -101.255        6.365      193.674      137.986       65.503    37509.612    19040.101     4290.647        3.582        3.042      103.869       53.994        0.270      341.208       15.759      856.569
05/04/2014  04:31:00     -163.592      -23.223        2.781      172.794      123.639       41.998    29857.858    15286.483     1763.870        3.710        2.345      165.232       46.921        0.081      341.208       15.760      856.560
05/04/2014  04:32:00     -235.781      -73.897        1.151      110.328       83.076       55.306    12172.341     6901.553     3058.706        4.159        1.107      247.090       53.897        0.048      341.082       15.545      856.617
05/04/2014  04:33:00      -87.007     -100.521       10.021       77.454       77.909       51.316     5999.165     6069.746     2633.368        1.624        0.735      132.946       42.006        0.100      341.092       15.565      856.598
05/04/2014  04:34:00      -51.946      -44.895        1.944       50.080       42.141       26.441     2508.022     1775.886      699.129        0.485        0.249       68.658       21.454        0.098      341.081       15.546      856.609
05/04/2014  04:35:00      -31.113      -72.526        3.969       51.364       63.868       31.744     2638.301     4079.118     1007.693        0.698        0.386       78.918       35.931        0.207      340.963       15.347      856.607
05/04/2014  04:36:00      -43.394     -171.866        8.365       67.760       84.434       37.545     4591.410     7129.129     1409.599        2.231        0.657      177.260       35.086        0.039      340.875       15.196      856.642
05/04/2014  04:37:00     -100.232     -103.339       -9.163       46.328       98.031       24.337     2146.295     9610.137      592.308        1.658        0.617      143.963       25.743        0.032      340.904       15.244      856.662
05/04/2014  04:38:00      -79.000      -75.886        1.424       68.291       54.233       34.065     4663.687     2941.240     1160.455        1.038        0.438      109.543       29.497        0.073      340.811       15.089      856.627
05/04/2014  04:39:00     -130.087     -145.816        1.851       91.420       95.675       46.402     8357.681     9153.690     2153.103        2.892        0.983      195.410       49.625        0.064      340.907       15.248      856.580
05/04/2014  04:40:00      -76.736      -96.898       -0.474       44.132       49.585       34.479     1947.608     2458.627     1188.785        1.044        0.280      123.603       24.724        0.040      340.949       15.321      856.593
05/04/2014  04:41:00      -86.501     -202.196        8.299       53.368       87.660       34.819     2848.109     7684.358     1212.350        3.009        0.587      219.922       42.451        0.037      340.979       15.369      856.627
05/04/2014  04:42:00     -160.880     -205.236       -8.971       85.327       84.418       53.983     7280.629     7126.482     2914.206        4.270        0.866      260.776       45.497        0.030      340.981       15.373      856.645
05/04/2014  04:43:00     -184.753     -121.055        7.056       94.995       96.953       47.145     9024.065     9399.870     2222.692        3.474        1.032      220.880       44.266        0.040      340.891       15.221      856.683
05/04/2014  04:44:00     -198.754     -129.071      -11.496       90.406       72.248       54.744     8173.246     5219.843     2996.893        3.634        0.819      236.986       34.036        0.021      340.909       15.251      856.714
05/04/2014  04:45:00      -13.267      -57.784       16.367       45.198       45.155       29.285     2042.884     2038.988      857.637        0.436        0.247       59.288       25.244        0.181      340.897       15.236      856.677
05/04/2014  04:46:00      -86.705     -113.034        2.425       75.141       47.726       31.677     5646.115     2277.761     1003.449        1.461        0.446      142.458       23.250        0.027      340.955       15.331      856.627
05/04/2014  04:47:00     -150.524     -142.565        8.562       91.686       72.063       39.474     8406.296     5193.018     1558.205        2.910        0.758      207.322       37.058        0.032      340.893       15.226      856.622
05/04/2014  04:48:00     -251.722     -175.009        3.834       95.893       72.363       46.099     9195.476     5236.367     2125.081        5.528        0.828      306.582       37.868        0.015      340.996       15.398      856.625
05/04/2014  04:49:00     -266.468     -160.976       -2.683       98.160       68.526       49.993     9635.291     4695.861     2499.300        5.687        0.842      311.317       48.297        0.024      340.916       15.264      856.612
05/04/2014  04:50:00     -204.205     -115.432        9.569      105.107       74.163       51.966    11047.485     5500.081     2700.452        3.718        0.962      234.573       50.377        0.046      340.858       15.166      856.591
05/04/2014  04:51:00     -220.686      -63.445        2.199      139.660      108.219       55.399    19505.012    11711.265     3069.080        4.350        1.714      229.624       53.829        0.055      340.781       15.035      856.569
05/04/2014  04:52:00     -217.260     -147.065       -7.629       98.173      111.200       59.154     9637.908    12365.406     3499.204        4.719        1.275      262.355       45.756        0.030      340.842       15.138      856.563
05/04/2014  04:53:00     -221.273     -260.256      -23.258       89.699      106.880       49.783     8045.878    11423.254     2478.389        6.959        1.097      341.606       44.543        0.017      340.945       15.313      856.579
05/04/2014  04:54:00     -186.740     -257.720      -18.973      139.310      113.048       60.032    19407.155    12779.831     3603.784        6.871        1.790      318.263       62.737        0.039      341.098       15.572      856.533
05/04/2014  04:55:00      -50.242     -101.935       18.219       90.989       97.620       54.507     8279.018     9529.574     2971.007        1.701        1.039      113.644       53.840        0.224      340.985       15.383      856.510
05/04/2014  04:56:00     -157.653     -127.087       -3.902      103.558       89.821       54.638    10724.217     8067.835     2985.332        3.139        1.089      202.498       57.241        0.080      340.938       15.301      856.494
05/04/2014  04:57:00     -257.885     -154.328        4.104      135.563       83.712       66.980    18377.331     7007.765     4486.342        6.010        1.494      300.536       67.377        0.050      340.870       15.185      856.563
05/04/2014  04:58:00     -335.038     -220.786       -6.883      100.153       80.864       51.614    10030.549     6539.013     2663.963        9.014        0.962      401.244       45.829        0.013      340.933       15.293      856.616
05/04/2014  04:59:00     -160.119     -114.225        0.344      136.585      100.105       64.769    18655.589    10021.037     4195.085        3.577        1.644      196.686       66.409        0.114      340.791       15.052      856.646
05/04/2014  05:00:00     -254.187     -101.486        8.154      125.990      103.566       54.735    15873.525    10726.008     2995.890        5.228        1.480      273.698       60.552        0.049      340.823       15.106      856.636
05/04/2014  05:01:00     -194.821     -158.992        0.316       98.736       92.284       51.172     9748.810     8516.335     2618.571        4.205        1.044      251.463       54.162        0.046      340.815       15.093      856.624
05/04/2014  05:02:00     -165.473     -161.699       -4.935       87.040       86.110       48.964     7575.942     7414.886     2397.510        3.547        0.869      231.361       50.168        0.047      340.807       15.080      856.686
05/04/2014  05:03:00      -62.597      -53.832       17.113      103.607       39.475       38.227    10734.451     1558.259     1461.298        1.043        0.688       82.561       37.840        0.210      340.742       14.973      856.662
05/04/2014  05:04:00      -34.095     -123.621        8.129       49.480       66.656       31.602     2448.239     4443.021      998.676        1.220        0.394      128.236       16.135        0.016      340.784       15.043      856.661
05/04/2014  05:05:00      -91.949      -78.598        6.507       67.676       75.805       33.683     4580.036     5746.432     1134.536        1.307        0.573      120.964       33.628        0.077      340.742       14.972      856.629
05/04/2014  05:06:00     -220.352     -123.055       -0.542       70.497       71.021       38.323     4969.843     5044.003     1468.645        3.759        0.574      252.383       39.604        0.025      340.731       14.951      856.612
05/04/2014  05:07:00     -208.610      -98.238       -2.377      120.724       99.655       55.230    14574.251     9931.209     3050.358        4.036        1.378      230.584       57.490        0.062      340.707       14.911      856.646
05/04/2014  05:08:00     -155.433     -113.959       -2.976       95.431       90.127       42.182     9107.072     8122.809     1779.300        2.808        0.950      192.734       42.438        0.048      340.750       14.983      856.671
05/04/2014  05:09:00     -189.820      -90.564      -12.979       57.504       70.345       29.384     3306.718     4948.482      863.420        2.676        0.456      210.318       22.645        0.012      340.806       15.077      856.660
05/04/2014  05:10:00      -96.994      -96.787       10.676       80.067       56.884       36.839     6410.653     3235.815     1357.098        1.494        0.550      137.024       40.525        0.087      340.750       14.985      856.610
05/04/2014  05:11:00     -153.263     -102.419       -6.036       62.762       51.982       32.666     3939.125     2702.133     1067.072        2.086        0.385      184.335       33.296        0.033      340.719       14.933      856.603
05/04/2014  05:12:00     -144.877      -85.003       -6.699       65.453       60.531       33.988     4284.096     3663.964     1155.154        1.868        0.455      167.973       30.011        0.032      340.685       14.876      856.601
05/04/2014  05:13:00      -95.896     -164.592       -5.967       84.203      116.659       38.192     7090.217    13609.297     1458.632        2.924        1.108      190.490       37.568        0.039      340.719       14.933      856.601
05/04/2014  05:14:00      -81.507     -218.889       -1.218       73.955       69.117       36.371     5469.323     4777.111     1322.862        3.306        0.578      233.572       32.718        0.020      340.763       15.003      856.644
05/04/2014  05:15:00     -107.523     -173.249       -0.201      100.140      101.385       46.742    10028.031    10278.891     2184.778        3.203        1.125      203.903       51.644        0.064      340.699       14.898      856.664
05/04/2014  05:16:00     -143.513     -215.242       -2.785       70.563      112.390       43.733     4979.174    12631.606     1912.581        4.322        0.976      258.699       40.401        0.024      340.689       14.882      856.666
05/04/2014  05:17:00     -170.376     -109.548       -1.490       83.276       67.342       50.035     6934.964     4534.936     2503.507        2.750        0.699      202.555       44.903        0.049      340.627       14.776      856.658
05/04/2014  05:18:00     -196.185     -202.473       -0.748      100.401      143.104       59.747    10080.318    20478.618     3569.707        5.680        1.706      281.929       60.225        0.046      340.724       14.938      856.707
05/04/2014  05:19:00     -170.935     -263.699       -5.354      100.498      186.572       55.586    10099.924    34809.172     3089.840        7.338        2.400      314.255       37.444        0.014      340.848       15.148      856.709
05/04/2014  05:20:00     -163.380      -90.344        7.884      120.508      113.969       49.741    14522.269    12988.920     2474.147        3.245        1.499      186.695       64.997        0.121      340.784       15.041      856.677
05/04/2014  05:21:00     -123.692      -86.175        0.073      100.724       77.186       44.666    10145.376     5957.709     1995.011        2.041        0.905      150.751       55.709        0.137      340.773       15.025      856.684
05/04/2014  05:22:00     -183.136     -168.887      -16.156       93.021       73.215       53.594     8652.881     5360.412     2872.295        3.960        0.844      249.121       51.624        0.043      340.789       15.050      856.690
05/04/2014  05:23:00     -207.031     -110.042       -1.115       99.943       76.140       48.045     9988.674     5797.312     2308.368        3.653        0.905      234.459       57.306        0.060      340.746       14.977      856.714
05/04/2014  05:24:00     -161.304      -59.042        2.231       77.857       59.591       37.890     6061.752     3551.080     1435.631        2.028        0.552      171.771       34.105        0.039      340.729       14.948      856.705
05/04/2014  05:25:00      -76.383       19.573       -2.600       53.118       27.093       29.490     2821.513      734.028      869.682        0.532        0.221       78.851       34.270        0.189      340.664       14.842      856.639
05/04/2014  05:26:00     -105.446      -44.421       -1.795       52.873       34.698       26.800     2795.561     1203.931      718.221        0.891        0.236      114.421       24.806        0.047      340.717       14.929      856.637
05/04/2014  05:27:00      -98.549     -118.391       12.115       64.975       87.808       36.806     4221.757     7710.167     1354.650        1.858        0.664      154.040       43.261        0.079      340.732       14.954      856.726
05/04/2014  05:28:00     -125.370     -166.186        7.519       64.421       91.624       41.570     4150.060     8394.867     1728.105        2.883        0.714      208.172       25.245        0.015      340.808       15.082      856.817
05/04/2014  05:29:00     -164.570     -210.848      -10.856      100.254       92.551       50.849    10050.827     8565.616     2585.635        4.643        1.060      267.470       46.165        0.030      340.842       15.138      856.791
05/04/2014  05:30:00      -91.697      -65.150        4.868       77.655       84.810       52.604     6030.258     7192.656     2767.176        1.433        0.800      112.485       39.498        0.123      340.838       15.134      856.618
05/04/2014  05:31:00      -81.557     -104.587        0.263       87.187       63.882       41.220     7601.520     4080.890     1699.071        1.548        0.669      132.627       49.705        0.140      340.842       15.139      856.536
05/04/2014  05:32:00     -150.911     -108.274       13.066      102.722       84.913       50.869    10551.832     7210.197     2587.649        2.750        1.017      185.735       55.068        0.088      340.804       15.076      856.641
05/04/2014  05:33:00     -261.693     -153.746        1.925      120.360       81.585       53.743    14486.509     6656.146     2888.272        5.807        1.202      303.515       49.613        0.027      340.786       15.044      856.735
05/04/2014  05:34:00     -328.973     -184.905       -0.633      171.994      144.675       75.015    29581.829    20930.923     5627.272        9.927        2.807      377.377       84.768        0.050      340.714       14.922      856.738
05/04/2014  05:35:00     -286.845     -181.856        2.699      161.954      128.555       63.726    26229.166    16526.497     4061.028        8.108        2.341      339.634       62.054        0.033      340.731       14.951      856.685
05/04/2014  05:36:00     -297.070     -178.068       -7.890       99.845       95.942       57.506     9968.987     9204.938     3306.887        7.125        1.124      346.351       58.771        0.029      340.792       15.052      856.605
05/04/2014  05:37:00     -270.247      -87.464      -17.173       80.865       77.249       46.551     6539.132     5967.366     2166.989        4.782        0.734      284.048       42.960        0.023      340.828       15.113      856.638
05/04/2014  05:38:00     -285.517     -150.536      -12.200      176.853      142.629       68.453    31277.001    20342.931     4685.803        8.031        2.815      322.771       71.375        0.049      340.883       15.209      856.654
05/04/2014  05:39:00     -233.029     -194.605      -12.968      127.711       93.794       53.177    16310.021     8797.279     2827.798        6.013        1.397      303.601       40.098        0.017      340.879       15.201      856.656
05/04/2014  05:40:00     -213.241     -118.899       -4.624      119.369       80.295       44.845    14248.901     6447.289     2011.110        4.116        1.135      244.149       54.866        0.051      340.836       15.130      856.654
05/04/2014  05:41:00     -142.164     -133.220       -3.589       95.635       71.525       43.469     9146.147     5115.828     1889.550        2.706        0.808      194.828       47.210        0.059      340.737       14.961      856.677
05/04/2014  05:42:00     -129.814      -69.314       14.924       97.633       69.009       46.164     9532.187     4762.293     2131.115        1.915        0.821      147.160       50.404        0.117      340.667       14.845      856.759
05/04/2014  05:43:00     -138.602     -102.425        3.047      104.514       85.724       40.355    10923.174     7348.599     1628.509        2.480        0.995      172.341       49.819        0.084      340.656       14.826      856.790
05/04/2014  05:44:00     -123.847      -98.476       -5.353      167.327       88.842       45.554    27998.430     7892.980     2075.212        3.151        1.898      158.227       36.407        0.053      340.831       15.122      856.690
05/04/2014  05:45:00      -21.801       -7.454       19.541       35.337       44.204       39.136     1248.682     1954.001     1531.602        0.282        0.237       23.040       29.939        1.688      340.606       14.743      856.563
05/04/2014  05:46:00        3.566      -77.521      -11.851      104.335       60.617       38.242    10885.690     3674.465     1462.452        1.109        0.801       77.603       30.405        0.154      340.809       15.085      856.580
05/04/2014  05:47:00      -87.600     -110.926        2.758       85.464       75.391       38.766     7304.071     5683.862     1502.787        1.724        0.725      141.345       34.431        0.059      340.890       15.222      856.761
05/04/2014  05:48:00     -206.797     -128.431       15.339      145.555      102.778       65.087    21186.152    10563.280     4236.332        4.773        1.799      243.433       72.679        0.089      340.929       15.286      856.850
05/04/2014  05:49:00     -141.266     -187.904       -1.009      112.240      113.121       57.272    12597.832    12796.369     3280.107        4.196        1.434      235.083       52.541        0.050      341.065       15.516      856.783
05/04/2014  05:50:00      -25.830        3.024       11.333       46.956       39.468       33.489     2204.890     1557.686     1121.539        0.284        0.244       26.006       22.602        0.755      340.799       15.069      856.651
05/04/2014  05:51:00        3.034     -106.173        1.479       78.651       55.703       30.501     6186.047     3102.786      930.329        1.075        0.511      106.217       24.502        0.053      340.950       15.325      856.744
05/04/2014  05:52:00      -44.724      -43.012        3.778      102.525       47.947       44.017    10511.465     2298.938     1937.493        0.930        0.737       62.050       46.724        0.567      340.947       15.320      856.846
05/04/2014  05:53:00      -68.841     -118.323      -11.428       89.535      115.537       61.179     8016.505    13348.788     3742.907        2.198        1.255      136.892       60.571        0.196      341.034       15.466      856.852
05/04/2014  05:54:00      -42.204     -112.281       -4.136       93.984       88.779       43.357     8833.066     7881.646     1879.838        1.650        0.930      119.951       52.073        0.188      341.028       15.455      856.833
05/04/2014  05:55:00      -77.916     -110.606      -11.970       65.067       54.800       39.023     4233.726     3003.059     1522.820        1.360        0.438      135.294       24.868        0.034      341.040       15.478      856.848
05/04/2014  05:56:00      -63.371     -117.687       -2.310       65.036       69.131       41.119     4229.735     4779.059     1690.731        1.428        0.535      133.664       32.329        0.059      341.109       15.593      856.864
05/04/2014  05:57:00      -95.865     -145.993       -4.228       55.053       50.985       32.860     3030.789     2599.480     1079.779        1.861        0.336      174.654       12.570        0.005      341.079       15.542      856.906
05/04/2014  05:58:00     -250.402     -168.753      -11.524      101.609       87.413       52.851    10324.424     7640.991     2793.245        5.603        1.038      301.958       42.888        0.020      340.973       15.360      856.967
05/04/2014  05:59:00     -172.678     -264.407        7.786      116.831      123.018       68.040    13649.582    15133.342     4629.390        6.659        1.671      315.799       59.067        0.035      340.938       15.301      856.949
05/04/2014  06:00:00     -210.365      -11.309       -1.055      109.293       97.256       52.431    11944.949     9458.675     2749.014        3.426        1.208      210.669       46.522        0.049      340.817       15.097      856.863
05/04/2014  06:01:00     -118.793      -89.440        8.989      103.295       58.989       53.115    10669.849     3479.698     2821.224        1.958        0.849      148.699       59.097        0.158      340.737       14.963      856.860
05/04/2014  06:02:00     -196.844     -162.685      -18.491      150.149       87.248       45.048    22544.773     7612.147     2029.315        4.886        1.609      255.370       28.941        0.013      340.857       15.163      856.900
05/04/2014  06:03:00      -84.968     -109.982        7.787       68.811       93.372       39.756     4734.919     8718.325     1580.571        1.720        0.752      138.981       36.378        0.069      340.782       15.039      856.954
05/04/2014  06:04:00      -81.100      -63.441        6.397       75.852       79.479       38.042     5753.510     6316.881     1447.168        1.208        0.676      102.966       28.716        0.078      340.669       14.849      856.972
05/04/2014  06:05:00       -8.615      -17.570        2.054       45.853       33.101       17.326     2102.496     1095.693      300.202        0.194        0.175       19.568       10.034        0.263      340.569       14.682      856.964
05/04/2014  06:06:00      -60.803      -77.804       -0.106       82.963       53.441       34.418     6882.908     2855.941     1184.613        1.033        0.546       98.744       29.941        0.092      340.654       14.825      856.981
05/04/2014  06:07:00     -104.350      -24.390        2.430       76.924       56.022       25.638     5917.331     3138.459      657.310        1.060        0.486      107.163       33.309        0.097      340.566       14.673      857.003
05/04/2014  06:08:00      -18.226      -26.973        9.863       63.101       41.588       22.176     3981.696     1729.551      491.778        0.368        0.310       32.553       21.888        0.452      340.475       14.522      856.978
05/04/2014  06:09:00      -64.595        2.808        6.596       69.652       42.059       28.151     4851.413     1768.950      792.490        0.582        0.371       64.656       30.161        0.218      340.461       14.497      856.926
05/04/2014  06:10:00       -5.675      -19.672       -3.091       51.948       34.265       28.137     2698.624     1174.077      791.710        0.255        0.233       20.474       26.575        1.685      340.411       14.412      856.910
05/04/2014  06:11:00       14.955       -1.437       28.568       43.830       64.924       33.844     1921.077     4215.110     1145.436        0.416        0.364       15.024       36.713        5.971      340.221       14.091      856.861
05/04/2014  06:12:00       -8.241      -65.277        0.940       42.396       56.956       27.392     1797.455     3243.973      750.309        0.506        0.290       65.795       32.342        0.242      340.567       14.676      856.873
05/04/2014  06:13:00     -138.903     -113.707       -8.720       75.941       54.527       37.529     5767.105     2973.142     1408.417        2.122        0.507      179.509       41.363        0.053      340.552       14.649      856.901
05/04/2014  06:14:00      -94.461      -87.031       -3.423       52.229       46.355       20.813     2727.848     2148.805      433.163        1.091        0.265      128.441       18.210        0.020      340.546       14.640      856.901
05/04/2014  06:15:00       -3.703       -6.944       17.944       20.746       24.501       13.098      430.398      600.308      171.559        0.079        0.060        7.869        8.248        1.098      340.332       14.279      856.842
05/04/2014  06:16:00       32.626      -21.012       -5.453       29.894       24.983       20.798      893.628      624.152      432.551        0.174        0.098       38.806       13.076        0.114      339.939       13.617      856.807
05/04/2014  06:17:00       -7.594      -31.910        0.289       42.140       21.151       22.502     1775.776      447.344      506.359        0.190        0.136       32.801       18.246        0.309      340.354       14.317      856.852
05/04/2014  06:18:00     -100.931      -49.074      -12.722       26.613       43.065       19.080      708.255     1854.606      364.036        0.784        0.146      112.229       11.120        0.010      340.627       14.777      856.854
05/04/2014  06:19:00      -61.837      -20.470        7.752       45.274       25.735       20.259     2049.738      662.271      410.423        0.371        0.156       65.137       13.808        0.045      340.579       14.696      856.846
05/04/2014  06:20:00       27.652      -20.906        5.284       22.211       22.051       17.295      493.350      486.239      299.105        0.125        0.064       34.665       13.923        0.161      340.401       14.395      856.877
05/04/2014  06:21:00       -1.720        2.263       10.189       19.648       23.831       19.477      386.048      567.914      379.356        0.072        0.067        2.843       15.774       30.796      340.278       14.187      856.901
05/04/2014  06:22:00       17.808       24.092        6.764       15.143       23.373       17.055      229.315      546.320      290.886        0.100        0.053       29.959       11.631        0.151      340.020       13.752      856.867
05/04/2014  06:23:00      -15.457       31.472       13.500       30.338       19.244       17.686      920.381      370.317      312.811        0.151        0.080       35.063       15.567        0.197      340.114       13.909      856.832
05/04/2014  06:24:00      -53.614        2.892      -12.737       19.486       25.571        9.331      379.722      653.893       87.070        0.208        0.056       53.692        7.483        0.019      340.303       14.228      856.853
05/04/2014  06:25:00      -78.139      -49.513       -1.767       13.785       17.217        8.433      190.027      296.437       71.115        0.456        0.028       92.505        7.475        0.007      340.400       14.395      856.918
05/04/2014  06:26:00      -46.190      -31.203        2.596       41.725       21.276       16.666     1740.940      452.684      277.752        0.279        0.124       55.742       11.307        0.041      340.324       14.265      856.946
05/04/2014  06:27:00       20.155        9.263        4.624       16.380       12.769       12.360      268.317      163.058      152.773        0.055        0.029       22.182        6.261        0.080      340.305       14.231      856.873
05/04/2014  06:28:00       33.423       33.410       13.481       14.803       19.484       13.475      219.126      379.632      181.586        0.160        0.039       47.258        3.446        0.005      340.211       14.073      856.821
05/04/2014  06:29:00       45.632       58.738        3.318       28.973       20.958       19.566      839.423      439.253      382.837        0.360        0.083       74.381       14.044        0.036      340.239       14.122      856.814
05/04/2014  06:30:00       50.259       21.371        3.806       39.386       28.853       19.476     1551.234      832.496      379.298        0.288        0.138       54.614       13.525        0.061      340.223       14.096      856.814
05/04/2014  06:31:00        7.756      -23.196        4.109       24.500       38.164       22.684      600.254     1456.524      514.549        0.159        0.129       24.458       18.911        0.598      339.960       13.653      856.853
05/04/2014  06:32:00       -4.013      -29.994       -9.414       28.104       27.178       17.603      789.826      738.666      309.866        0.142        0.092       30.262       17.498        0.334      339.772       13.334      856.868
05/04/2014  06:33:00        0.935       24.942       -5.577       19.858       16.392       15.096      394.332      268.682      227.888        0.077        0.045       24.959       11.145        0.199      340.117       13.915      856.900
05/04/2014  06:34:00       61.016       53.028       16.909       26.092       21.471       20.137      680.802      461.017      405.495        0.418        0.077       80.839       12.863        0.025      340.131       13.939      856.951
05/04/2014  06:35:00       73.945       40.136        4.432       21.211       18.707       17.710      449.890      349.966      313.653        0.411        0.056       84.135        8.880        0.011      340.255       14.148      856.977
05/04/2014  06:36:00       10.082       23.077       -3.470       22.741       27.644       15.945      517.154      764.194      254.235        0.109        0.077       25.183       16.259        0.417      340.161       13.991      857.015
05/04/2014  06:37:00       30.200        1.379       -7.598       14.499       24.274       12.359      210.220      589.205      152.743        0.096        0.048       30.231       11.211        0.138      340.270       14.176      857.038
05/04/2014  06:38:00       48.079       23.073       10.367       33.240       13.292       14.938     1104.927      176.689      223.135        0.223        0.075       53.328        8.826        0.027      340.254       14.148      856.997
05/04/2014  06:39:00       61.403       22.541       18.804       27.787       26.896       22.421      772.137      723.384      502.719        0.331        0.100       65.410       18.130        0.077      340.158       13.986      856.959
05/04/2014  06:40:00       69.966       32.086       12.889       27.099       27.081       17.115      734.345      733.406      292.917        0.393        0.088       76.973        7.129        0.009      340.174       14.012      856.957
05/04/2014  06:41:00       28.065      -23.414       -7.052       30.241       35.831       19.033      914.534     1283.886      362.251        0.197        0.128       36.549       10.974        0.090      340.001       13.721      856.993
05/04/2014  06:42:00       22.898      -17.860        7.598       31.438       27.042       24.836      988.339      731.243      616.841        0.162        0.117       29.040       20.238        0.486      340.043       13.791      857.031
05/04/2014  06:43:00       16.063       29.317        3.741       16.678       18.141       13.154      278.139      329.082      173.022        0.096        0.039       33.429        4.876        0.021      340.303       14.230      857.077
05/04/2014  06:44:00       25.660       -5.949        3.934       11.134        9.856        9.632      123.976       97.143       92.767        0.051        0.016       26.341        5.144        0.038      340.306       14.236      857.116
05/04/2014  06:45:00       -6.128      -65.437       15.842       39.142       40.414       19.655     1532.058     1633.260      386.333        0.406        0.178       65.723       14.187        0.047      340.505       14.572      857.117
05/04/2014  06:46:00     -112.201       -2.258       -3.310       51.080       43.691       24.616     2609.200     1908.866      605.947        0.886        0.256      112.223       23.231        0.043      340.598       14.728      857.094
05/04/2014  06:47:00      -83.916       37.362       -1.952       29.867       25.407       18.393      892.035      645.536      338.314        0.516        0.094       91.857       18.803        0.042      340.668       14.850      857.098
05/04/2014  06:48:00      -29.019       55.139        1.575       26.876       31.267       18.011      722.312      977.631      324.400        0.295        0.101       62.309        7.758        0.016      340.683       14.873      857.092
05/04/2014  06:49:00      -46.831       12.798       -3.767       15.137       28.245       15.700      229.130      797.754      246.500        0.182        0.064       48.548       10.750        0.049      340.776       15.029      857.113
05/04/2014  06:50:00        6.833        0.490        9.175       22.707       11.524       14.356      515.625      132.793      206.107        0.049        0.043        6.851        9.427        1.894      340.690       14.888      857.116
05/04/2014  06:51:00       40.582       35.454        2.835       26.512       16.617       16.795      702.887      276.132      282.083        0.209        0.063       53.888        6.430        0.014      340.583       14.704      857.101
05/04/2014  06:52:00       48.454       43.533       -8.562       37.567       26.593       17.855     1411.270      707.170      318.803        0.338        0.122       65.138        7.553        0.013      340.488       14.542      857.123
05/04/2014  06:53:00       30.978      -11.838       11.339       31.030       32.293       27.107      962.878     1042.839      734.798        0.198        0.137       33.162       22.504        0.461      340.200       14.056      857.149
05/04/2014  06:54:00       23.083       -3.093       12.033       26.000        9.593       15.934      675.984       92.028      253.906        0.085        0.051       23.289       13.042        0.314      340.184       14.029      857.148
05/04/2014  06:55:00      -26.321      -21.200       -6.346       13.448       11.018        6.902      180.849      121.407       47.639        0.077        0.017       33.797        6.543        0.037      340.483       14.536      857.182
05/04/2014  06:56:00       11.441        6.042        9.797       14.054       16.855       15.673      197.513      284.093      245.649        0.050        0.036       12.938       10.093        0.608      340.642       14.805      857.205
05/04/2014  06:57:00       10.815       14.212       15.420       10.135       11.461       19.115      102.716      131.351      365.371        0.058        0.030       17.859        7.191        0.162      340.716       14.929      857.219
05/04/2014  06:58:00       38.111       27.592        2.207       21.834       13.733       12.932      476.728      188.602      167.249        0.153        0.042       47.051        9.076        0.037      340.708       14.916      857.211
05/04/2014  06:59:00       46.198       50.108       -6.885       27.283       23.111       14.537      744.351      534.128      211.319        0.309        0.074       68.155       14.131        0.043      340.614       14.756      857.168
05/04/2014  07:00:00        8.698       60.518       -9.981       18.335       22.903       10.730      336.184      524.543      115.130        0.241        0.049       61.139        8.020        0.017      340.726       14.947      857.144
05/04/2014  07:01:00       -9.973       61.197       -8.921       22.614       17.766       11.480      511.411      315.639      131.800        0.244        0.048       62.004        7.030        0.013      340.767       15.015      857.137
05/04/2014  07:02:00      -46.091       11.882      -18.237       30.663       31.488       14.985      940.193      991.524      224.560        0.238        0.108       47.598       15.356        0.104      340.682       14.870      857.120
05/04/2014  07:03:00      -41.360       16.161       -2.125       17.152       26.100       14.128      294.189      681.234      199.595        0.158        0.059       44.405       11.013        0.062      340.557       14.661      857.127
05/04/2014  07:04:00      -63.223       50.332       -5.650       25.018       26.052       19.488      625.922      678.711      379.789        0.412        0.084       80.812       16.066        0.040      340.623       14.772      857.139
05/04/2014  07:05:00      -43.781       37.515       -6.014       22.535       28.451       18.189      507.815      809.468      330.831        0.250        0.082       57.656       16.804        0.085      340.646       14.810      857.155
05/04/2014  07:06:00      -56.550        3.042       -5.797       21.829       28.760       17.792      476.503      827.124      316.558        0.243        0.081       56.632       13.363        0.056      340.685       14.878      857.201
05/04/2014  07:07:00      -46.036      -35.377       -9.787       26.186       21.634       15.186      685.703      468.034      230.619        0.243        0.069       58.059        5.406        0.009      340.704       14.910      857.243
05/04/2014  07:08:00      -52.752      -47.660       -3.162       36.038       23.945       19.354     1298.751      573.351      374.576        0.366        0.112       71.093       13.809        0.038      340.718       14.931      857.283
05/04/2014  07:09:00      -22.365      -13.251        9.426       21.896       24.941       15.169      479.447      622.057      230.111        0.105        0.067       25.996       15.663        0.363      340.844       15.145      857.271
05/04/2014  07:10:00      -19.886       42.046        1.340       18.461       22.502       19.958      340.824      506.341      398.311        0.171        0.062       46.511       21.094        0.206      340.824       15.113      857.195
05/04/2014  07:11:00      -29.850       63.979      -12.394       21.985       18.145       13.637      483.345      329.228      185.970        0.307        0.050       70.600       10.571        0.022      340.794       15.060      857.150
05/04/2014  07:12:00      -95.903        5.075       -5.624       33.771       35.217       15.660     1140.491     1240.263      245.240        0.594        0.131       96.037       15.819        0.027      340.705       14.911      857.201
05/04/2014  07:13:00     -145.361      -44.671       -9.541       54.313       43.571       24.998     2949.906     1898.411      624.891        1.434        0.274      152.070       23.039        0.023      340.634       14.791      857.252
05/04/2014  07:14:00      -54.300        3.599       18.254       83.320       62.315       25.410     6942.285     3883.177      645.648        0.738        0.574       54.419       40.570        0.556      340.665       14.843      857.278
05/04/2014  07:15:00       48.805      166.132      -23.797       42.944       78.699       40.346     1844.154     6193.463     1627.787        2.010        0.483      173.152       50.396        0.085      340.808       15.082      857.158
05/04/2014  07:16:00       86.008      110.827      -11.099       50.336       71.051       41.879     2533.680     5048.218     1753.816        1.457        0.467      140.286       40.130        0.082      340.900       15.242      857.059
05/04/2014  07:17:00       14.514       29.219       20.621       29.150       30.725       28.166      849.696      944.047      793.340        0.204        0.129       32.625       20.914        0.411      340.905       15.249      857.100
05/04/2014  07:18:00       -6.482      -43.672        5.697       34.540       33.702       26.123     1193.033     1135.809      682.398        0.250        0.151       44.151       22.219        0.253      340.769       15.019      857.230
05/04/2014  07:19:00      -65.546      -60.264        5.785       34.937       35.531       20.192     1220.577     1262.464      407.732        0.543        0.145       89.039       19.612        0.049      340.894       15.229      857.301
05/04/2014  07:20:00      -47.005       -8.496        3.102       40.523       40.610       16.008     1642.139     1649.194      256.251        0.292        0.177       47.766       12.269        0.066      340.870       15.190      857.315
05/04/2014  07:21:00       -4.103       23.096        3.244       25.517       22.032       19.788      651.106      485.425      391.584        0.104        0.076       23.457       10.154        0.187      341.011       15.428      857.289
05/04/2014  07:22:00       10.402       52.505       -1.146       23.221       35.117       15.978      539.213     1233.227      255.310        0.245        0.101       53.525       13.857        0.067      341.016       15.436      857.242
05/04/2014  07:23:00        1.368       51.449        0.528       20.760       36.992       18.304      430.960     1368.413      335.025        0.239        0.107       51.467       15.529        0.091      341.039       15.477      857.214
05/04/2014  07:24:00       25.788       57.161       -4.165       25.797       34.049       21.450      665.507     1159.302      460.122        0.312        0.114       62.708       20.366        0.105      340.988       15.388      857.198
05/04/2014  07:25:00       26.004       31.680        5.920       30.693       20.685       21.300      942.063      427.878      453.682        0.177        0.091       40.986       13.193        0.104      340.948       15.322      857.221
05/04/2014  07:26:00       13.374       18.800        6.104       15.553       22.737       18.360      241.901      516.985      337.088        0.083        0.055       23.071       19.588        0.721      341.068       15.525      857.251
05/04/2014  07:27:00       20.284       25.092       27.021       22.332       23.026       16.692      498.704      530.188      278.622        0.154        0.065       32.265        9.941        0.095      340.793       15.059      857.283
05/04/2014  07:28:00       78.567       56.396       11.387       19.782       29.820       21.811      391.332      889.251      475.721        0.562        0.088       96.713       13.593        0.020      340.728       14.949      857.251
05/04/2014  07:29:00       23.859       -0.092       13.960       35.885       24.103       23.038     1287.720      580.967      530.734        0.158        0.120       23.859       25.595        1.151      340.859       15.171      857.232
05/04/2014  07:30:00       18.337       -8.936       -5.182       18.284       20.678       16.809      334.300      427.574      282.554        0.074        0.052       20.399        7.940        0.152      340.685       14.876      857.269
05/04/2014  07:31:00       20.935       39.952        9.559       20.249       21.215       23.828      410.016      450.070      567.763        0.178        0.071       45.105       12.138        0.072      340.779       15.034      857.283
05/04/2014  07:32:00       38.916       17.096       -0.234       19.120       16.717       17.927      365.559      279.473      321.363        0.139        0.048       42.506       14.166        0.111      340.733       14.958      857.246
05/04/2014  07:33:00       56.959      -11.291       10.377       16.644       19.396       21.065      277.018      376.218      443.751        0.229        0.055       58.067        4.940        0.007      340.684       14.876      857.248
05/04/2014  07:34:00      101.130       54.784       23.704       28.400       33.810       26.194      806.567     1143.126      686.143        0.821        0.132      115.016       19.369        0.028      340.756       14.997      857.256
05/04/2014  07:35:00       71.716       55.922       32.871       49.791       33.920       26.574     2479.117     1150.556      706.193        0.684        0.217       90.942        9.505        0.011      340.845       15.148      857.253
05/04/2014  07:36:00       26.237      -55.537      -12.964       19.128       18.854       19.233      365.893      355.462      369.897        0.252        0.055       61.423       10.670        0.030      340.499       14.562      857.288
05/04/2014  07:37:00       16.336       -2.166        4.824       24.692       31.943       27.860      609.697     1020.335      776.193        0.135        0.120       16.479       23.170        1.977      340.608       14.747      857.307
05/04/2014  07:38:00       28.600        6.692        9.021       21.678       13.607       22.784      469.955      185.150      519.118        0.106        0.059       29.373       11.713        0.159      340.682       14.872      857.320
05/04/2014  07:39:00       -7.919        7.045        1.474        9.558       19.700       13.224       91.351      388.097      174.870        0.038        0.033       10.599       11.950        1.271      341.000       15.409      857.315
05/04/2014  07:40:00       18.585       -0.120       22.109       23.543       19.596       13.050      554.267      383.996      170.312        0.097        0.055       18.585        8.333        0.201      341.182       15.719      857.321
05/04/2014  07:41:00       65.365      -34.580       -6.098       43.740       35.402       33.738     1913.209     1253.268     1138.277        0.490        0.215       73.948       20.518        0.077      340.436       14.455      857.320
05/04/2014  07:42:00       32.372      -23.392       11.723       40.400       38.405       35.237     1632.183     1474.979     1241.676        0.304        0.217       39.939       27.944        0.490      341.017       15.438      857.323
05/04/2014  07:43:00       37.581      -45.940       16.545       34.471       61.364       37.419     1188.282     3765.554     1400.154        0.507        0.318       59.353       37.541        0.400      341.285       15.891      857.318
05/04/2014  07:44:00        4.180       -0.861       28.152       19.508       30.793       27.574      380.575      948.190      760.306        0.145        0.104        4.267        6.361        2.222      341.101       15.580      857.298
05/04/2014  07:45:00      -11.640      -12.630       16.719       26.367       52.780       18.599      695.243     2785.776      345.929        0.220        0.191       17.176       13.785        0.644      340.990       15.393      857.316
05/04/2014  07:46:00      -50.808       14.114        7.277       35.570       18.574       23.256     1265.246      345.009      540.837        0.249        0.108       52.732       25.517        0.234      341.017       15.438      857.325
05/04/2014  07:47:00      -77.739      -22.409        6.066       49.684       61.048       32.608     2468.511     3726.870     1063.264        0.692        0.363       80.904       31.757        0.154      341.129       15.628      857.340
05/04/2014  07:48:00     -128.935      -48.242       -7.121       54.293       61.703       23.083     2947.742     3807.240      532.807        1.314        0.364      137.664       24.176        0.031      341.158       15.676      857.347
05/04/2014  07:49:00      -45.896      -81.101        4.748       45.702       77.904       27.281     2088.670     6069.034      744.262        0.880        0.445       93.187       29.344        0.099      341.264       15.857      857.307
05/04/2014  07:50:00      -71.843     -138.674       -2.734       44.520       54.471       25.849     1982.033     2967.041      668.190        1.501        0.281      156.179       24.136        0.024      341.189       15.730      857.304
05/04/2014  07:51:00      -48.532      -53.857        5.443       27.350       41.905       19.701      748.042     1756.009      388.137        0.409        0.145       72.498       10.149        0.020      341.235       15.807      857.318
05/04/2014  07:52:00      -84.278      -61.752       -0.720       33.461       29.386       21.890     1119.641      863.543      479.151        0.669        0.123      104.480       20.426        0.038      341.205       15.758      857.316
05/04/2014  07:53:00      -29.078      -78.591       -2.453       32.392       36.952       20.921     1049.269     1365.464      437.692        0.494        0.143       83.798       22.874        0.075      341.225       15.791      857.302
05/04/2014  07:54:00      -58.329      -49.881        3.197       40.687       31.094       26.693     1655.427      966.850      712.508        0.462        0.167       76.749       23.078        0.090      341.266       15.860      857.282
05/04/2014  07:55:00      -83.417      -66.976       -5.981       27.865       17.171       14.283      776.469      294.842      204.008        0.638        0.064      106.978       10.697        0.010      341.217       15.777      857.293
05/04/2014  07:56:00      -83.189      -37.312       -4.759       23.547       18.534       16.185      554.457      343.493      261.956        0.475        0.058       91.173       12.975        0.020      341.248       15.828      857.303
05/04/2014  07:57:00      -85.697       -6.465        3.330       38.899       30.543       18.287     1513.109      932.887      334.424        0.509        0.139       85.940       20.584        0.057      341.286       15.894      857.326
05/04/2014  07:58:00     -121.262       -9.421        0.729       55.934       32.735       26.931     3128.633     1071.598      725.279        0.986        0.246      121.627       31.973        0.069      341.314       15.941      857.328
05/04/2014  07:59:00     -163.672       -8.214        8.097       72.535       45.029       38.937     5261.378     2027.648     1516.087        1.786        0.440      163.878       43.670        0.071      341.317       15.944      857.316
05/04/2014  08:00:00     -181.317      -72.211        7.039       92.491       78.310       36.528     8554.581     6132.449     1334.271        2.708        0.801      195.167       39.860        0.042      341.311       15.933      857.316
05/04/2014  08:01:00     -201.801      -21.201       -5.853       89.661       55.285       43.337     8039.140     3056.432     1878.096        2.709        0.649      202.911       49.372        0.059      341.300       15.916      857.320
05/04/2014  08:02:00     -137.370      -52.992        6.121      103.904       92.882       41.911    10796.112     8627.134     1756.494        2.144        1.059      147.237       43.567        0.088      341.355       16.009      857.298
05/04/2014  08:03:00     -293.520     -188.047       -5.827      108.834       95.943       49.913    11844.905     9205.099     2491.337        7.254        1.177      348.591       46.191        0.018      341.205       15.752      857.249
05/04/2014  08:04:00     -139.552     -111.157       10.826      108.977       96.641       45.417    11875.979     9339.447     2062.746        2.761        1.164      178.411       44.310        0.062      341.295       15.907      857.289
05/04/2014  08:05:00     -207.205     -123.857       -2.276       76.015       64.949       38.580     5778.272     4218.344     1488.384        3.488        0.574      241.401       42.040        0.030      341.335       15.974      857.333
05/04/2014  08:06:00      -28.191      -52.490       15.256       57.998       72.052       33.949     3363.722     5191.434     1152.521        0.674        0.485       59.581       35.913        0.363      341.582       16.394      857.302
05/04/2014  08:07:00        9.424      -33.391       30.694       57.336       54.891       32.967     3287.387     3013.024     1086.814        0.477        0.369       34.695       36.962        1.135      341.545       16.331      857.240
05/04/2014  08:08:00      -47.006      -52.101        3.660       28.075       52.336       29.063      788.191     2739.101      844.672        0.465        0.219       70.172       25.402        0.131      341.503       16.261      857.202
05/04/2014  08:09:00      -85.899      -80.652       13.382       59.335       73.486       32.188     3520.682     5400.178     1036.092        1.201        0.498      117.827       32.206        0.075      341.475       16.213      857.219
05/04/2014  08:10:00      -77.537      -66.539       15.230       63.306       78.670       37.535     4007.592     6189.027     1408.885        1.114        0.580      102.174       30.091        0.087      341.497       16.251      857.258
05/04/2014  08:11:00     -116.635     -134.011        4.265       57.549       49.672       38.548     3311.833     2467.291     1485.925        1.942        0.363      177.659       34.921        0.039      341.481       16.221      857.302
05/04/2014  08:12:00      -72.565     -146.072        1.294       46.509       83.344       28.584     2163.092     6946.180      817.043        1.826        0.496      163.103       27.287        0.028      341.465       16.195      857.348
05/04/2014  08:13:00     -105.946     -120.772        9.354       78.198       80.817       39.397     6114.909     6531.326     1552.109        2.005        0.710      160.656       32.789        0.042      341.533       16.309      857.349
05/04/2014  08:14:00     -103.444     -102.493       -0.165       72.555       68.588       32.896     5264.274     4704.290     1082.156        1.613        0.553      145.621       30.507        0.044      341.625       16.466      857.338
05/04/2014  08:15:00     -137.607     -115.931        5.781      107.169      100.565       60.465    11485.251    10113.413     3656.053        2.883        1.263      179.933       67.494        0.141      341.595       16.414      857.334
05/04/2014  08:16:00     -270.634     -178.600      -15.099      125.783      124.677       75.906    15821.310    15544.303     5761.794        7.124        1.856      324.254       82.902        0.065      341.481       16.218      857.315
05/04/2014  08:17:00     -135.252     -139.041       16.654      126.561       98.652       80.099    16017.569     9732.226     6415.843        3.503        1.608      193.972       77.226        0.159      341.464       16.192      857.293
05/04/2014  08:18:00     -101.368      -41.765        9.253      135.513       86.614       60.566    18363.714     7502.018     3668.203        2.081        1.477      109.635       65.401        0.356      341.711       16.611      857.307
05/04/2014  08:19:00     -336.819      -58.171       -3.377      164.808      113.484       65.447    27161.706    12878.589     4283.255        8.057        2.216      341.806       64.167        0.035      341.438       16.146      857.356
05/04/2014  08:20:00     -184.556     -117.496       -9.772      145.432      126.066       74.886    21150.480    15892.682     5607.877        4.530        2.133      218.784       85.494        0.153      341.595       16.413      857.392
05/04/2014  08:21:00     -256.501     -152.053        3.733      146.124      116.753       69.062    21352.116    13631.322     4769.572        6.433        1.988      298.182       77.148        0.067      341.599       16.420      857.389
05/04/2014  08:22:00     -366.948      -93.443      -28.815      134.694      104.462       70.108    18142.573    10912.265     4915.112        8.908        1.698      378.658       78.218        0.043      341.458       16.182      857.355
05/04/2014  08:23:00     -181.404      -69.979       -6.413      105.861       96.482       43.459    11206.566     9308.732     1888.684        3.012        1.120      194.433       49.054        0.064      341.521       16.288      857.331
05/04/2014  08:24:00     -222.869      -91.251      -13.197      102.772       80.600       44.178    10562.114     6496.313     1951.692        3.859        0.951      240.827       38.149        0.025      341.577       16.384      857.326
05/04/2014  08:25:00     -116.954      -26.297        2.711       89.576       63.210       45.328     8023.827     3995.551     2054.645        1.422        0.704      119.874       53.065        0.196      341.749       16.677      857.325
05/04/2014  08:26:00     -184.380      -95.579       -1.680       82.542       54.270       30.066     6813.161     2945.185      903.936        2.690        0.533      207.680       33.525        0.026      341.725       16.633      857.359
05/04/2014  08:27:00     -213.251     -159.976       11.339      116.525       89.814       58.762    13578.135     8066.482     3453.027        4.814        1.255      266.586       65.458        0.060      341.721       16.629      857.375
05/04/2014  08:28:00     -218.212     -176.423        9.896      100.186       94.280       58.260    10037.206     8888.646     3394.277        5.058        1.116      280.609       63.689        0.052      341.694       16.581      857.366
05/04/2014  08:29:00     -315.643     -227.416      -11.688      106.955       99.053       69.295    11439.403     9811.531     4801.739        8.876        1.303      389.035       69.381        0.032      341.618       16.452      857.361
05/04/2014  08:30:00     -333.469      -47.506      -23.201      118.176       91.911       52.246    13965.683     8447.641     2729.595        6.956        1.257      336.836       42.843        0.016      341.635       16.481      857.307
05/04/2014  08:31:00      -98.431       -0.081        5.585       55.985       65.590       33.284     3134.269     4301.999     1107.831        0.913        0.427       98.431       32.618        0.110      341.832       16.817      857.268
05/04/2014  08:32:00      -94.272      -95.934        5.037       64.925       77.198       39.672     4215.296     5959.497     1573.849        1.493        0.587      134.501       36.060        0.072      341.963       17.041      857.257
05/04/2014  08:33:00     -369.668     -120.755      -19.333      167.605       98.651       54.896    28091.361     9732.075     3013.617        9.622        2.042      388.891       68.982        0.031      341.853       16.851      857.232
05/04/2014  08:34:00     -204.717     -108.051      -10.034      109.845       70.050       50.073    12066.013     4907.028     2507.320        3.658        0.974      231.482       44.275        0.037      341.806       16.771      857.214
05/04/2014  08:35:00     -120.668     -113.734       -2.550       77.314       68.518       36.808     5977.410     4694.752     1354.837        1.976        0.601      165.819       46.254        0.078      341.846       16.838      857.223
05/04/2014  08:36:00     -208.164     -112.689       -7.185      110.369       80.162       45.054    12181.391     6425.905     2029.894        3.836        1.032      236.708       52.259        0.049      341.831       16.815      857.231
05/04/2014  08:37:00     -137.760      -59.294        0.481       71.902       65.103       43.285     5169.942     4238.390     1873.626        1.689        0.564      149.979       38.056        0.064      341.965       17.042      857.251
05/04/2014  08:38:00     -121.806     -147.663        0.716      101.250       69.151       55.430    10251.616     4781.800     3072.462        2.737        0.905      191.419       49.282        0.066      342.024       17.140      857.270
05/04/2014  08:39:00      -17.828       -8.501       25.915       64.659       43.011       31.139     4180.846     1849.956      969.646        0.403        0.350       19.751       23.100        1.368      342.305       17.621      857.252
05/04/2014  08:40:00        2.764      -13.020       29.610       36.529       34.819       29.924     1334.357     1212.360      895.441        0.225        0.172       13.311       20.312        2.329      342.476       17.912      857.251
05/04/2014  08:41:00      -98.564     -102.016        5.293       79.933       81.529       35.216     6389.218     6646.931     1240.196        1.721        0.714      141.853       24.504        0.030      342.118       17.303      857.265
05/04/2014  08:42:00      -97.346     -167.646       10.908       81.072       94.661       41.267     6572.702     8960.793     1702.986        2.746        0.862      193.859       37.956        0.038      342.001       17.103      857.285
05/04/2014  08:43:00     -126.950     -156.624       -5.559       60.761       69.860       42.177     3691.851     4880.362     1778.896        2.551        0.518      201.612       33.567        0.028      341.949       17.014      857.250
05/04/2014  08:44:00     -133.348     -127.785       -6.508       94.612       69.316       33.559     8951.424     4804.695     1126.218        2.451        0.744      184.691       31.571        0.029      342.033       17.157      857.217
05/04/2014  08:45:00      -87.729     -121.358        0.642       81.545       90.040       42.869     6649.548     8107.145     1837.729        1.951        0.830      149.747       43.096        0.083      342.194       17.431      857.212
05/04/2014  08:46:00       -9.444     -125.814        0.821       41.927       77.060       33.281     1757.853     5938.227     1107.609        1.236        0.440      126.168       34.621        0.075      342.324       17.654      857.210
05/04/2014  08:47:00     -128.002      -74.611        1.259      128.956       49.187       30.091    16629.703     2419.330      905.466        2.095        0.998      148.160       33.340        0.051      342.291       17.596      857.208
05/04/2014  08:48:00     -255.192     -114.626      -27.411       87.490       74.083       45.500     7654.420     5488.245     2070.211        4.711        0.761      279.753       47.818        0.029      342.168       17.385      857.219
05/04/2014  08:49:00     -191.496     -119.836      -10.390      135.853       93.465       43.503    18455.975     8735.696     1892.508        4.011        1.454      225.902       59.630        0.070      342.208       17.454      857.233
05/04/2014  08:50:00     -153.051     -137.556       15.474      136.132       96.343       54.627    18531.943     9282.038     2984.116        3.669        1.540      205.782       58.735        0.081      342.291       17.595      857.270
05/04/2014  08:51:00     -163.889     -157.517        7.878      128.900      107.447       53.103    16615.262    11544.870     2819.973        4.135        1.549      227.313       42.077        0.034      342.193       17.429      857.308
05/04/2014  08:52:00      -90.181      -86.037       16.331       88.405       89.418       45.494     7815.446     7995.610     2069.702        1.684        0.894      124.640       42.950        0.119      342.251       17.529      857.289
05/04/2014  08:53:00      -39.318     -104.649       -9.915      120.821      106.015       51.667    14597.708    11239.077     2669.440        2.055        1.425      111.791       63.694        0.325      342.311       17.630      857.273
05/04/2014  08:54:00      -97.924      -57.589       13.994      108.003       75.117       47.969    11664.609     5642.624     2301.023        1.635        0.980      113.603       41.280        0.132      342.364       17.721      857.243
05/04/2014  08:55:00     -186.839     -107.191      -16.101       90.833      103.305       44.795     8250.557    10671.929     2006.552        3.379        1.046      215.404       35.884        0.028      342.005       17.108      857.222
05/04/2014  08:56:00     -226.787     -127.170      -33.347       90.282      108.297       46.864     8150.882    11728.326     2196.238        4.539        1.104      260.009       42.038        0.026      341.984       17.071      857.206
05/04/2014  08:57:00     -200.983     -138.753      -12.017       87.906      159.021       47.064     7727.409    25287.603     2214.985        4.750        1.761      244.226       39.137        0.026      342.047       17.180      857.209
05/04/2014  08:58:00     -338.951      -36.214       -8.752      129.591      128.545       61.711    16793.725    16523.892     3808.212        7.669        1.856      340.880       64.940        0.036      342.132       17.324      857.209
05/04/2014  08:59:00     -370.691     -150.521       -8.474      148.608       96.115       57.121    22084.279     9238.114     3262.852        9.736        1.729      400.086       63.171        0.025      342.233       17.496      857.238
05/04/2014  09:00:00     -366.027     -106.248      -10.041      133.859       98.476       57.803    17918.203     9697.496     3341.218        8.815        1.548      381.136       60.064        0.025      342.172       17.393      857.262
05/04/2014  09:01:00     -299.722      -50.761       -6.297      129.036       98.159       60.213    16650.225     9635.134     3625.585        6.117        1.496      303.990       66.914        0.048      342.205       17.447      857.289
05/04/2014  09:02:00     -158.807      -38.623       10.719      102.399       92.498       51.886    10485.641     8555.908     2692.130        2.428        1.087      163.436       58.141        0.127      342.292       17.597      857.275
05/04/2014  09:03:00     -227.547      -32.642      -13.759       90.047       86.633       43.056     8108.504     7505.350     1853.858        3.525        0.873      229.876       46.231        0.040      342.302       17.614      857.257
05/04/2014  09:04:00      -63.513      -76.813        5.078       72.847       66.971       36.021     5306.681     4485.075     1297.522        1.052        0.554       99.671       32.263        0.105      342.385       17.757      857.242
05/04/2014  09:05:00     -198.927     -143.583        7.851       95.411       76.202       51.078     9103.310     5806.705     2608.973        3.888        0.876      245.332       50.787        0.043      342.349       17.693      857.226
05/04/2014  09:06:00     -321.484      -44.258      -11.867       93.998       69.876       46.825     8835.571     4882.617     2192.623        6.068        0.796      324.516       44.469        0.019      342.122       17.306      857.240
05/04/2014  09:07:00     -264.785      -23.741      -11.498      108.708       89.342       53.369    11817.496     7981.998     2848.201        4.672        1.132      265.847       58.120        0.048      342.224       17.481      857.230
05/04/2014  09:08:00     -282.569      -54.014       -3.680      114.677       72.387       57.591    13150.749     5239.806     3316.713        5.224        1.085      287.685       55.809        0.038      342.312       17.631      857.238
05/04/2014  09:09:00     -299.054     -139.325      -14.795      154.298      118.082       75.044    23807.854    13943.307     5631.651        7.621        2.169      329.917       75.823        0.053      342.382       17.748      857.240
05/04/2014  09:10:00     -275.261     -108.006        0.385      167.993      117.006       65.137    28221.676    13690.486     4242.864        6.679        2.308      295.692       76.124        0.066      342.257       17.539      857.259
05/04/2014  09:11:00     -260.064      -82.950        2.829      180.860      120.448       58.741    32710.342    14507.729     3450.523        6.259        2.533      272.972       69.816        0.065      342.363       17.716      857.301
05/04/2014  09:12:00     -238.053     -139.838       10.762      159.357      102.934       81.134    25394.609    10595.309     6582.649        5.945        2.129      276.087       86.467        0.098      342.510       17.968      857.334
05/04/2014  09:13:00     -346.491     -259.299       -8.852      174.088      122.560       81.727    30306.532    15021.052     6679.273       11.968        2.600      432.773       89.019        0.042      342.309       17.625      857.366
05/04/2014  09:14:00     -304.915     -253.338       -6.612      160.016      133.807       74.205    25605.136    17904.272     5506.324       10.310        2.451      396.426       83.298        0.044      342.417       17.809      857.373
05/04/2014  09:15:00     -254.429     -155.998        9.263      151.363      115.915       65.513    22910.831    13436.268     4291.904        6.489        2.032      298.445       66.312        0.049      342.392       17.765      857.385
05/04/2014  09:16:00     -176.008      -64.755        5.338       74.943       67.539       43.210     5616.511     4561.529     1867.068        2.362        0.602      187.542       39.778        0.045      342.569       18.067      857.363
05/04/2014  09:17:00     -308.333     -195.353       13.884      262.521      162.451       80.638    68917.462    26390.331     6502.487       11.760        5.091      365.010      108.572        0.088      342.556       18.046      857.359
05/04/2014  09:18:00     -289.854     -164.171        6.194      182.496      135.742       80.018    33304.637    18425.845     6402.827        8.456        2.907      333.118       88.067        0.070      342.429       17.829      857.380
05/04/2014  09:19:00     -260.467     -148.511        6.810      163.177      112.802       69.869    26626.751    12724.351     4881.652        6.708        2.212      299.830       75.912        0.064      342.512       17.971      857.373
05/04/2014  09:20:00     -325.438     -261.908      -26.455      171.180      161.764       81.794    29302.499    26167.490     6690.222       11.867        3.108      417.739       90.600        0.047      342.386       17.756      857.391
05/04/2014  09:21:00     -519.020     -221.823      -26.072      188.111      175.081       81.481    35385.707    30653.469     6639.188       19.596        3.634      564.435       82.308        0.021      342.255       17.535      857.387
05/04/2014  09:22:00     -279.651     -119.221       -7.182      181.710      145.261       68.353    33018.444    21100.640     4672.125        7.562        2.940      304.004       70.308        0.053      342.379       17.746      857.387
05/04/2014  09:23:00     -294.699     -146.740       -4.414      151.793      147.194       62.907    23041.011    21666.196     3957.284        7.852        2.433      329.212       66.630        0.041      342.226       17.486      857.376
05/04/2014  09:24:00     -181.452     -206.777       16.799      139.221      147.402       76.364    19382.582    21727.255     5831.472        6.144        2.347      275.103       81.576        0.088      342.250       17.526      857.393
05/04/2014  09:25:00     -265.096     -181.436        8.956      124.854       97.628       65.152    15588.614     9531.315     4244.821        6.631        1.468      321.240       55.911        0.030      342.263       17.548      857.396
05/04/2014  09:26:00     -202.456     -146.455       -3.504       94.334      103.885       56.041     8898.924    10792.139     3140.628        4.264        1.142      249.875       51.525        0.043      342.300       17.609      857.402
05/04/2014  09:27:00     -301.656     -106.192       -6.233      188.672      160.364       79.568    35597.144    25716.478     6331.104        8.496        3.382      319.802       82.499        0.067      342.518       17.981      857.384
05/04/2014  09:28:00     -426.065      -32.164      -19.653      254.495      163.151       90.291    64767.482    26618.406     8152.416       14.123        4.977      427.277      109.565        0.066      342.395       17.771      857.361
05/04/2014  09:29:00     -378.033      -86.494      -10.240      192.845      154.208       75.023    37189.142    23780.004     5628.394       10.853        3.330      387.802       77.750        0.040      342.463       17.888      857.378
05/04/2014  09:30:00     -405.534     -147.844      -10.593      234.382      136.703       73.999    54934.819    18687.608     5475.800       13.275        3.955      431.643       96.540        0.050      342.418       17.811      857.391
05/04/2014  09:31:00     -492.793     -119.067      -11.757      243.521      175.862       87.178    59302.672    30927.412     7600.044       17.748        4.892      506.973      107.784        0.045      342.323       17.648      857.382
05/04/2014  09:32:00     -370.468     -144.656      -13.309      191.930      150.756       87.024    36836.951    22727.371     7573.094       11.273        3.357      397.708      102.843        0.067      342.340       17.679      857.401
05/04/2014  09:33:00     -488.977      -59.653      -15.990      190.231      144.985       91.657    36187.885    21020.515     8400.978       15.425        3.280      492.602       97.560        0.039      342.187       17.418      857.395
05/04/2014  09:34:00     -536.114      -95.008      -11.866      239.331      146.928      106.408    57279.312    21587.737    11322.754       19.337        4.509      544.467      119.956        0.049      342.212       17.461      857.402
05/04/2014  09:35:00     -330.978     -228.551        3.422      229.660      181.433      106.683    52743.570    32918.040    11381.194       12.940        4.852      402.221      127.290        0.100      342.244       17.516      857.428
05/04/2014  09:36:00     -360.675     -258.864       -0.526      184.788      138.313       81.152    34146.516    19130.551     6585.601       12.847        2.993      443.956       93.563        0.044      342.064       17.210      857.416
05/04/2014  09:37:00     -270.907     -161.860        1.543      124.269      114.291       57.790    15442.665    13062.538     3339.671        6.571        1.592      315.578       50.860        0.026      342.189       17.421      857.427
05/04/2014  09:38:00     -221.158     -125.268        4.115      160.495      135.410       82.759    25758.546    18335.820     6849.088        5.777        2.547      254.171       93.375        0.135      342.310       17.627      857.387
05/04/2014  09:39:00     -293.790     -183.945        8.916      174.561      145.693       74.565    30471.682    21226.388     5560.009        8.873        2.863      346.625       84.222        0.059      342.338       17.675      857.369
05/04/2014  09:40:00     -344.091     -213.648        5.981      203.584      190.409      112.314    41446.544    36255.702    12614.387       12.718        4.516      405.024      116.107        0.082      342.338       17.673      857.342
05/04/2014  09:41:00     -282.304     -184.934       -9.930      229.633      169.544       97.808    52731.477    28745.063     9566.477       10.250        4.552      337.485      117.565        0.121      342.231       17.492      857.361
05/04/2014  09:42:00     -270.036      -79.784       12.267      159.832      109.993       67.195    25546.251    12098.477     4515.122        6.079        2.108      281.575       73.147        0.067      342.436       17.843      857.371
05/04/2014  09:43:00     -317.702      -83.715       -5.025      158.319      137.525       64.677    25064.843    18913.249     4183.118        7.805        2.408      328.546       60.030        0.033      342.328       17.658      857.398
05/04/2014  09:44:00     -232.189     -116.505       -2.999      188.096      101.924       67.541    35380.038    10388.484     4561.798        5.890        2.517      259.779       79.226        0.093      342.476       17.911      857.378
05/04/2014  09:45:00     -227.150     -194.961       20.211      224.063      122.326       86.100    50204.412    14963.647     7413.282        8.128        3.629      299.344      113.742        0.144      342.490       17.934      857.340
05/04/2014  09:46:00     -388.922      -67.293      -24.174      165.070      143.589       75.229    27247.965    20617.916     5659.428       10.494        2.676      394.700       81.406        0.043      342.546       18.029      857.328
05/04/2014  09:47:00     -194.835      -94.035       -6.256      214.166      125.583       67.279    45867.258    15770.987     4526.406        5.649        3.308      216.341       82.945        0.147      342.902       18.634      857.365
05/04/2014  09:48:00     -503.638       -2.567      -45.177      199.093      147.821       74.387    39637.914    21850.959     5533.397       16.135        3.351      503.645       74.937        0.022      342.282       17.579      857.364
05/04/2014  09:49:00     -395.569      -30.595      -30.326      127.010      107.669       60.859    16131.450    11592.533     3703.761        9.487        1.571      396.750       51.684        0.017      342.268       17.556      857.334
05/04/2014  09:50:00     -182.097      -58.691       22.731      159.958      105.984       64.674    25586.569    11232.610     4182.731        3.905        2.050      191.322       76.391        0.159      342.756       18.387      857.310
05/04/2014  09:51:00     -304.988     -105.988       -6.188      202.311      169.952       84.811    40929.680    28883.694     7192.839        9.063        3.850      322.879       94.205        0.085      342.520       17.985      857.299
05/04/2014  09:52:00     -460.521     -133.537      -23.286      306.757      208.070       99.240    94099.692    43293.211     9848.591       18.882        7.362      479.491      124.834        0.068      342.638       18.184      857.236
05/04/2014  09:53:00     -476.675     -209.450       -9.385      337.170      184.487      120.066   113683.663    34035.314    14415.804       21.662        8.107      520.661      159.157        0.093      342.599       18.118      857.200
05/04/2014  09:54:00     -426.480      -33.035        4.747      287.857      173.285      110.636    82861.377    30027.559    12240.372       15.404        6.256      427.758      133.407        0.097      342.652       18.210      857.217
05/04/2014  09:55:00     -500.896     -123.777       -7.614      206.416      206.078       94.322    42607.365    42468.221     8896.597       18.011        4.699      515.963       98.769        0.037      342.600       18.121      857.235
05/04/2014  09:56:00     -359.251     -180.459       -5.955      269.459      215.250       95.821    72608.117    46332.713     9181.633       14.487        6.406      402.028      122.080        0.092      342.558       18.050      857.278
05/04/2014  09:57:00     -345.632     -226.342      -19.048      197.307      161.327       97.167    38930.162    26026.481     9441.458       12.271        3.720      413.149      108.765        0.069      342.328       17.658      857.275
05/04/2014  09:58:00     -418.607     -140.272        8.000      223.809      190.437       95.289    50090.262    36266.115     9080.025       14.519        4.772      441.484      105.992        0.058      342.429       17.829      857.252
05/04/2014  09:59:00     -499.582      -27.997      -23.171      224.594      134.169       85.471    50442.668    18001.203     7305.336       16.331        3.787      500.366       98.924        0.039      342.375       17.737      857.270
05/04/2014  10:00:00     -441.515     -258.154        3.354      325.170      225.382      105.352   105735.267    50796.877    11098.962       21.458        8.382      511.448      120.721        0.056      342.603       18.126      857.229
05/04/2014  10:01:00     -483.138     -199.957       -4.276      212.189      258.837      101.486    45024.105    66996.398    10299.391       19.785        6.116      522.881      103.003        0.039      342.569       18.067      857.209
05/04/2014  10:02:00     -308.203      -46.966      -22.026      239.849      165.578       81.877    57527.529    27416.080     6703.879        9.465        4.582      311.761      104.454        0.112      342.693       18.277      857.313
05/04/2014  10:03:00     -370.616      -23.979      -33.492      162.940      149.133       84.111    26549.395    22240.592     7074.710        9.745        2.793      371.391       89.477        0.058      342.785       18.434      857.251
05/04/2014  10:04:00     -671.202     -140.261       -6.831      309.653      202.406      106.785    95885.176    40968.240    11402.988       30.921        7.413      685.701      132.290        0.037      342.526       17.995      857.269
05/04/2014  10:05:00     -504.061     -128.076      -22.243      241.028      165.339       80.135    58094.401    27336.966     6421.619       18.140        4.593      520.078       95.177        0.033      342.665       18.230      857.278
05/04/2014  10:06:00     -474.827      -73.543      -21.016      186.045      157.765       81.169    34612.684    24889.916     6588.427       14.869        3.305      480.489       79.587        0.027      342.533       18.007      857.292
05/04/2014  10:07:00     -390.191       11.581      -20.213      233.358      139.353       86.874    54455.863    19419.217     7547.108       11.709        4.071      390.363       98.211        0.063      342.778       18.424      857.282
05/04/2014  10:08:00     -592.123      -84.748      -23.825      296.299      205.347      111.286    87793.278    42167.254    12384.654       25.032        7.117      598.157      141.744        0.056      342.586       18.097      857.234
05/04/2014  10:09:00     -245.764     -130.181        4.605      163.180      139.159       79.021    26627.682    19365.237     6244.395        6.479        2.612      278.114       71.348        0.066      342.738       18.354      857.219
05/04/2014  10:10:00     -274.746     -155.502       -4.303      230.695      188.241       97.696    53220.069    35434.859     9544.482        9.892        4.910      315.699      110.720        0.123      342.843       18.534      857.189
05/04/2014  10:11:00     -515.216      -64.665        7.840      249.218      181.927      102.619    62109.836    33097.569    10530.685       18.769        5.287      519.258      108.509        0.044      342.678       18.255      857.234
05/04/2014  10:12:00     -495.356     -178.536      -37.799      199.783      181.373       98.851    39913.162    32896.065     9771.497       18.061        4.129      526.548       93.354        0.031      342.656       18.216      857.297
05/04/2014  10:13:00     -382.218     -139.176       -6.862      267.280      200.036      111.311    71438.415    40014.266    12390.088       14.465        6.192      406.768      127.623        0.098      342.592       18.106      857.344
05/04/2014  10:14:00     -286.639     -143.366       13.914      231.072      128.728       65.442    53394.374    16570.782     4282.594        8.856        3.712      320.493       79.801        0.062      342.630       18.172      857.367
05/04/2014  10:15:00     -233.901      -34.920       21.871      231.506      131.585       87.057    53594.894    17314.522     7578.966        6.743        3.924      236.494      105.070        0.197      342.832       18.516      857.377
05/04/2014  10:16:00     -287.656     -191.766      -11.722      204.308      148.844       75.019    41741.785    22154.444     5627.861        9.458        3.476      345.717       88.615        0.066      342.758       18.388      857.363
05/04/2014  10:17:00     -211.236     -214.019        6.342      192.676      155.794       83.408    37123.958    24271.617     6956.845        7.940        3.418      300.708       92.833        0.095      342.762       18.396      857.339
05/04/2014  10:18:00     -221.788     -137.820       18.586      158.105      136.705       68.894    24997.252    18688.382     4746.441        5.847        2.422      261.121       73.492        0.079      342.982       18.770      857.336
05/04/2014  10:19:00     -428.573     -290.513       -4.098      317.366      167.098      104.971   100721.058    27921.908    11018.987       20.385        6.983      517.758      127.887        0.061      342.666       18.233      857.298
05/04/2014  10:20:00     -296.638     -290.227        6.739      203.525      195.343      101.329    41422.558    38158.920    10267.617       13.104        4.492      415.001      111.512        0.072      342.551       18.037      857.325
05/04/2014  10:21:00     -126.755     -398.605       -5.036      142.149      185.848       87.339    20206.295    34539.562     7628.141       11.866        3.119      418.274       76.527        0.033      342.675       18.246      857.300
05/04/2014  10:22:00     -524.884     -121.695      -16.243      306.923      265.008      133.225    94201.661    70229.439    17748.858       23.634        9.109      538.807      159.361        0.087      342.698       18.287      857.267
05/04/2014  10:23:00     -333.611     -175.149       16.425      237.849      238.341      105.212    56572.339    56806.290    11069.565       13.332        6.222      376.793      114.639        0.093      342.797       18.455      857.273
05/04/2014  10:24:00     -493.876      -39.897      -10.034      249.235      230.912      105.980    62118.206    53320.213    11231.778       18.611        6.334      495.485      124.187        0.063      342.627       18.167      857.311
05/04/2014  10:25:00     -445.648     -135.940        2.236      309.384      196.970      104.512    95718.364    38797.021    10922.828       18.123        7.272      465.920      119.827        0.066      342.792       18.447      857.316
05/04/2014  10:26:00     -392.952     -235.232        5.812      247.375      226.710      118.254    61194.323    51397.431    13983.939       16.815        6.329      457.979      129.290        0.080      342.682       18.259      857.359
05/04/2014  10:27:00     -572.818     -306.470      -14.546      253.052      194.492      114.046    64035.343    37827.107    13006.484       26.854        5.743      649.649      138.515        0.045      342.414       17.804      857.322
05/04/2014  10:28:00     -487.019     -216.811       12.439      307.450      210.096      114.080    94525.785    44140.516    13014.180       21.798        7.584      533.099      130.741        0.060      342.503       17.955      857.270
05/04/2014  10:29:00     -382.220     -277.905      -19.265      223.332      174.326       91.651    49876.960    30389.471     8399.958       15.616        4.433      472.570      102.707        0.047      342.544       18.025      857.324
05/04/2014  10:30:00     -271.376     -202.615        8.084      180.342      149.719       84.834    32523.330    22415.785     7196.822        8.844        3.107      338.671       93.360        0.076      342.645       18.197      857.309
05/04/2014  10:31:00     -316.393     -268.145        7.907      284.137      228.041      114.370    80733.656    52002.790    13080.432       15.891        7.291      414.736      145.488        0.123      342.846       18.538      857.261
05/04/2014  10:32:00     -362.534     -161.135      -19.565      307.817      159.626       63.516    94751.206    25480.323     4034.266       14.100        6.213      396.731       70.607        0.032      342.936       18.692      857.254
05/04/2014  10:33:00     -506.748     -331.243        7.028      253.033      199.332      106.201    64025.855    39733.129    11278.736       24.078        5.752      605.405      127.755        0.045      342.558       18.049      857.288
05/04/2014  10:34:00     -491.331     -285.352      -24.765      246.186      183.182       90.186    60607.720    33555.555     8133.430       21.285        5.115      568.183      120.879        0.045      342.751       18.377      857.265
05/04/2014  10:35:00     -307.384      -75.568       16.609      217.495      188.545       94.066    47304.055    35549.360     8848.349        9.607        4.585      316.537       96.980        0.094      343.053       18.891      857.285
05/04/2014  10:36:00     -202.063      -39.742       25.655      163.894      150.412       72.392    26861.330    22623.836     5240.631        4.889        2.736      205.934       75.320        0.134      343.124       19.011      857.284
05/04/2014  10:37:00     -254.172      -42.388       14.426      257.524      129.233       91.772    66318.716    16701.144     8422.173        7.901        4.572      257.683      118.657        0.212      343.291       19.296      857.308
05/04/2014  10:38:00     -198.834     -202.840      -14.738      130.781      164.193       68.392    17103.704    26959.330     4677.426        6.481        2.437      284.040       70.874        0.062      343.005       18.811      857.310
05/04/2014  10:39:00     -311.510     -114.358       -1.391      166.288      133.363       69.948    27651.755    17785.564     4892.735        8.021        2.517      331.838       84.940        0.066      343.119       19.004      857.318
05/04/2014  10:40:00     -449.396     -286.327       -3.954      318.546      221.998      122.767   101471.584    49283.162    15071.700       22.486        8.291      532.861      154.411        0.084      342.969       18.746      857.277
05/04/2014  10:41:00     -345.922     -246.860        3.233      227.617      188.791      112.680    51809.333    35641.978    12696.686       14.036        5.007      424.973      109.810        0.067      343.002       18.804      857.232
05/04/2014  10:42:00     -466.813     -210.532       -0.948      220.806      156.693       98.586    48755.395    24552.658     9719.239       17.262        4.151      512.092       89.981        0.031      343.113       18.992      857.273
05/04/2014  10:43:00     -484.312     -287.017        7.025      237.951      186.325      101.865    56620.741    34716.964    10376.530       20.933        5.086      562.971      115.264        0.042      342.857       18.558      857.345
05/04/2014  10:44:00     -318.980     -241.448       -0.630      204.143      171.812      105.353    41674.391    29519.496    11099.271       12.115        4.115      400.057      104.651        0.068      342.743       18.363      857.354
05/04/2014  10:45:00     -380.583     -227.543       -5.928      253.015      218.768      108.379    64016.587    47859.314    11746.103       16.011        6.181      443.418      113.695        0.066      342.825       18.504      857.319
05/04/2014  10:46:00     -279.919     -247.711       17.522      214.703      207.194      113.932    46097.183    42929.331    12980.550       12.099        5.100      373.785      103.633        0.077      342.820       18.494      857.300
05/04/2014  10:47:00     -401.443      -73.082       16.143      300.001      175.798      108.894    90000.889    30904.843    11858.009       14.973        6.638      408.041      142.612        0.122      342.887       18.609      857.319
05/04/2014  10:48:00     -396.841     -261.369        0.078      207.634      204.595      107.650    43112.007    41859.234    11588.448       16.116        4.828      475.180      116.996        0.061      342.747       18.371      857.365
05/04/2014  10:49:00     -535.442     -380.581      -18.835      185.040      160.233       94.001    34239.946    25674.474     8836.164       25.031        3.438      656.917       89.026        0.018      342.545       18.027      857.361
05/04/2014  10:50:00     -212.530     -144.464       19.714      231.169      156.279       69.211    53439.066    24423.102     4790.156        7.452        4.133      256.980       91.442        0.127      342.794       18.451      857.341
05/04/2014  10:51:00     -216.140     -138.350        0.429      142.258      140.910       66.346    20237.226    19855.567     4401.782        5.517        2.225      256.627       79.181        0.095      342.963       18.737      857.345
05/04/2014  10:52:00     -425.641      -79.541      -14.355      199.482      189.020       85.543    39792.932    35728.467     7317.604       13.525        4.142      433.009       82.157        0.036      343.022       18.839      857.325
05/04/2014  10:53:00     -544.974     -286.172      -20.587      318.697      245.891      139.501   101567.592    60462.233    19460.500       28.037        9.075      615.542      169.579        0.076      342.918       18.661      857.281
05/04/2014  10:54:00     -613.806     -413.377      -20.299      304.143      271.461      142.548    92503.165    73691.002    20320.068       36.725        9.326      740.026      162.651        0.048      342.663       18.229      857.263
05/04/2014  10:55:00     -448.795     -117.056       -0.303      185.165      208.423       93.260    34285.954    43439.994     8697.394       15.075        4.321      463.809       92.782        0.040      342.895       18.623      857.333
05/04/2014  10:56:00     -499.588      -51.842      -14.049      264.623      216.904      101.810    70025.336    47047.490    10365.341       18.993        6.372      502.270      118.705        0.056      342.884       18.605      857.334
05/04/2014  10:57:00     -523.392     -165.050      -23.871      244.807      233.862      106.922    59930.478    54691.543    11432.265       21.388        6.303      548.799      106.784        0.038      342.912       18.651      857.348
05/04/2014  10:58:00     -805.394     -232.546      -44.223      268.069      237.006      121.865    71861.166    56172.057    14850.975       42.376        7.144      838.294      139.273        0.028      342.687       18.268      857.311
05/04/2014  10:59:00     -595.899      -70.108      -22.707      256.847      176.855      118.418    65970.607    31277.808    14022.938       23.588        5.564      600.009      142.157        0.056      342.653       18.210      857.359
05/04/2014  11:00:00     -503.926     -149.450      -22.416      215.810      207.604       91.930    46574.168    43099.489     8451.062       18.743        4.906      525.620       96.120        0.033      342.881       18.597      857.317
05/04/2014  11:01:00     -362.294     -190.593       -2.508      254.481      176.172      109.103    64760.714    31036.490    11903.494       13.762        5.385      409.368      122.249        0.089      343.016       18.827      857.366
05/04/2014  11:02:00     -566.332     -248.626      -23.831      243.069      249.586       99.602    59082.603    62292.953     9920.459       25.718        6.565      618.503      103.911        0.028      342.719       18.322      857.384
05/04/2014  11:03:00     -290.130     -131.183        0.412      188.854      147.397       93.685    35665.705    21725.956     8776.907        8.376        3.308      318.410       85.589        0.072      342.939       18.695      857.355
05/04/2014  11:04:00     -394.590     -148.739      -31.815      226.219      140.743       78.767    51174.861    19808.729     6204.236       12.800        3.859      421.692      111.236        0.070      343.182       19.112      857.352
05/04/2014  11:05:00     -410.341     -260.959       -6.555      250.527      173.080       98.354    62763.987    29956.736     9673.492       16.944        5.120      486.292      123.555        0.065      343.117       18.999      857.355
05/04/2014  11:06:00     -505.520     -108.891      -23.783      289.928      185.280       96.727    84058.039    34328.537     9356.136       19.783        6.387      517.115      112.690        0.047      343.010       18.818      857.372
05/04/2014  11:07:00     -484.748     -275.984      -23.099      259.402      178.675      106.762    67289.581    31924.666    11398.102       21.113        5.531      557.807      115.169        0.043      342.885       18.604      857.379
05/04/2014  11:08:00     -336.678       -3.189        1.557      239.344      172.099       85.040    57285.632    29617.974     7231.876       10.373        4.707      336.693      105.375        0.098      343.061       18.905      857.355
05/04/2014  11:09:00     -420.021     -172.545      -16.779      281.241      169.944      108.121    79096.770    28881.018    11690.241       16.305        5.983      454.081      122.364        0.073      343.014       18.823      857.360
05/04/2014  11:10:00     -512.741      -74.295      -42.310      188.037      149.051       76.144    35357.752    22216.320     5797.898       16.678        3.169      518.096       84.124        0.026      343.059       18.899      857.349
05/04/2014  11:11:00     -400.491      -76.700       -1.414      199.672      149.128       85.092    39869.061    22239.155     7240.575       11.780        3.467      407.770       86.670        0.045      343.278       19.274      857.354
05/04/2014  11:12:00     -703.239      -77.407      -31.208      252.509      149.329      105.705    63760.778    22299.068    11173.500       29.935        4.862      707.487      127.617        0.033      342.728       18.337      857.380
05/04/2014  11:13:00     -443.586      -69.515      -23.213      181.779      133.357       79.105    33043.522    17784.074     6257.651       12.960        2.854      449.000       85.928        0.037      342.733       18.347      857.392
05/04/2014  11:14:00     -417.177     -243.386      -12.802      286.559      207.583       99.041    82115.838    43090.667     9809.050       18.420        6.751      482.984      103.546        0.046      342.883       18.601      857.379
05/04/2014  11:15:00     -397.315     -146.483        9.997      331.963      192.679      141.688   110199.726    37125.368    20075.576       17.338        8.370      423.458      143.586        0.115      343.015       18.826      857.383
05/04/2014  11:16:00     -489.658     -159.959       -0.633      272.998      208.165      119.427    74528.137    43332.856    14262.730       19.871        6.606      515.123      119.081        0.053      342.882       18.599      857.406
05/04/2014  11:17:00     -466.002     -141.971      -21.582      225.871      181.861       91.468    51017.827    33073.301     8366.328       16.510        4.623      487.149      101.965        0.044      342.911       18.648      857.473
05/04/2014  11:18:00     -275.540     -160.369       -1.497      208.201      144.285       76.119    43347.611    20818.164     5794.149        8.579        3.498      318.811       81.843        0.066      343.161       19.075      857.471
05/04/2014  11:19:00     -368.471     -270.128      -17.272      208.085      182.635      102.167    43299.214    33355.658    10438.031       14.805        4.355      456.881       98.695        0.047      343.050       18.885      857.465
05/04/2014  11:20:00     -362.278     -187.133      -14.450      161.461      188.549       77.600    26069.531    35550.642     6021.808       11.704        3.382      407.756       76.416        0.035      343.002       18.804      857.462
05/04/2014  11:21:00     -388.601     -204.704        7.466      291.539      201.001      111.365    84994.754    40401.318    12402.098       16.536        6.890      439.221      132.139        0.091      343.194       19.131      857.464
05/04/2014  11:22:00     -571.726     -262.042      -36.722      249.995      219.906      100.736    62497.689    48358.769    10147.761       25.892        6.050      628.917      113.032        0.032      342.773       18.413      857.448
05/04/2014  11:23:00     -545.447        7.656      -37.694      221.369      207.328      104.997    49004.113    42985.085    11024.341       20.098        5.151      545.501      104.140        0.036      342.865       18.570      857.474
05/04/2014  11:24:00     -402.274     -116.248      -31.536      227.976      138.312       75.886    51972.993    19130.170     5758.690       12.658        3.843      418.734       93.385        0.050      342.920       18.664      857.491
05/04/2014  11:25:00     -301.391      -15.379        9.354      216.048      126.534       81.888    46676.560    16010.938     6705.637        8.026        3.470      301.784       85.880        0.081      343.246       19.220      857.500
05/04/2014  11:26:00     -411.645     -222.981      -22.502      254.564      219.803       99.619    64802.803    48313.333     9923.872       17.134        6.152      468.159       94.364        0.041      343.060       18.904      857.515
05/04/2014  11:27:00     -261.644     -219.639       16.851      251.857      143.878      110.110    63432.030    20700.968    12124.191       10.660        4.813      341.613      133.602        0.153      343.020       18.836      857.495
05/04/2014  11:28:00     -275.372     -217.512        5.029      232.103      174.525       98.750    53871.646    30459.058     9751.588       10.861        4.704      350.915      116.237        0.110      343.155       19.065      857.524
05/04/2014  11:29:00     -597.574     -102.237       -5.112      264.003      200.511      123.780    69697.782    40204.755    15321.366       24.637        6.261      606.256      117.758        0.038      342.942       18.701      857.494
05/04/2014  11:30:00     -220.359      -31.469       32.650      233.630      196.751      116.797    54583.056    38710.772    13641.560        7.875        5.347      222.595      123.705        0.309      343.265       19.253      857.505
05/04/2014  11:31:00     -443.746     -153.496       -3.834      284.429      197.201       91.001    80900.067    38888.219     8281.236       17.425        6.403      469.544      103.276        0.048      343.248       19.223      857.504
05/04/2014  11:32:00     -486.264      -98.165      -21.714      243.337      176.065      102.903    59212.781    30998.838    10588.964       17.366        5.040      496.074      113.023        0.052      343.021       18.838      857.506
05/04/2014  11:33:00     -325.643     -176.392      -26.684      161.149      134.230       91.316    25969.084    18017.644     8338.652        9.509        2.616      370.348       58.750        0.025      343.096       18.964      857.486
05/04/2014  11:34:00     -293.496      -78.298       -1.691      200.414      145.553       88.342    40165.702    21185.536     7804.254        8.070        3.458      303.761       99.108        0.106      343.408       19.497      857.516
05/04/2014  11:35:00     -373.838     -123.999       -6.542      204.137      151.299       86.239    41671.755    22891.522     7437.185       11.357        3.600      393.866       87.878        0.050      343.172       19.093      857.525
05/04/2014  11:36:00     -666.639     -116.947      -49.495      242.083      221.329      104.276    58604.351    48986.725    10873.586       28.948        5.923      676.819      110.009        0.026      342.883       18.601      857.458
05/04/2014  11:37:00     -524.882     -210.251      -14.822      236.957      215.748      110.721    56148.419    46547.192    12259.034       21.742        5.748      565.426      110.401        0.038      343.004       18.807      857.474
05/04/2014  11:38:00     -224.927     -127.448        2.610      206.534      151.973       81.458    42656.264    23095.765     6635.435        6.960        3.619      258.525       86.335        0.112      343.245       19.219      857.495
05/04/2014  11:39:00     -347.962     -262.221      -21.227      265.399      244.965      105.660    70436.676    60007.741    11164.066       16.592        7.080      435.703      117.448        0.073      343.194       19.130      857.463
05/04/2014  11:40:00     -489.522     -375.919       -8.914      280.529      210.571      126.155    78696.486    44340.245    15915.202       25.996        6.948      617.209      134.134        0.047      343.002       18.802      857.460
05/04/2014  11:41:00     -440.123     -205.139      -14.819      180.724      139.482       83.495    32661.308    19455.204     6971.405       14.754        2.954      485.582       75.375        0.024      343.215       19.166      857.503
05/04/2014  11:42:00     -531.633     -208.391      -16.141      354.193      172.989      126.116   125453.006    29925.090    15905.284       24.877        8.564      571.017      159.647        0.078      343.075       18.928      857.536
05/04/2014  11:43:00     -273.547     -191.355        8.736      185.047      189.345       98.115    34242.247    35851.624     9626.484        9.560        3.986      333.833       90.821        0.074      343.292       19.297      857.566
05/04/2014  11:44:00     -386.258     -240.422        1.946      237.002      183.662      108.515    56169.741    33731.581    11775.530       15.432        5.084      454.970      134.440        0.087      343.112       18.991      857.565
05/04/2014  11:45:00     -297.801      -81.290       17.810      196.976      190.139      102.728    38799.619    36152.795    10553.030        9.054        4.275      308.696      100.734        0.106      343.231       19.192      857.524
05/04/2014  11:46:00     -470.616     -134.451      -12.823      282.061      188.218      118.386    79558.341    35425.917    14015.190       18.433        6.450      489.445      110.219        0.051      343.084       18.944      857.496
05/04/2014  11:47:00     -402.792     -267.209       21.234      264.083      191.073      112.591    69739.761    36508.954    12676.837       17.649        5.946      483.365      133.397        0.076      343.070       18.919      857.548
05/04/2014  11:48:00     -277.833     -158.657       19.201      194.199      127.565       87.082    37713.190    16272.900     7583.273        8.214        3.078      319.943       88.241        0.076      343.282       19.280      857.510
05/04/2014  11:49:00     -638.244     -207.264      -26.026      285.101      176.675      110.151    81282.680    31214.212    12133.344       28.779        6.232      671.054      128.178        0.036      343.053       18.890      857.526
05/04/2014  11:50:00     -546.054     -265.928      -21.978      210.711      210.629      104.700    44398.935    44364.578    10962.056       23.453        4.986      607.366      114.160        0.035      343.028       18.849      857.552
05/04/2014  11:51:00     -298.747       41.996       -2.828      151.105      121.847       66.885    22832.766    14846.609     4473.562        6.658        2.108      301.684       67.952        0.051      343.216       19.169      857.595
05/04/2014  11:52:00     -118.580      -52.980       16.380      156.477      106.829       71.760    24484.956    11412.355     5149.473        2.908        2.052      129.877       83.249        0.411      343.676       19.955      857.563
05/04/2014  11:53:00     -240.844     -168.170        5.195      171.317      108.694       70.703    29349.683    11814.375     4998.934        6.623        2.308      293.746       72.968        0.062      343.696       19.988      857.561
05/04/2014  11:54:00     -258.681     -195.884       27.000      212.858      181.511       95.354    45308.363    32946.110     9092.410        9.666        4.367      324.478       97.792        0.091      343.462       19.589      857.588
05/04/2014  11:55:00     -351.573     -209.530        3.264      234.113      159.700       88.075    54808.878    25504.123     7757.278       12.778        4.404      409.275       91.529        0.050      343.191       19.125      857.581
05/04/2014  11:56:00     -320.525     -159.047       11.010      201.744      159.993       83.280    40700.546    25597.654     6935.555       10.068        3.662      357.816       86.631        0.059      343.166       19.082      857.519
05/04/2014  11:57:00     -213.007     -192.422       23.745      225.987      175.224      105.984    51069.908    30703.424    11232.710        8.797        4.650      287.051      114.924        0.160      343.485       19.626      857.569
05/04/2014  11:58:00     -312.933     -217.777        0.694      191.564      145.467       92.321    36696.648    21160.637     8523.117       10.585        3.319      381.253      105.837        0.077      342.907       18.641      857.616
05/04/2014  11:59:00     -345.115     -104.352      -14.863      171.440      185.265       84.444    29391.502    34322.954     7130.744       10.052        3.542      360.546      106.621        0.087      343.086       18.946      857.604
05/04/2014  12:00:00     -306.712     -115.459       17.940      159.246      188.442       94.465    25359.148    35510.477     8923.705        8.875        3.490      327.724       82.885        0.064      343.150       19.057      857.579
05/04/2014  12:01:00     -383.224     -272.717       -3.575      226.104      175.171      113.712    51123.131    30684.961    12930.519       15.797        4.737      470.357      114.280        0.059      343.243       19.213      857.562
05/04/2014  12:02:00     -319.856     -144.009      -19.486      257.100      178.145      100.136    66100.486    31735.786    10027.124       11.562        5.393      350.780      115.934        0.109      343.424       19.524      857.561
05/04/2014  12:03:00     -323.176     -296.342        2.384      190.295      187.736      100.597    36212.257    35244.944    10119.705       13.691        4.079      438.476       92.141        0.044      343.332       19.367      857.543
05/04/2014  12:04:00     -453.240     -313.766       -3.821      259.850      228.643      111.783    67522.152    52277.430    12495.500       21.807        6.615      551.249      135.755        0.061      343.143       19.043      857.533
05/04/2014  12:05:00     -477.382      -92.068       -4.117      276.477      222.768      107.981    76439.431    49625.402    11659.975       18.703        6.886      486.179      132.026        0.074      343.193       19.129      857.516
05/04/2014  12:06:00     -600.375     -283.232      -48.123      243.948      211.468      113.514    59510.602    44718.553    12885.520       28.003        5.856      663.830      115.362        0.030      342.881       18.597      857.529
05/04/2014  12:07:00     -383.067     -118.317      -14.018      217.997      187.496       96.278    47522.712    35154.578     9269.369       12.642        4.597      400.922       88.624        0.049      343.200       19.140      857.575
05/04/2014  12:08:00     -394.599     -282.979       -9.788      204.413      221.945      106.961    41784.711    49259.596    11440.661       16.916        5.124      485.577      101.487        0.044      343.171       19.091      857.521
05/04/2014  12:09:00     -368.871      -98.498      -14.790      186.972      167.562       82.618    34958.403    28076.986     6825.733       10.791        3.493      381.796       93.539        0.060      343.340       19.380      857.525
05/04/2014  12:10:00     -363.679      -96.168        1.748      224.891      205.746       91.957    50575.924    42331.377     8456.088       12.142        5.068      376.179      102.906        0.075      343.524       19.693      857.503
05/04/2014  12:11:00     -404.568     -213.426       -4.992      189.852      191.602       76.425    36043.667    36711.491     5840.777       14.391        3.930      457.412       86.630        0.036      343.361       19.414      857.505
05/04/2014  12:12:00     -350.124      -93.474        5.998      193.603      159.886       86.460    37482.216    25563.516     7475.323       10.093        3.526      362.387       94.784        0.068      343.359       19.411      857.517
05/04/2014  12:13:00     -337.172     -186.135      -22.999      158.444      103.710       72.044    25104.391    10755.754     5190.356        9.495        2.053      385.138       75.103        0.038      343.142       19.041      857.507
05/04/2014  12:14:00     -451.989     -177.576      -14.615      176.098      117.354       66.994    31010.386    13772.009     4488.219       14.265        2.464      485.620       75.454        0.024      343.225       19.183      857.486
05/04/2014  12:15:00     -390.521     -133.527      -17.693      184.431      203.233       86.820    34014.867    41303.705     7537.631       12.674        4.143      412.718       94.842        0.053      343.366       19.424      857.475
05/04/2014  12:16:00     -253.517      -48.182        8.157      169.117      121.957       73.470    28600.481    14873.551     5397.908        5.776        2.444      258.055       78.692        0.093      343.615       19.849      857.482
05/04/2014  12:17:00     -583.996     -132.203      -19.463      245.095      188.036      101.937    60071.430    35357.428    10391.084       23.234        5.291      598.773      125.194        0.044      343.321       19.347      857.484
05/04/2014  12:18:00     -471.830     -269.033      -16.393      254.795      191.364       99.233    64920.545    36620.112     9847.201       20.331        5.569      543.141      112.990        0.043      343.007       18.812      857.550
05/04/2014  12:19:00     -364.573     -187.141      -24.490      191.663      163.089       93.657    36734.781    26597.976     8771.556       12.031        3.605      409.799       96.458        0.055      343.299       19.308      857.545
05/04/2014  12:20:00     -416.923     -308.449      -18.826      193.629      168.102       96.162    37492.326    28258.187     9247.223       17.214        3.750      518.619       92.546        0.032      342.987       18.778      857.547
05/04/2014  12:21:00     -310.550     -166.662       -4.100      164.456      188.759       90.898    27045.850    35629.853     8262.368        9.757        3.547      352.445       89.051        0.064      343.278       19.274      857.495
05/04/2014  12:22:00     -281.703     -126.410       12.199      168.257      167.989       85.294    28310.510    28220.304     7275.090        7.963        3.190      308.766       96.915        0.099      343.328       19.358      857.497
05/04/2014  12:23:00     -321.596      -97.940        5.109      244.017      145.902      100.444    59544.429    21287.265    10088.985       10.196        4.546      336.179      129.250        0.148      343.455       19.576      857.491
05/04/2014  12:24:00     -173.272     -217.468       -0.230      225.303      166.766       94.139    50761.505    27811.061     8862.175        8.236        4.372      278.057      110.460        0.158      343.523       19.692      857.527
05/04/2014  12:25:00     -301.806     -175.589       15.463      196.122      183.923       82.319    38463.939    33827.782     6776.430       10.060        3.953      349.168       93.342        0.071      343.647       19.904      857.522
05/04/2014  12:26:00     -181.431      -62.031        9.215      148.431      113.300       65.179    22031.903    12836.827     4248.344        3.798        1.956      191.742       80.573        0.177      343.811       20.184      857.490
05/04/2014  12:27:00     -430.618      -12.666       -8.077      274.108      160.434      106.088    75135.376    25739.124    11254.734       14.887        5.606      430.805      118.401        0.076      343.455       19.577      857.410
05/04/2014  12:28:00     -418.884     -109.629      -23.013      193.296      156.193       85.222    37363.351    24396.168     7262.821       12.850        3.451      432.992       84.700        0.038      343.423       19.520      857.442
05/04/2014  12:29:00     -390.240     -219.121      -16.202      196.504      186.763       79.676    38613.752    34880.330     6348.229       14.019        3.992      447.551       71.994        0.026      343.407       19.495      857.464
05/04/2014  12:30:00     -353.857     -236.085        2.666      214.423      172.626       89.077    45977.015    29799.672     7934.708       13.232        4.186      425.384      106.567        0.063      343.400       19.482      857.466
05/04/2014  12:31:00     -537.189     -138.530      -36.535      229.940      165.781      104.003    52872.451    27483.256    10816.541       20.012        4.559      554.763      119.151        0.046      343.377       19.443      857.421
05/04/2014  12:32:00     -383.114     -212.754       -9.360      169.128      179.946       96.969    28604.230    32380.473     9403.074       13.124        3.519      438.224       90.219        0.042      343.521       19.686      857.441
05/04/2014  12:33:00     -298.382     -199.603      -12.158      178.316      128.706       73.324    31796.425    16565.212     5376.391        9.137        2.687      358.989       64.232        0.032      343.267       19.255      857.411
05/04/2014  12:34:00     -347.705      -19.951       -2.924      223.224      130.464       76.449    49829.155    17020.968     5844.383        9.699        3.635      348.277       85.036        0.060      343.564       19.762      857.406
05/04/2014  12:35:00     -583.693     -234.045      -18.636      274.617      227.854      101.603    75414.254    51917.550    10323.146       26.671        6.883      628.868      111.415        0.031      343.421       19.518      857.382
05/04/2014  12:36:00     -423.856     -330.835       -2.601      192.419      181.900      116.784    37024.976    33087.620    13638.420       18.642        4.188      537.686      117.312        0.048      343.118       19.001      857.363
05/04/2014  12:37:00     -635.221     -252.889      -10.886      229.757      183.641       99.049    52788.360    33723.868     9810.627       28.193        4.816      683.709      109.692        0.026      343.164       19.079      857.403
05/04/2014  12:38:00     -527.046     -306.451       -9.910      236.994      201.502      115.288    56166.345    40603.121    13291.304       24.090        5.503      609.663      115.265        0.036      343.245       19.218      857.370
05/04/2014  12:39:00     -530.265     -196.487      -18.310      252.721      208.896      122.484    63868.080    43637.621    15002.417       22.129        6.125      565.498      140.767        0.062      343.111       18.989      857.365
05/04/2014  12:40:00     -638.313     -182.060      -18.188      279.399      187.401      101.660    78064.035    35119.172    10334.716       28.219        6.176      663.769      116.915        0.031      343.089       18.952      857.377
05/04/2014  12:41:00     -346.297      -57.996       -2.475      199.776      133.777       78.094    39910.411    17896.334     6098.595        9.359        3.195      351.120       89.625        0.065      343.204       19.148      857.375
05/04/2014  12:42:00     -451.661     -101.268       -8.494      180.814      182.617       86.424    32693.665    33348.878     7469.036       14.390        3.676      462.875       87.401        0.036      343.555       19.747      857.358
05/04/2014  12:43:00     -375.265     -139.471      -17.226      242.900      215.450       94.844    59000.559    46418.663     8995.387       13.747        5.721      400.345      100.730        0.063      343.659       19.923      857.337
05/04/2014  12:44:00     -528.097     -303.699      -15.889      227.085      215.280       95.486    51567.568    46345.306     9117.631       23.918        5.352      609.196      114.484        0.035      343.339       19.378      857.340
05/04/2014  12:45:00     -416.288     -116.317      -10.965      184.452      189.411       84.877    34022.437    35876.434     7204.104       13.201        3.855      432.233       86.888        0.040      343.611       19.842      857.403
05/04/2014  12:46:00     -318.514      -90.657        5.641      161.046      144.804       75.747    25935.706    20968.127     5737.627        8.116        2.632      331.164       61.264        0.034      343.798       20.160      857.400
05/04/2014  12:47:00     -258.578     -151.891       -0.119      207.251      238.467       90.110    42952.918    56866.531     8119.819        9.891        5.397      299.889      104.197        0.121      343.570       19.772      857.424
05/04/2014  12:48:00     -310.950     -119.401       -3.668      223.496      130.577       76.941    49950.367    17050.291     5919.891        9.193        3.646      333.087       98.280        0.087      343.768       20.110      857.466
05/04/2014  12:49:00     -524.017     -112.418      -27.427      224.561      176.379       93.625    50427.709    31109.593     8765.583       18.913        4.515      535.940      105.265        0.039      343.368       19.427      857.453
05/04/2014  12:50:00     -536.365      -67.146      -21.508      222.637      167.540       87.655    49567.347    28069.554     7683.429       18.897        4.266      540.552      108.354        0.040      343.459       19.582      857.435
05/04/2014  12:51:00     -372.918     -124.207        9.938      245.441      191.762      112.652    60241.342    36772.688    12690.396       13.213        5.485      393.059      128.040        0.106      343.518       19.684      857.436
05/04/2014  12:52:00     -534.147     -201.461      -24.242      267.950      254.033      108.283    71797.141    64532.694    11725.258       23.724        7.403      570.876      120.905        0.045      343.225       19.184      857.454
05/04/2014  12:53:00     -184.631     -194.828       23.470      203.476      176.487      111.240    41402.349    31147.750    12374.350        7.874        4.246      268.415      129.709        0.234      343.550       19.738      857.474
05/04/2014  12:54:00     -113.196     -205.158       12.813      128.892      234.486       72.310    16613.115    54983.522     5228.745        6.593        3.841      234.315       73.354        0.098      343.715       20.018      857.486
05/04/2014  12:55:00     -214.292     -191.280       18.862      182.272      158.156       94.492    33223.070    25013.258     8928.762        7.500        3.358      287.244       92.634        0.104      343.616       19.850      857.469
05/04/2014  12:56:00     -460.327      -58.677      -21.208      255.995      176.072       93.657    65533.554    31001.214     8771.722       16.053        5.265      464.051      119.475        0.066      343.389       19.462      857.485
05/04/2014  12:57:00     -310.323     -122.127       -2.291      180.812      178.351      107.365    32693.003    31809.136    11527.155        9.361        3.801      333.489       99.776        0.090      343.639       19.889      857.498
05/04/2014  12:58:00     -518.810     -114.047       -7.873      165.103      178.977       87.217    27258.962    32032.622     7606.783       17.455        3.345      531.197       85.851        0.026      343.371       19.432      857.515
05/04/2014  12:59:00     -396.820     -175.082       -8.723      238.182      178.839       71.075    56730.778    31983.243     5051.684       14.096        4.688      433.727       75.086        0.030      343.653       19.912      857.530
05/04/2014  13:00:00     -416.253     -174.186      -14.782      203.286      238.340       94.512    41325.304    56805.761     8932.548       15.542        5.353      451.229       99.013        0.048      343.362       19.416      857.523
05/04/2014  13:01:00     -295.499     -141.881        1.627      217.740      140.862       81.508    47410.753    19841.975     6643.615        9.066        3.695      327.795      100.849        0.095      343.654       19.916      857.544
05/04/2014  13:02:00     -247.350     -207.325        0.465      178.603      146.700       81.979    31899.189    21520.952     6720.625        8.214        3.007      322.747       87.475        0.073      343.707       20.006      857.556
05/04/2014  13:03:00     -183.976     -139.529       31.049      211.721      156.521       98.598    44825.966    24498.830     9721.630        6.665        3.952      230.901      118.041        0.261      343.879       20.298      857.544
05/04/2014  13:04:00     -357.395     -122.403       -8.981      263.277      216.824      118.515    69314.730    47012.513    14045.849       13.656        6.519      377.774      131.178        0.121      343.716       20.021      857.533
05/04/2014  13:05:00     -716.920     -151.621      -37.412      320.212      196.748      135.409   102535.427    38709.868    18335.694       34.894        7.979      732.778      149.781        0.042      343.385       19.458      857.500
05/04/2014  13:06:00     -565.902     -105.358      -32.597      244.788      203.166      100.750    59921.051    41276.248    10150.593       22.186        5.567      575.626      112.293        0.038      343.305       19.320      857.575
05/04/2014  13:07:00     -281.051     -132.640        3.179      240.153      165.126       83.665    57673.671    27266.455     6999.916        9.425        4.597      310.778       99.784        0.103      343.479       19.616      857.621
05/04/2014  13:08:00     -297.257      -79.337      -19.946      153.996      135.173       66.841    23714.903    18271.672     4467.726        7.074        2.323      307.663       68.854        0.050      343.318       19.343      857.601
05/04/2014  13:09:00     -341.459     -102.917      -14.678      123.064      145.954       61.101    15144.705    21302.631     3733.357        8.378        2.009      356.631       61.933        0.030      343.680       19.959      857.596
05/04/2014  13:10:00     -188.610      -79.540        0.396      131.693      120.810       62.929    17343.029    14594.937     3960.073        3.889        1.795      204.695       61.763        0.091      343.992       20.492      857.634
05/04/2014  13:11:00     -478.358     -143.936      -16.427      259.243      203.985      103.374    67206.965    41609.801    10686.085       18.463        5.975      499.544      116.463        0.054      343.667       19.937      857.585
05/04/2014  13:12:00     -379.996      -33.065        7.363      266.285      176.172       95.263    70907.695    31036.459     9074.962       12.826        5.551      381.432      115.026        0.091      343.870       20.285      857.554
05/04/2014  13:13:00     -524.945     -250.138      -22.732      228.273      173.917      104.432    52108.451    30247.135    10906.077       21.594        4.663      581.495      119.924        0.043      343.247       19.221      857.643
05/04/2014  13:14:00     -361.518     -135.690       -1.913      233.143      163.371       78.505    54355.609    26690.195     6163.003       11.814        4.360      386.144      104.283        0.073      343.274       19.267      857.607
05/04/2014  13:15:00     -435.243      -84.022      -49.741      119.962      146.863       62.038    14390.992    21568.776     3848.665       11.938        1.990      443.279       57.813        0.017      343.411       19.500      857.614
05/04/2014  13:16:00     -160.478      -53.265       18.499      141.249      105.288       65.897    19951.319    11085.665     4342.353        3.215        1.769      169.086       75.542        0.200      343.883       20.307      857.572
05/04/2014  13:17:00     -260.318     -184.221       20.427      200.413      167.457       92.445    40165.383    28041.942     8546.028        8.942        3.838      318.909      100.259        0.099      343.813       20.186      857.566
05/04/2014  13:18:00     -430.500     -113.791        7.190      270.152      206.037       96.732    72982.001    42451.319     9357.058       16.154        6.240      445.285      118.984        0.071      343.558       19.751      857.568
05/04/2014  13:19:00     -595.634     -100.801      -27.606      261.571      210.412      113.787    68419.409    44273.151    12947.479       24.565        6.282      604.103      127.053        0.044      343.219       19.174      857.582
05/04/2014  13:20:00     -567.252     -132.622      -37.966      251.227      175.640      100.078    63115.149    30849.402    10015.640       22.237        5.199      582.549      115.488        0.039      343.420       19.516      857.560
05/04/2014  13:21:00     -438.799      -67.201       -6.665      227.069      196.228      102.888    51560.389    38505.412    10585.986       14.886        5.033      443.914      107.681        0.059      343.656       19.918      857.544
05/04/2014  13:22:00     -387.632     -169.838       -0.777      222.859      186.193       91.372    49666.208    34667.812     8348.885       13.588        4.634      423.206      105.865        0.063      343.608       19.836      857.586
05/04/2014  13:23:00     -291.264     -123.267        1.265      167.913      148.073       67.040    28194.929    21925.485     4494.426        7.731        2.731      316.274       70.370        0.050      343.590       19.805      857.597
05/04/2014  13:24:00     -275.903     -205.552      -13.104      127.401      133.160       76.861    16230.959    17731.538     5907.613        7.920        1.994      344.055       62.784        0.033      343.605       19.830      857.589
05/04/2014  13:25:00     -277.669      -48.009       -0.344      162.647      127.782       77.173    26454.084    16328.281     5955.633        6.406        2.437      281.789       81.794        0.084      343.694       19.983      857.552
05/04/2014  13:26:00     -531.411      -86.203      -32.586      253.039      149.843       96.465    64028.965    22452.878     9305.460       19.332        4.789      538.358      109.171        0.041      343.562       19.759      857.521
05/04/2014  13:27:00     -473.713     -136.799       -8.802      265.814      201.089      101.109    70656.989    40436.972    10222.958       18.223        6.066      493.070      128.876        0.068      343.557       19.750      857.539
05/04/2014  13:28:00     -321.160     -149.009      -13.275      194.229      195.158       91.880    37724.911    38086.483     8441.924       10.487        4.213      354.044      105.305        0.088      343.730       20.046      857.571
05/04/2014  13:29:00     -278.788     -178.068       -3.918      226.227      126.750       91.944    51178.782    16065.550     8453.648        9.256        3.785      330.803      111.854        0.114      343.698       19.990      857.574
05/04/2014  13:30:00     -301.468     -252.547       -1.858      239.288      173.310      106.404    57258.867    30036.521    11321.905       12.662        4.931      393.272      113.497        0.083      343.608       19.836      857.545
05/04/2014  13:31:00     -322.402     -238.938       11.364      253.944      215.560      136.163    64487.646    46466.217    18540.467       14.530        6.475      401.291      153.084        0.146      343.626       19.868      857.458
05/04/2014  13:32:00     -566.922     -359.117      -21.467      295.545      229.100      119.214    87346.577    52486.650    14212.008       30.241        7.702      671.093      136.994        0.042      343.590       19.806      857.501
05/04/2014  13:33:00     -436.749     -310.920        4.745      267.502      188.370      112.233    71557.105    35483.106    12596.277       20.352        5.982      536.117      146.800        0.075      343.200       19.141      857.567
05/04/2014  13:34:00     -293.081     -213.165       -8.735      195.743      153.014       71.632    38315.267    23413.134     5131.172        9.912        3.343      362.403       69.224        0.036      343.284       19.284      857.548
05/04/2014  13:35:00     -245.527     -297.621       -5.331      185.983      208.772       89.280    34589.693    43585.820     7970.886       11.750        4.307      385.826       82.196        0.045      343.318       19.342      857.541
05/04/2014  13:36:00     -297.266     -244.192       16.992      249.898      195.041       95.854    62448.930    38041.004     9188.047       12.896        5.484      384.704      124.255        0.104      343.480       19.618      857.497
05/04/2014  13:37:00     -337.572      -73.618       25.918      227.869      176.810       94.266    51924.156    31261.944     8886.131       10.604        4.604      345.506       95.910        0.077      343.593       19.809      857.472
05/04/2014  13:38:00     -394.538     -132.812        9.383      211.697      210.372       94.465    44815.742    44256.264     8923.680       13.567        4.900      416.293      107.751        0.067      343.654       19.914      857.482
05/04/2014  13:39:00     -593.372      -47.335      -13.013      259.608      192.790      118.590    67396.272    37167.961    14063.559       23.654        5.931      595.257      145.940        0.060      343.631       19.876      857.484
05/04/2014  13:40:00     -538.151     -376.841      -27.569      245.698      189.154      101.389    60367.362    35779.157    10279.714       26.938        5.321      656.975      113.397        0.030      343.292       19.296      857.581
05/04/2014  13:41:00     -320.262     -226.282       -1.685      219.035      178.706       88.692    47976.270    31935.706     7866.273       12.076        4.389      392.137       86.162        0.048      343.124       19.011      857.593
05/04/2014  13:42:00     -412.042     -219.275      -14.805      224.448      169.907       79.753    50376.909    28868.220     6360.482       15.183        4.280      466.755       84.280        0.033      343.328       19.358      857.521
05/04/2014  13:43:00     -614.025     -129.457      -33.551      288.338      249.190      108.749    83138.907    62095.676    11826.431       27.596        7.853      627.524      104.908        0.028      343.551       19.739      857.427
05/04/2014  13:44:00     -421.050     -200.631        7.865      321.462      217.770      123.229   103337.623    47423.942    15185.379       19.174        8.297      466.407      141.668        0.092      343.535       19.712      857.505
05/04/2014  13:45:00     -546.894     -222.564      -10.383      278.822      265.080      130.350    77741.941    70267.443    16991.208       25.684        8.250      590.447      152.453        0.067      343.228       19.188      857.488
05/04/2014  13:46:00     -436.493     -172.897       -1.985      262.151      196.591      106.711    68723.031    38647.925    11387.138       16.957        5.938      469.489      136.368        0.084      343.432       19.536      857.426
05/04/2014  13:47:00     -307.107     -190.110      -14.515      176.141      192.659       72.292    31025.533    37117.452     5226.109       10.200        3.668      361.188       63.795        0.031      343.662       19.927      857.412
05/04/2014  13:48:00     -487.410      -35.440       -5.433      332.670      188.384      119.984   110669.099    35488.548    14396.192       19.967        8.028      488.697      149.379        0.093      343.911       20.354      857.426
05/04/2014  13:49:00     -358.759     -307.461        3.383      273.462      214.101      124.280    74781.431    45839.055    15445.397       17.963        6.803      472.483      147.840        0.098      343.694       19.982      857.495
05/04/2014  13:50:00     -422.885     -324.461      -24.579      237.552      217.381       98.939    56430.980    47254.692     9788.981       19.907        5.674      533.017      121.245        0.052      343.572       19.775      857.506
05/04/2014  13:51:00     -486.529     -178.730       -6.148      324.147      242.956      111.866   105070.998    59027.857    12514.108       22.262        8.831      518.319      155.387        0.090      343.337       19.375      857.488
05/04/2014  13:52:00     -362.146     -220.163       14.891      222.441      185.568      107.395    49479.957    34435.481    11533.608       13.763        4.772      423.818      117.109        0.076      343.725       20.036      857.490
05/04/2014  13:53:00     -381.621     -150.069       18.937      259.413      250.656      125.843    67295.133    62828.470    15836.533       15.721        7.298      410.068      126.735        0.096      343.746       20.073      857.502
05/04/2014  13:54:00     -479.335     -190.840      -20.985      286.798      220.583      121.838    82253.144    48656.835    14844.463       20.616        7.288      515.928      137.474        0.071      343.434       19.540      857.492
05/04/2014  13:55:00     -419.151     -263.245      -14.485      259.758      193.561       88.146    67474.234    37465.683     7769.763       17.893        5.635      494.960       96.777        0.038      343.365       19.422      857.488
05/04/2014  13:56:00     -368.185      -69.780      -13.253      233.199      217.217      105.741    54381.882    47183.049    11181.202       12.665        5.637      374.740      111.363        0.088      343.557       19.750      857.493
05/04/2014  13:57:00     -565.441     -150.642      -15.523      260.950      178.880      116.897    68094.844    31998.075    13664.904       22.819        5.688      585.164      137.360        0.055      343.466       19.593      857.443
05/04/2014  13:58:00     -494.110     -127.805       -9.076      278.334      262.184      124.941    77469.970    68740.462    15610.197       21.116        8.091      510.371      141.186        0.077      343.646       19.900      857.450
05/04/2014  13:59:00     -518.407     -384.135      -23.111      245.223      165.040      111.892    60134.549    27238.172    12519.889       25.835        4.995      645.218      122.683        0.036      343.348       19.392      857.486
05/04/2014  14:00:00     -627.041     -159.919      -29.645      250.453      247.678      122.665    62726.665    61344.497    15046.653       27.935        6.956      647.113      119.290        0.034      343.338       19.376      857.474
05/04/2014  14:01:00     -559.490      -46.277       -9.093      258.802      156.337      106.477    66978.434    24441.279    11337.351       20.898        5.138      561.401      129.341        0.053      343.530       19.703      857.444
05/04/2014  14:02:00     -375.105      -83.827       -0.853      283.018      180.173       91.558    80099.140    32462.257     8382.899       13.431        6.047      384.358      126.877        0.109      343.590       19.806      857.439
05/04/2014  14:03:00     -481.156     -249.507      -10.808      274.860      212.718       95.674    75547.854    45249.124     9153.515       21.189        6.498      542.000       85.407        0.025      343.511       19.670      857.438
05/04/2014  14:04:00     -579.890     -390.890       -0.734      334.263      282.563      153.480   111731.959    79841.615    23556.130       35.206       10.756      699.334      175.185        0.063      343.241       19.210      857.360
05/04/2014  14:05:00     -442.866     -215.474        7.562      262.255      235.810      130.380    68777.652    55606.412    16998.898       19.197        7.069      492.503      147.400        0.090      343.479       19.616      857.335
05/04/2014  14:06:00     -492.349     -303.552      -14.733      299.026      245.299      102.067    89416.397    60171.542    10417.663       24.736        8.000      578.404      110.756        0.037      343.534       19.709      857.328
05/04/2014  14:07:00     -521.233     -343.406      -23.111      281.878      264.197      134.999    79455.125    69799.828    18224.631       27.878        8.374      624.189      150.110        0.058      343.240       19.208      857.307
05/04/2014  14:08:00     -513.039     -260.576       -9.328      358.366      266.915      115.711   128426.432    71243.883    13389.128       27.209       10.653      575.421      120.677        0.044      343.363       19.419      857.318
05/04/2014  14:09:00     -513.901     -268.450       -2.444      268.710      185.413      124.106    72205.037    34377.796    15402.190       22.905        6.099      579.793      138.027        0.057      343.525       19.695      857.340
05/04/2014  14:10:00     -500.342     -410.748      -30.519      270.985      211.263      129.447    73432.663    44631.955    16756.404       27.738        6.741      647.346      137.313        0.045      343.510       19.669      857.413
05/04/2014  14:11:00     -490.334     -349.388      -16.806      198.969      179.372      106.187    39588.589    32174.199    11275.591       22.289        4.152      602.079       97.702        0.026      343.278       19.273      857.432
05/04/2014  14:12:00     -472.553     -232.891       -7.017      398.623      178.281      116.350   158899.913    31784.083    13537.233       24.087       10.211      526.825      144.480        0.075      343.394       19.471      857.348
05/04/2014  14:13:00     -622.235      -97.433       -7.521      355.343      260.224      129.395   126268.797    67716.509    16742.990       30.368       10.536      629.817      162.636        0.067      343.647       19.903      857.345
05/04/2014  14:14:00     -552.355      -99.374      -16.099      306.407      233.968      139.023    93885.443    54741.088    19327.333       24.156        8.398      561.223      157.349        0.079      343.452       19.569      857.351
05/04/2014  14:15:00     -318.510     -111.206       11.831      212.908      135.583       99.385    45329.893    18382.697     9877.283        9.376        3.679      337.366      109.261        0.105      343.674       19.950      857.370
05/04/2014  14:16:00     -499.343     -204.430      -16.549      216.381      143.495       67.526    46820.591    20590.782     4559.781       18.168        3.599      539.569       67.475        0.016      343.525       19.694      857.379
05/04/2014  14:17:00     -466.534      -85.978      -19.994      284.872      259.100      112.348    81151.971    67132.692    12622.004       19.314        8.045      474.390      134.425        0.080      343.541       19.721      857.367
05/04/2014  14:18:00     -540.439       -0.218      -18.650      312.176      220.758      108.581    97453.668    48734.314    11789.907       22.517        7.899      540.439      140.910        0.068      343.442       19.554      857.331
05/04/2014  14:19:00     -472.662     -293.702       -8.333      306.876      279.578      141.426    94173.158    78163.999    20001.351       25.100        9.617      556.480      152.854        0.075      343.461       19.585      857.302
05/04/2014  14:20:00     -502.286     -344.994      -15.524      302.349      267.014      124.557    91414.915    71296.432    15514.557       27.485        8.911      609.354      141.168        0.054      343.283       19.283      857.331
05/04/2014  14:21:00     -520.051     -133.691      -13.342      272.578      285.089      115.603    74298.960    81275.577    13364.016       22.869        8.447      536.961      127.892        0.057      343.658       19.921      857.323
05/04/2014  14:22:00     -550.620     -244.169        9.812      355.384      239.823      147.996   126297.562    57514.858    21902.949       28.427       10.286      602.329      183.220        0.093      343.673       19.947      857.244
05/04/2014  14:23:00     -470.061     -191.205      -10.363      255.792      219.140      129.567    65429.589    48022.462    16787.575       19.391        6.512      507.461      135.317        0.071      343.545       19.729      857.357
05/04/2014  14:24:00     -534.601     -241.744      -14.265      283.691      252.480      114.394    80480.606    63746.025    13085.916       25.085        7.866      586.718      138.101        0.055      343.261       19.244      857.366
05/04/2014  14:25:00     -507.539     -230.415      -12.548      289.554      246.906      118.804    83841.239    60962.759    14114.310       23.485        7.946      557.393      135.627        0.059      343.327       19.357      857.346
05/04/2014  14:26:00     -236.946     -129.209        0.051      217.609      133.590      103.826    47353.741    17846.350    10779.812        7.439        3.799      269.886      100.842        0.140      343.557       19.750      857.367
05/04/2014  14:27:00     -182.545       23.770       29.754      245.299      153.282      104.163    60171.693    23495.431    10849.907        6.463        4.726      184.086      118.274        0.413      343.712       20.014      857.322
05/04/2014  14:28:00     -453.308     -119.049      -13.889      248.383      309.584      120.763    61694.120    95842.546    14583.704       19.595        8.606      468.680      129.345        0.076      343.489       19.633      857.235
05/04/2014  14:29:00     -454.295     -199.690       11.263      307.428      263.777      131.257    94511.965    69578.364    17228.304       21.382        9.066      496.246      164.585        0.110      343.561       19.757      857.244
05/04/2014  14:30:00     -323.363     -223.490      -12.861      180.842      190.403       85.345    32703.907    36253.331     7283.776       11.544        3.812      393.079       99.923        0.065      343.579       19.787      857.142
05/04/2014  14:31:00     -515.967     -403.647       16.342      338.625      281.581      149.255   114666.914    79287.748    22277.099       32.278       10.812      655.098      165.946        0.064      343.579       19.787      857.146
05/04/2014  14:32:00     -660.139     -402.954      -11.241      377.834      251.799      151.493   142758.827    63402.719    22950.083       41.365       11.456      773.405      178.834        0.053      343.431       19.535      857.156
05/04/2014  14:33:00     -650.874     -152.691      -36.017      329.048      259.705      133.085   108272.651    67446.764    17711.581       32.080        9.672      668.544      162.669        0.059      343.356       19.406      857.238
05/04/2014  14:34:00     -712.135     -394.004      -39.830      327.698      257.141      137.719   107386.000    66121.324    18966.552       42.818        9.624      813.864      157.816        0.038      343.187       19.119      857.218
05/04/2014  14:35:00     -614.883     -349.552      -18.902      257.996      236.782      110.563    66561.877    56065.516    12224.169       31.771        6.743      707.296      115.840        0.027      343.263       19.249      857.276
05/04/2014  14:36:00     -523.817     -246.290      -19.694      305.447      263.773      121.321    93297.783    69576.224    14718.722       25.648        8.880      578.829      140.525        0.059      343.609       19.837      857.242
05/04/2014  14:37:00     -311.807     -170.415       -7.581      219.051      219.300       96.458    47983.439    48092.487     9304.227       11.583        5.269      355.337      110.072        0.096      343.854       20.255      857.335
05/04/2014  14:38:00     -521.209     -200.501      -21.985      269.152      208.950      121.032    72442.670    43660.140    14648.807       22.152        6.538      558.444      125.806        0.051      343.563       19.761      857.325
05/04/2014  14:39:00     -595.773     -293.784       -7.132      346.786      255.531      129.875   120260.383    65296.118    16867.554       32.182       10.121      664.270      160.623        0.058      343.310       19.327      857.234
05/04/2014  14:40:00     -394.203     -256.665      -13.191      295.609      229.016      113.833    87384.926    52448.390    12957.983       18.709        7.640      470.397      140.527        0.089      343.453       19.573      857.253
05/04/2014  14:41:00     -550.005     -318.047       -2.620      328.562      304.596      136.150   107953.249    92778.967    18536.847       31.142       10.963      635.342      163.104        0.066      343.282       19.280      857.195
05/04/2014  14:42:00     -584.545     -242.069      -22.963      334.137      244.831      138.933   111647.420    59942.201    19302.307       29.582        9.545      632.686      154.931        0.060      343.342       19.382      857.130
05/04/2014  14:43:00     -577.851      -91.743      -24.472      270.697      261.876      105.427    73277.102    68579.022    11114.929       24.792        7.649      585.088      110.542        0.036      343.624       19.864      857.173
05/04/2014  14:44:00     -560.654     -235.367      -26.719      445.072      267.182      159.341   198088.715    71386.184    25389.531       33.260       14.743      608.054      217.528        0.128      343.497       19.647      857.107
05/04/2014  14:45:00     -633.098     -185.396      -24.838      348.452      280.907      131.575   121418.513    78908.901    17311.888       32.668       10.882      659.685      150.811        0.052      343.482       19.621      857.140
05/04/2014  14:46:00     -561.843     -212.532       -6.735      308.416      201.982      114.880    95120.685    40796.714    13197.490       25.497        7.456      600.697      131.673        0.048      343.506       19.662      857.215
05/04/2014  14:47:00     -526.926     -279.735       -3.409      355.784      257.985      127.262   126582.228    66556.168    16195.580       28.258       10.467      596.576      159.414        0.071      343.482       19.622      857.189
05/04/2014  14:48:00     -667.804     -299.085      -28.242      292.200      321.795      123.132    85380.644   103552.077    15161.507       37.011       10.205      731.720      140.053        0.037      343.365       19.420      857.173
05/04/2014  14:49:00     -485.691     -388.306      -22.382      239.572      232.433      117.317    57394.737    54024.974    13763.184       25.616        6.259      621.833      122.711        0.039      343.320       19.346      857.212
05/04/2014  14:50:00     -495.213      -94.425       -6.236      200.317      151.935      100.086    40126.808    23084.330    10017.134       16.369        3.661      504.135       91.270        0.033      343.511       19.671      857.194
05/04/2014  14:51:00     -404.978      -57.508        0.082      200.402      153.863       90.658    40161.068    23673.880     8218.829       11.967        3.603      409.041       95.799        0.055      343.523       19.690      857.125
05/04/2014  14:52:00     -561.724     -318.680       -0.184      344.206      301.251      147.110   118477.634    90752.147    21641.336       32.393       11.544      645.826      174.993        0.073      343.435       19.541      857.044
05/04/2014  14:53:00     -635.739     -420.753      -25.148      263.639      326.377      136.279    69505.478   106522.211    18571.848       38.818        9.730      762.363      135.209        0.031      343.351       19.398      857.051
05/04/2014  14:54:00     -532.029     -110.708      -29.757      259.264      168.317      119.170    67217.698    28330.656    14201.557       20.295        5.487      543.426      128.353        0.056      343.589       19.805      857.053
05/04/2014  14:55:00     -722.737      -40.769      -21.296      358.040      203.099      149.838   128192.852    41249.154    22451.371       35.814        9.595      723.886      183.757        0.064      343.452       19.571      856.988
05/04/2014  14:56:00     -770.258     -250.211      -13.834      425.635      363.064      167.819   181165.133   131815.666    28163.275       49.855       17.057      809.878      222.448        0.075      343.428       19.528      856.954
05/04/2014  14:57:00     -756.535     -370.811      -35.922      300.077      283.645      138.342    90046.166    80454.675    19138.577       45.035        9.482      842.524      159.197        0.036      343.212       19.160      857.067
05/04/2014  14:58:00     -764.183     -340.151      -36.576      339.093      259.269      131.739   114984.326    67220.173    17355.121       45.025        9.978      836.468      140.207        0.028      343.167       19.084      857.052
05/04/2014  14:59:00     -760.004     -381.798      -41.812      341.383      315.648      134.595   116542.684    99633.868    18115.728       47.966       11.715      850.515      165.217        0.038      343.269       19.258      857.012
05/04/2014  15:00:00     -479.248     -301.426       14.348      338.115      236.496      120.540   114321.640    55930.303    14529.888       25.272        9.239      566.159      139.645        0.061      343.497       19.648      857.010
05/04/2014  15:01:00     -649.207     -410.707      -47.604      312.983      259.081      133.225    97958.248    67123.008    17749.020       38.759        9.142      768.213      150.177        0.038      343.466       19.593      856.956
05/04/2014  15:02:00     -395.979     -170.796      -12.065      306.412      262.419      135.763    93888.180    68863.775    18431.696       18.361        9.059      431.243      156.374        0.131      343.611       19.841      857.013
05/04/2014  15:03:00     -644.457     -348.006      -39.223      304.601      282.907      136.192    92781.723    80036.196    18548.336       36.463        9.568      732.416      148.848        0.041      343.199       19.140      857.013
05/04/2014  15:04:00     -497.087     -216.221      -12.341      259.318      244.336      122.229    67245.880    59700.304    14939.889       21.791        7.094      542.077      131.520        0.059      343.295       19.302      856.984
05/04/2014  15:05:00     -560.492     -233.805      -27.482      307.913      276.677      135.188    94810.389    76550.344    18275.764       27.957        9.482      607.302      166.529        0.075      343.507       19.665      856.926
05/04/2014  15:06:00     -580.978     -205.610       -5.288      419.704      316.744      161.588   176151.418   100326.756    26110.594       34.115       15.129      616.288      190.383        0.095      343.483       19.623      856.873
05/04/2014  15:07:00     -720.220     -243.798      -42.364      362.110      352.630      127.421   131123.966   124348.160    16236.066       42.577       13.585      760.365      144.638        0.036      343.302       19.314      856.934
05/04/2014  15:08:00     -355.994     -238.012       -2.154      259.981      208.522      118.387    67589.871    43481.256    14015.367       15.421        6.254      428.230      123.688        0.083      343.629       19.873      856.919
05/04/2014  15:09:00     -497.052     -251.808       -8.255      304.503      249.064      121.074    92722.110    62033.026    14659.004       23.994        8.471      557.197      140.005        0.063      343.486       19.629      856.958
05/04/2014  15:10:00     -556.502     -436.975      -18.338      278.914      265.494      135.094    77793.204    70487.179    18250.379       33.372        8.327      707.560      148.413        0.044      343.396       19.472      856.976
05/04/2014  15:11:00     -189.934     -116.076       46.654      270.447      200.844      102.083    73141.490    40338.507    10420.971        8.779        6.195      222.595      125.102        0.316      343.762       20.100      857.019
05/04/2014  15:12:00     -546.735     -256.030      -18.455      360.053      238.545      110.646   129638.473    56903.620    12242.433       28.176        9.939      603.714      153.764        0.065      343.597       19.817      857.001
05/04/2014  15:13:00     -587.087     -130.477       -5.104      243.546      220.526      103.865    59314.713    48631.702    10787.997       24.020        5.937      601.411      121.845        0.041      343.639       19.889      856.960
05/04/2014  15:14:00     -421.871     -239.146       -5.095      310.266      195.641      118.380    96264.990    38275.359    14013.809       19.184        7.428      484.939      145.423        0.090      343.758       20.093      857.017
05/04/2014  15:15:00     -621.115     -160.679      -12.105      377.939      239.236      128.642   142838.083    57234.012    16548.777       31.414       10.831      641.561      174.619        0.074      343.559       19.754      856.990
05/04/2014  15:16:00     -648.530     -311.533      -16.097      262.024      310.759      114.130    68656.748    96571.284    13025.554       34.804        8.913      719.475      123.809        0.030      343.482       19.621      856.980
05/04/2014  15:17:00     -677.176     -322.133      -39.439      202.121      223.878       93.114    40853.016    50121.184     8670.126       33.175        4.982      749.891       75.646        0.010      343.329       19.361      856.948
05/04/2014  15:18:00     -667.902     -416.473       -8.984      323.647      260.520      135.402   104747.416    67870.921    18333.689       40.525        9.548      787.110      140.421        0.032      343.370       19.432      856.855
05/04/2014  15:19:00     -912.081     -235.023      -74.102      413.636      336.719      144.552   171095.119   113379.751    20895.388       59.893       15.269      941.875      172.014        0.033      343.296       19.304      856.828
05/04/2014  15:20:00     -567.798     -171.760      -12.087      282.981      289.788      136.585    80078.366    83976.805    18655.357       26.734        9.136      593.208      148.526        0.063      343.498       19.650      856.881
05/04/2014  15:21:00     -496.343     -309.539      -14.951      295.179      273.973      137.041    87130.713    75061.130    18780.176       26.165        9.049      584.954      150.477        0.066      343.380       19.449      856.849
05/04/2014  15:22:00     -358.715     -136.328      -11.768      237.219      192.611       92.293    56273.081    37099.105     8517.920       12.462        5.095      383.747      111.936        0.085      343.560       19.755      856.870
05/04/2014  15:23:00     -634.700     -163.560      -29.913      296.794      284.519      118.480    88086.883    80950.799    14037.476       30.675        9.154      655.436      140.982        0.046      343.386       19.457      856.819
05/04/2014  15:24:00     -460.769     -213.630       -4.661      302.783      251.296      133.340    91677.794    63149.662    17779.587       21.525        8.630      507.884      152.288        0.090      343.567       19.766      856.848
05/04/2014  15:25:00     -404.314     -238.158        2.985      217.679      220.243      113.051    47383.985    48506.991    12780.444       16.441        5.434      469.243      116.463        0.062      343.425       19.523      856.866
05/04/2014  15:26:00     -553.115     -229.610      -12.560      291.576      274.011      126.267    85016.775    75081.896    15943.237       26.739        8.802      598.880      135.152        0.051      343.601       19.824      856.784
05/04/2014  15:27:00     -530.086     -451.856        5.484      355.749      256.984      170.073   126557.275    66040.848    28924.935       35.332       11.076      696.538      200.450        0.083      343.464       19.589      856.800
05/04/2014  15:28:00     -518.189     -291.352       15.679      367.318      243.630      164.112   134922.314    59355.626    26932.869       28.739       11.061      594.480      190.180        0.102      343.437       19.543      856.864
05/04/2014  15:29:00     -519.931     -251.742       -6.966      322.270      169.020      111.112   103857.684    28567.874    12345.940       23.923        7.239      577.670      122.968        0.045      343.349       19.396      856.965
05/04/2014  15:30:00     -392.118     -334.050        3.756      280.094      195.606      125.944    78452.601    38261.750    15861.930       19.894        6.629      515.118      136.839        0.071      343.446       19.560      856.949
05/04/2014  15:31:00     -565.024     -262.541      -18.130      388.006      230.468      130.842   150548.686    53115.380    17119.631       30.460       11.039      623.040      159.758        0.066      343.461       19.585      856.840
05/04/2014  15:32:00     -574.156     -212.550      -14.900      338.389      314.951      156.850   114506.887    99194.415    24602.042       30.663       11.915      612.235      186.224        0.093      343.573       19.778      856.893
05/04/2014  15:33:00     -542.528     -337.966       -5.502      333.134      233.041      145.268   110978.421    54308.072    21102.753       29.745        9.319      639.185      151.756        0.056      343.419       19.514      856.940
05/04/2014  15:34:00     -504.381     -260.082       -8.165      334.194      282.022      149.099   111685.639    79536.573    22230.594       26.774       10.673      567.488      168.115        0.088      343.296       19.305      856.926
05/04/2014  15:35:00     -411.395     -226.127       -4.481      217.461      205.154      104.279    47289.317    42088.282    10874.086       16.031        5.013      469.446      102.199        0.047      343.297       19.306      856.962
05/04/2014  15:36:00     -436.742     -248.063       -0.500      287.138      277.070      127.858    82448.266    76767.581    16347.789       21.389        8.778      502.274      148.563        0.087      343.505       19.660      856.932
05/04/2014  15:37:00     -776.749     -374.585      -61.762      416.352      331.879      164.560   173348.694   110143.519    27080.040       52.896       15.529      862.353      203.193        0.056      343.294       19.302      856.954
05/04/2014  15:38:00     -751.694     -131.794        1.941      394.036      287.811      160.078   155264.580    82835.371    25624.816       42.302       13.186      763.161      189.087        0.061      343.256       19.238      856.866
05/04/2014  15:39:00     -647.061     -127.901      -22.522      390.415      241.932      131.492   152423.775    58531.150    17290.050       33.185       11.412      659.581      160.204        0.059      343.291       19.296      856.909
05/04/2014  15:40:00     -701.200     -198.080      -12.562      230.911      203.328      104.659    53319.948    41342.434    10953.465       31.832        5.281      728.641       91.420        0.016      343.361       19.415      856.868
05/04/2014  15:41:00     -716.201     -448.345      -23.060      406.137      337.141      149.839   164947.559   113664.112    22451.658       50.772       15.053      844.959      189.459        0.050      343.140       19.039      856.857
05/04/2014  15:42:00     -630.668     -314.938      -26.808      338.173      254.154      156.330   114360.954    64594.419    24439.021       35.048       10.170      704.931      178.816        0.064      343.337       19.374      856.839
05/04/2014  15:43:00     -666.034      -80.435      -15.101      329.744      290.779      118.366   108731.388    84552.609    14010.584       32.876       10.365      670.873      123.709        0.034      343.348       19.393      856.796
05/04/2014  15:44:00     -600.599     -211.429      -28.955      294.469      220.679      131.292    86711.865    48699.350    17237.502       27.942        7.632      636.727      149.267        0.055      343.479       19.616      856.858
05/04/2014  15:45:00     -637.883     -136.925      -34.573      278.709      234.413      108.162    77678.660    54949.636    11698.918       28.555        7.216      652.414      132.271        0.041      343.388       19.461      856.862
05/04/2014  15:46:00     -412.492     -218.066       -9.927      333.009      225.910      146.893   110894.963    51035.251    21577.509       20.062        9.175      466.586      152.453        0.107      343.618       19.854      856.743
05/04/2014  15:47:00     -581.968     -240.882       -1.035      337.948      228.558      136.689   114209.100    52238.912    18683.813       29.088        9.257      629.850      135.797        0.046      343.644       19.896      856.774
05/04/2014  15:48:00     -602.051     -324.445        7.912      390.248      282.743      164.313   152293.772    79943.582    26998.915       36.346       12.962      683.908      206.930        0.092      343.281       19.279      856.848
05/04/2014  15:49:00     -461.899     -237.525       14.519      309.317      222.059      122.627    95677.175    49310.240    15037.399       21.497        8.001      519.393      143.268        0.076      343.251       19.229      856.890
05/04/2014  15:50:00     -525.302     -203.958       -9.540      345.498      253.490      119.922   119368.681    64256.987    14381.272       25.778        9.900      563.507      160.675        0.081      343.367       19.426      856.872
05/04/2014  15:51:00     -501.430     -215.083        2.803      345.841      235.061      123.417   119605.852    55253.689    15231.832       24.386        9.505      545.612      163.162        0.089      343.501       19.654      856.906
05/04/2014  15:52:00     -691.852     -357.366      -12.981      354.685      316.201      159.579   125801.709    99983.039    25465.314       42.884       12.563      778.698      180.597        0.054      343.373       19.434      856.851
05/04/2014  15:53:00     -389.341     -132.946       25.435      271.188      221.385      107.891    73542.865    49011.308    11640.472       15.202        6.710      411.413      125.385        0.093      343.632       19.877      856.913
05/04/2014  15:54:00     -763.811     -191.611      -42.897      335.257      235.107      125.389   112397.269    55275.165    15722.304       40.264        9.170      787.479      146.576        0.035      343.134       19.028      856.881
05/04/2014  15:55:00     -306.342     -160.132       15.281      228.811      264.975      100.807    52354.315    70211.571    10161.967       12.620        6.636      345.670      120.006        0.121      343.603       19.827      856.849
05/04/2014  15:56:00     -308.668     -120.175        1.780      210.349      184.748       93.867    44246.867    34131.701     8810.963        9.844        4.359      331.237      101.419        0.094      343.689       19.975      856.847
05/04/2014  15:57:00     -463.473     -145.354       -0.266      268.836      201.156      115.654    72272.875    40463.793    13375.838       18.100        6.306      485.731      142.736        0.086      343.628       19.871      856.818
05/04/2014  15:58:00     -341.164      -85.401        8.082      236.544      199.266       94.617    55953.133    39706.820     8952.340       11.416        5.231      351.691      106.812        0.092      343.741       20.063      856.770
05/04/2014  15:59:00     -618.460     -238.119      -16.252      294.525      247.987      117.586    86744.864    61497.533    13826.503       30.073        8.103      662.716      135.313        0.042      343.592       19.810      856.746
05/04/2014  16:00:00     -598.163     -119.964      -15.392      315.717      232.262      139.510    99677.394    53945.691    19463.156       27.272        8.654      610.074      147.365        0.058      343.305       19.320      856.666
05/04/2014  16:01:00     -606.820     -425.606       -9.957      390.273      271.597      153.871   152313.235    73765.115    23676.345       39.956       12.488      741.196      173.245        0.055      343.234       19.198      856.698
05/04/2014  16:02:00     -421.068     -101.606        6.228      315.719      236.754      127.387    99678.756    56052.551    16227.555       17.978        8.598      433.153      136.306        0.099      343.484       19.623      856.728
05/04/2014  16:03:00     -681.548     -294.641       -2.698      414.778      344.767      151.318   172040.965   118864.300    22897.226       43.250       15.690      742.510      200.964        0.073      343.172       19.093      856.715
05/04/2014  16:04:00     -554.193     -350.878      -30.956      360.355      320.627      156.607   129855.556   102801.565    24525.681       34.414       12.859      655.930      159.081        0.059      343.162       19.076      856.700
05/04/2014  16:05:00     -548.606     -216.547      -16.713      286.967      260.240      139.259    82350.065    67725.002    19393.081       25.877        8.473      589.798      164.241        0.078      343.206       19.150      856.777
05/04/2014  16:06:00     -421.751     -140.530        4.522      309.114      238.783      112.731    95551.720    57017.275    12708.321       18.143        8.264      444.548      133.189        0.090      343.371       19.433      856.767
05/04/2014  16:07:00     -424.961     -247.489        4.722      319.937      249.665      129.348   102359.823    62332.668    16730.802       21.161        9.071      491.776      155.025        0.099      343.488       19.632      856.785
05/04/2014  16:08:00     -715.097     -404.366      -11.841      332.105      237.866      132.124   110293.555    56580.353    17456.840       42.964        9.217      821.508      147.726        0.032      343.241       19.211      856.803
05/04/2014  16:09:00     -473.433     -327.358       24.388      253.599      235.826      120.583    64312.684    55613.895    14540.165       23.315        6.723      575.588      138.921        0.058      343.322       19.348      856.842
05/04/2014  16:10:00     -829.860     -462.184      -23.781      284.244      239.785      145.898    80794.934    57496.810    21286.342       53.118        7.979      949.885      145.784        0.024      342.923       18.670      856.822
05/04/2014  16:11:00     -536.704     -339.514       -3.693      313.391      214.692      125.804    98214.026    46092.469    15826.625       28.170        8.007      635.076      142.347        0.050      343.228       19.188      856.822
05/04/2014  16:12:00     -565.889     -227.115      -10.271      372.171      235.368      115.486   138511.479    55397.939    13337.088       28.954       10.362      609.763      162.166        0.071      343.167       19.084      856.801
05/04/2014  16:13:00     -451.657     -110.757      -11.687      330.581      213.647      114.607   109283.862    45645.155    13134.846       19.220        8.403      465.039      156.823        0.114      343.277       19.273      856.754
05/04/2014  16:14:00     -524.297      -96.602        6.653      356.782      275.681      121.665   127293.314    76000.170    14802.421       25.114       10.905      533.123      134.273        0.063      343.418       19.513      856.721
05/04/2014  16:15:00     -484.804     -389.310       -5.402      292.443      264.087      150.030    85522.757    69742.148    22508.862       28.216        8.889      621.769      151.619        0.059      343.318       19.343      856.743
05/04/2014  16:16:00     -692.395     -300.505      -27.177      316.144      248.495      141.193    99946.973    61750.013    19935.331       37.601        9.082      754.794      146.932        0.038      343.112       18.990      856.783
05/04/2014  16:17:00     -579.545     -267.852       -4.512      358.869      279.419      149.154   128786.820    78074.719    22246.780       31.833       11.455      638.449      162.847        0.065      343.022       18.838      856.790
05/04/2014  16:18:00     -428.729     -231.567      -12.356      267.544      290.692      127.657    71579.918    84502.102    16296.413       20.495        8.619      487.270      145.573        0.089      343.297       19.306      856.768
05/04/2014  16:19:00     -373.102      -55.616        5.649      260.088      211.304      117.540    67645.509    44649.342    13815.591       13.419        6.306      377.225      106.013        0.079      343.504       19.660      856.744
05/04/2014  16:20:00     -750.764     -307.531      -23.405      382.361      276.533      141.547   146199.860    76470.228    20035.623       45.069       12.135      811.308      158.548        0.038      343.169       19.088      856.751
05/04/2014  16:21:00     -585.144     -146.422      -22.947      333.892      258.853      145.426   111484.157    67004.983    21148.688       28.196        9.982      603.185      159.737        0.070      343.128       19.017      856.762
05/04/2014  16:22:00     -522.081     -358.401      -18.377      348.206      274.379      118.892   121247.515    75283.857    14135.212       30.597       10.533      633.262      133.732        0.045      343.175       19.100      856.735
05/04/2014  16:23:00     -837.036     -413.239      -44.218      356.174      273.744      133.050   126860.197    74935.709    17702.418       54.638       10.975      933.486      145.502        0.024      343.066       18.913      856.668
05/04/2014  16:24:00     -632.470     -353.607       -6.603      435.317      295.436      165.587   189501.000    87282.226    27418.890       41.459       15.210      724.607      201.255        0.077      342.944       18.704      856.715
05/04/2014  16:25:00     -508.563     -268.875        8.246      364.866      248.213      153.937   133127.044    61609.530    23696.681       27.467       10.922      575.266      175.305        0.093      343.136       19.033      856.677
05/04/2014  16:26:00     -489.519     -338.528       -5.013      345.852      250.546      153.633   119613.472    62773.354    23603.187       28.008       10.300      595.172      188.226        0.100      343.198       19.137      856.743
05/04/2014  16:27:00     -592.544     -196.754      -32.648      327.272      226.673      115.658   107106.753    51380.491    13376.857       28.134        8.593      624.356      121.661        0.038      343.107       18.983      856.744
05/04/2014  16:28:00     -476.348      -47.826       -8.543      234.103      209.514      105.108    54804.019    43896.153    11047.619       16.949        5.487      478.743      113.355        0.056      343.241       19.209      856.716
05/04/2014  16:29:00     -578.862     -298.621      -24.102      320.154      290.657      144.984   102498.609    84481.243    21020.457       31.638       10.400      651.349      178.181        0.075      343.118       19.002      856.704
05/04/2014  16:30:00     -388.388     -253.420        6.405      265.930      293.065      114.042    70718.843    85887.111    13005.583       19.233        8.481      463.753      141.199        0.093      343.283       19.282      856.727
05/04/2014  16:31:00     -414.172     -248.667       12.210      350.460      283.465      149.167   122822.210    80352.233    22250.924       22.943       11.271      483.088      178.672        0.137      343.208       19.155      856.636
05/04/2014  16:32:00     -689.525     -224.318      -45.122      366.639      274.674      162.519   134424.301    75445.827    26412.356       38.199       11.814      725.095      198.395        0.075      343.130       19.022      856.568
05/04/2014  16:33:00     -982.616     -528.667      -61.311      374.333      272.279      156.776   140125.240    74136.069    24578.773       74.376       11.942     1115.806      171.586        0.024      343.005       18.808      856.668
05/04/2014  16:34:00     -628.183     -392.123      -13.234      305.265      253.651      131.955    93186.447    64338.959    17412.091       36.171        8.747      740.523      141.396        0.036      342.916       18.657      856.764
05/04/2014  16:35:00     -536.988     -288.682      -14.874      266.535      267.249      119.031    71040.699    71422.292    14168.394       26.424        7.832      609.667      134.796        0.049      343.091       18.954      856.784
05/04/2014  16:36:00     -258.835     -153.908       17.565      277.001      233.039      127.675    76729.518    54306.983    16300.971       11.914        7.367      301.137      140.928        0.219      343.244       19.215      856.730
05/04/2014  16:37:00     -534.679     -266.768      -21.771      325.970      250.684      127.744   106256.463    62842.487    16318.433       27.143        9.271      597.534      147.585        0.061      343.193       19.128      856.711
05/04/2014  16:38:00     -789.320     -161.734      -23.972      356.274      300.932      146.343   126931.417    90560.354    21416.177       44.429       11.945      805.719      167.074        0.043      342.972       18.752      856.700
05/04/2014  16:39:00     -602.521     -344.743      -21.804      300.031      307.472      142.960    90018.579    94539.290    20437.468       34.363       10.250      694.176      154.910        0.050      343.020       18.834      856.793
05/04/2014  16:40:00     -620.735     -303.493      -26.418      334.949      282.478      130.495   112190.946    79793.863    17029.048       34.352       10.451      690.956      159.276        0.053      342.939       18.697      856.698
05/04/2014  16:41:00     -540.301     -251.751      -17.474      284.197      272.847      122.868    80767.666    74445.347    15096.578       26.292        8.515      596.073      148.304        0.062      343.049       18.884      856.668
05/04/2014  16:42:00     -645.057     -359.792      -16.937      274.528      262.188      128.748    75365.817    68742.793    16576.013       35.323        8.034      738.612      130.940        0.031      343.033       18.856      856.643
05/04/2014  16:43:00     -671.341     -269.939      -33.561      290.618      242.574      107.572    84458.853    58842.024    11571.711       33.975        7.744      723.579      111.339        0.024      343.179       19.105      856.734
05/04/2014  16:44:00     -471.023     -263.426       -4.873      279.681      246.646      133.293    78221.232    60834.485    17767.056       22.402        7.841      539.682      158.571        0.086      343.298       19.306      856.758
05/04/2014  16:45:00     -747.714     -427.118      -44.738      370.033      279.441      122.304   136924.401    78087.515    14958.210       48.669       11.499      861.107      116.938        0.018      342.900       18.631      856.671
05/04/2014  16:46:00     -482.339     -173.071       -3.640      368.899      241.771      129.307   136086.244    58453.076    16720.183       23.690       10.563      512.449      151.154        0.087      343.074       18.926      856.663
05/04/2014  16:47:00     -581.598     -209.474       -2.172      323.796      236.214      118.457   104843.742    55796.967    14032.109       27.837        8.734      618.171      121.951        0.039      342.982       18.769      856.625
05/04/2014  16:48:00     -471.144     -308.223        6.998      249.897      200.482      117.635    62448.549    40193.133    13837.928       21.673        5.824      563.008      126.753        0.051      343.005       18.807      856.702
05/04/2014  16:49:00     -518.939     -413.389        4.305      302.540      251.984      132.456    91530.588    63495.806    17544.709       30.635        8.629      663.467      159.737        0.058      342.842       18.531      856.617
05/04/2014  16:50:00     -514.307     -368.242      -20.574      391.499      302.219      139.736   153271.766    91336.500    19526.040       33.228       13.207      632.546      168.288        0.071      343.054       18.892      856.590
05/04/2014  16:51:00     -768.919     -329.933      -48.935      367.046      251.065      135.562   134722.436    63033.504    18377.114       45.927       10.807      836.715      168.375        0.040      342.977       18.761      856.568
05/04/2014  16:52:00     -553.817     -387.251      -32.954      280.588      265.572      130.805    78729.754    70528.488    17109.930       31.203        8.318      675.778      148.593        0.048      343.010       18.816      856.666
05/04/2014  16:53:00     -378.179     -252.510       24.448      303.576      273.418      142.102    92158.636    74757.560    20193.057       19.721        9.355      454.731      150.704        0.110      342.997       18.795      856.665
05/04/2014  16:54:00     -476.889     -401.676      -15.530      328.411      250.716      133.864   107853.889    62858.347    17919.568       28.878        9.432      623.512      160.848        0.067      342.879       18.595      856.561
05/04/2014  16:55:00     -576.516     -247.193       -2.804      420.366      336.577      151.206   176707.442   113283.996    22863.112       35.311       15.643      627.276      206.091        0.108      342.980       18.767      856.531
05/04/2014  16:56:00     -494.926     -332.101        9.932      313.469      298.962      132.273    98262.720    89378.271    17496.071       28.020       10.257      596.022      155.931        0.068      342.916       18.657      856.618
05/04/2014  16:57:00     -328.244     -301.084        1.522      291.301      225.393      129.246    84856.210    50801.993    16704.593       17.535        7.618      445.416      148.595        0.111      343.026       18.844      856.633
05/04/2014  16:58:00     -603.328     -300.990       -6.886      271.211      250.722      128.512    73555.677    62861.581    16515.417       30.376        7.647      674.240      120.922        0.032      342.872       18.582      856.629
05/04/2014  16:59:00     -411.116     -120.873       -0.688      225.312      219.751      103.697    50765.338    48290.534    10753.004       14.670        5.490      428.517      105.128        0.060      343.019       18.832      856.719
05/04/2014  17:00:00     -239.689     -206.331        2.452      262.719      155.482       85.284    69021.025    24174.533     7273.352       10.023        5.023      316.264      105.400        0.111      342.999       18.798      856.559
05/04/2014  17:01:00     -403.754     -249.980        8.327      316.556      301.787      164.093   100207.742    91075.104    26926.656       22.185       10.910      474.876      174.742        0.135      343.106       18.982      856.614
05/04/2014  17:02:00     -588.200     -320.027       -3.364      314.431      263.301      124.228    98866.667    69327.420    15432.528       31.598        9.181      669.624      152.623        0.052      342.951       18.717      856.672
05/04/2014  17:03:00     -419.305     -157.204        3.185      257.675      293.522      133.284    66396.230    86155.257    17764.633       18.539        8.516      447.805      145.439        0.105      342.906       18.640      856.651
05/04/2014  17:04:00     -457.377     -251.561       -2.104      277.819      235.411      124.476    77183.126    55418.190    15494.337       21.026        7.405      521.993      126.389        0.059      342.970       18.749      856.609
05/04/2014  17:05:00     -589.449     -106.173      -30.649      327.374      216.268      106.341   107173.908    46771.793    11308.412       26.243        8.263      598.935      139.346        0.054      343.068       18.915      856.569
05/04/2014  17:06:00     -583.500     -220.506      -23.236      317.888      275.652      133.261   101052.746    75984.145    17758.409       29.218        9.740      623.775      154.124        0.061      343.064       18.910      856.616
05/04/2014  17:07:00     -395.157     -277.824        6.281      249.784      200.789      117.436    62392.164    40316.065    13791.115       17.491        5.825      483.048      114.446        0.056      342.848       18.542      856.737
05/04/2014  17:08:00     -453.827     -191.418      -12.461      250.319      199.877      121.240    62659.352    39950.826    14699.064       18.001        5.865      492.545      129.860        0.070      342.920       18.664      856.674
05/04/2014  17:09:00     -541.231     -286.011        9.529      395.541      301.992      159.831   156453.004    91199.256    25545.818       32.396       13.660      612.154      199.978        0.107      342.831       18.513      856.546
05/04/2014  17:10:00     -548.475     -315.211        5.592      303.635      239.668      133.624    92193.982    57440.716    17855.403       28.382        8.375      632.600      132.508        0.044      342.715       18.316      856.625
05/04/2014  17:11:00     -454.902     -234.597        4.922      239.590      176.748      100.077    57403.152    31239.898    10015.373       18.031        4.933      511.832      108.512        0.045      342.905       18.639      856.673
05/04/2014  17:12:00     -430.097     -221.690       10.705      249.145      183.335      109.852    62073.118    33611.653    12067.380       17.098        5.388      483.870      117.634        0.059      342.892       18.617      856.680
05/04/2014  17:13:00     -564.338     -320.776      -13.884      232.349      190.212      110.857    53986.036    36180.790    12289.375       26.199        5.123      649.134      120.085        0.034      342.915       18.656      856.688
05/04/2014  17:14:00     -351.160     -185.150       -5.576      268.776      187.756       98.628    72240.364    35252.251     9727.466       13.740        5.861      396.981      129.132        0.106      342.921       18.665      856.671
05/04/2014  17:15:00     -310.210      -90.221        7.488      208.128      182.080      111.159    43317.453    33153.139    12356.421        9.661        4.441      323.063       91.801        0.081      342.994       18.790      856.579
05/04/2014  17:16:00     -517.846     -349.490       -6.938      322.627      272.116      154.219   104088.208    74047.324    23783.385       29.610       10.096      624.746      159.607        0.065      342.810       18.476      856.504
05/04/2014  17:17:00     -624.695     -268.486      -20.668      300.418      256.718      132.957    90251.050    65904.106    17677.497       31.826        8.692      679.947      139.310        0.042      342.729       18.339      856.581
05/04/2014  17:18:00     -470.597     -266.597        6.529      389.931      285.488      157.315   152046.523    81503.393    24748.079       27.539       12.915      540.865      191.472        0.125      342.582       18.089      856.590
05/04/2014  17:19:00     -585.439     -247.653      -18.107      418.567      243.966      140.596   175198.030    59519.376    19767.138       32.939       12.724      635.666      164.442        0.067      342.659       18.221      856.521
05/04/2014  17:20:00     -405.178     -192.049       -2.815      297.764      208.025      117.341    88663.685    43274.558    13768.881       17.335        7.285      448.389      131.769        0.086      342.817       18.488      856.582
05/04/2014  17:21:00     -354.559     -211.248        4.827      330.146      195.146      111.623   108996.162    38081.899    12459.746       16.492        7.977      412.720      135.570        0.108      342.912       18.650      856.555
05/04/2014  17:22:00     -546.641     -214.827      -18.394      313.110      270.837      137.326    98037.981    73352.459    18858.448       26.774        9.512      587.339      155.658        0.070      342.844       18.535      856.480
05/04/2014  17:23:00     -318.663     -191.394       10.757      263.595      200.709      108.080    69482.532    40284.166    11681.328       12.985        6.072      371.723      112.914        0.092      342.883       18.601      856.556
05/04/2014  17:24:00     -429.484     -230.252       -8.545      325.276      242.751      156.190   105804.648    58928.017    24395.228       21.330        9.456      487.312      170.445        0.122      342.756       18.384      856.507
05/04/2014  17:25:00     -574.973     -279.458       -4.088      298.005      241.397      127.057    88806.694    58272.529    16143.397       28.593        8.161      639.289      141.921        0.049      342.666       18.232      856.566
05/04/2014  17:26:00     -561.938     -324.924      -13.852      337.851      247.200      131.683   114143.495    61108.007    17340.318       30.703        9.630      649.115      151.971        0.055      342.566       18.060      856.518
05/04/2014  17:27:00     -537.000     -208.432      -21.220      278.378      234.441      118.613    77494.499    54962.731    14069.064       23.937        7.326      576.032      124.765        0.047      342.754       18.381      856.484
05/04/2014  17:28:00     -491.515     -213.817      -14.344      265.800      246.832      116.434    70649.880    60925.924    13556.974       21.629        7.257      536.009      142.564        0.071      342.783       18.431      856.409
05/04/2014  17:29:00     -558.683     -387.624       -6.408      389.053      263.530      173.136   151361.871    69448.223    29976.070       35.655       12.539      679.984      218.162        0.103      342.855       18.554      856.432
05/04/2014  17:30:00     -335.689     -104.288       36.582      373.648      235.953      147.268   139612.882    55673.596    21687.815       17.090       10.849      351.515      187.560        0.285      342.855       18.553      856.561
05/04/2014  17:31:00     -503.141     -285.256      -18.913      296.705      194.512      116.492    88033.812    37834.879    13570.479       23.713        6.972      578.379      138.745        0.058      342.737       18.353      856.615
05/04/2014  17:32:00     -493.737     -163.317        7.757      310.355      223.820      141.727    96320.507    50095.211    20086.550       21.847        8.325      520.047      164.201        0.100      342.738       18.354      856.524
05/04/2014  17:33:00     -737.749     -261.683      -20.237      375.386      243.555      146.839   140914.743    59318.903    21561.577       41.743       11.090      782.784      184.278        0.055      342.618       18.151      856.494
05/04/2014  17:34:00     -562.514     -263.692       -7.998      371.425      272.075      158.956   137956.844    74025.012    25266.944       31.159       11.862      621.253      187.966        0.092      342.618       18.150      856.453
05/04/2014  17:35:00     -633.345     -324.372      -37.338      308.675      243.657      131.526    95280.176    59368.699    17299.018       33.981        8.597      711.578      133.262        0.035      342.578       18.083      856.486
05/04/2014  17:36:00     -441.849     -216.008        9.845      302.646      250.735      128.809    91594.621    62868.200    16591.688       20.649        8.553      491.823      136.760        0.077      342.708       18.304      856.468
05/04/2014  17:37:00     -513.010     -169.733      -12.447      317.041      244.594      119.663   100515.303    59826.351    14319.149       23.337        8.733      540.360      144.961        0.072      342.777       18.422      856.472
05/04/2014  17:38:00     -550.639     -255.483      -14.352      293.331      287.674      125.970    86042.862    82756.161    15868.552       27.664        9.233      607.022      150.721        0.062      342.683       18.260      856.452
05/04/2014  17:39:00     -429.544     -287.478       20.950      328.054      244.246      161.370   107619.185    59656.246    26040.316       23.041        9.666      516.867      177.257        0.118      342.715       18.316      856.446
05/04/2014  17:40:00     -589.171     -294.439      -55.513      358.547      226.494      133.252   128555.900    51299.521    17756.228       31.722        9.881      658.648      137.010        0.043      342.710       18.307      856.488
05/04/2014  17:41:00     -458.524     -220.434      -11.584      307.762      233.727      124.895    94717.303    54628.430    15598.671       21.192        8.247      508.758      150.691        0.088      342.623       18.157      856.582
05/04/2014  17:42:00     -466.239     -211.884       -4.469      302.000      244.568      112.561    91204.257    59813.417    12670.016       21.296        8.184      512.126      139.363        0.074      342.595       18.110      856.589
05/04/2014  17:43:00     -498.881     -260.743       -1.767      279.124      250.907      119.316    77910.157    62954.402    14236.210       23.596        7.755      562.911      126.819        0.051      342.610       18.136      856.565
05/04/2014  17:44:00     -514.041     -312.224       -5.008      268.601      203.958      116.803    72146.411    41598.973    13642.984       24.454        6.369      601.433      119.363        0.039      342.668       18.236      856.590
05/04/2014  17:45:00     -476.710     -215.021       -2.754      260.207      196.517      100.601    67707.647    38619.016    10120.497       19.495        5.822      522.959      113.710        0.047      342.780       18.427      856.586
05/04/2014  17:46:00     -630.127     -311.310      -25.070      329.999      249.905      129.168   108899.278    62452.716    16684.467       34.128        9.402      702.832      138.602        0.039      342.647       18.200      856.535
05/04/2014  17:47:00     -433.127     -285.276      -15.499      303.067      223.533      109.715    91849.315    49967.054    12037.316       21.151        7.693      518.634      135.895        0.069      342.690       18.272      856.561
05/04/2014  17:48:00     -567.198     -301.727      -12.486      266.658      213.062      108.099    71106.313    45395.498    11685.435       27.052        6.409      642.458      115.339        0.032      342.663       18.226      856.584
05/04/2014  17:49:00     -283.400     -219.853        5.725      193.546      195.241       96.022    37459.873    38119.167     9220.310       10.672        4.240      358.680       95.867        0.071      342.677       18.250      856.545
05/04/2014  17:50:00     -433.349     -225.865      -12.104      240.062      253.312       98.091    57629.612    64166.821     9621.773       18.516        6.571      488.678      110.039        0.051      342.753       18.380      856.518
05/04/2014  17:51:00     -534.809     -417.952      -13.284      366.116      258.677      155.184   134040.703    66913.587    24082.039       34.291       11.252      678.752      181.850        0.072      342.606       18.132      856.420
05/04/2014  17:52:00     -549.791     -310.256      -18.470      346.303      260.155      150.700   119925.433    67680.535    22710.535       30.455       10.516      631.292      153.360        0.059      342.548       18.031      856.422
05/04/2014  17:53:00     -426.221     -230.389        0.939      281.047      203.316      119.393    78987.560    41337.274    14254.595       18.464        6.729      484.504      126.452        0.068      342.510       17.968      856.465
05/04/2014  17:54:00     -314.016     -136.129       -0.539      198.244      199.670      113.144    39300.572    39867.923    12801.496       10.454        4.598      342.253      108.705        0.101      342.721       18.325      856.468
05/04/2014  17:55:00     -624.033     -290.582       -0.814      395.178      313.687      154.328   156165.523    98399.718    23817.253       37.606       13.919      688.371      193.408        0.079      342.444       17.855      856.429
05/04/2014  17:56:00     -567.400     -218.355      -39.703      331.967      255.766      128.227   110201.839    65416.063    16442.193       28.159        9.603      607.965      162.842        0.072      342.538       18.015      856.456
05/04/2014  17:57:00     -405.893     -244.284      -15.027      237.237      222.636      118.365    56281.491    49566.602    14010.390       17.223        5.993      473.734      115.775        0.060      342.685       18.265      856.539
05/04/2014  17:58:00     -466.552     -265.407       -8.190      302.600      152.482      120.232    91566.615    23250.644    14455.762       20.870        6.464      536.760      124.474        0.054      342.603       18.124      856.529
05/04/2014  17:59:00     -600.946     -318.024      -26.889      245.168      226.762      104.085    60107.412    51421.013    10833.661       29.266        6.118      679.908      124.655        0.034      342.535       18.010      856.491
05/04/2014  18:00:00     -205.862     -176.026       -1.566      202.912      136.129      102.068    41173.088    18531.104    10417.912        7.173        3.506      270.858      110.720        0.167      342.716       18.317      856.544
05/04/2014  18:01:00     -386.440     -288.558       -9.858      264.451      184.581       95.373    69934.166    34070.228     9096.044       17.288        5.655      482.288      117.454        0.059      342.621       18.155      856.532
05/04/2014  18:02:00     -568.958     -181.719      -18.130      204.802      206.689      103.469    41943.880    42720.402    10705.758       22.620        4.769      597.273      101.913        0.029      342.606       18.130      856.441
05/04/2014  18:03:00     -407.966     -176.954       -0.726      286.752      215.585      132.011    82226.552    46476.957    17426.893       17.191        7.307      444.690      149.401        0.113      342.603       18.125      856.481
05/04/2014  18:04:00     -503.794     -456.104      -25.906      266.385      273.056      144.871    70961.004    74559.803    20987.650       31.448        8.325      679.588      154.373        0.052      342.431       17.833      856.565
05/04/2014  18:05:00     -525.049     -360.991      -14.123      201.202      179.413      104.988    40482.162    32189.097    11022.569       24.493        4.185      637.175       98.502        0.024      342.371       17.730      856.583
05/04/2014  18:06:00     -255.573     -149.804       -2.510      143.071      131.072       68.852    20469.191    17179.785     4740.636        6.507        2.119      296.241       66.688        0.051      342.494       17.941      856.528
05/04/2014  18:07:00     -458.560     -210.820      -17.472      297.081      230.454      137.786    88257.275    53108.915    18985.049       20.766        8.018      504.700      135.471        0.072      342.521       17.986      856.473
05/04/2014  18:08:00     -557.062     -213.338      -25.644      287.340      230.290      120.848    82564.493    53033.538    14604.260       25.332        7.510      596.516      131.595        0.049      342.442       17.852      856.504
05/04/2014  18:09:00     -371.693     -115.310       -1.778      289.488      193.206      123.152    83803.168    37328.650    15166.500       14.385        6.815      389.168      149.653        0.148      342.497       17.945      856.500
05/04/2014  18:10:00     -424.793     -132.302      -19.328      256.491      217.319      106.958    65787.536    47227.564    11439.978       16.137        6.223      444.919      118.221        0.071      342.466       17.890      856.506
05/04/2014  18:11:00     -588.587     -306.984      -13.382      381.932      244.221      128.167   145871.739    59644.025    16426.801       33.135       11.097      663.833      146.245        0.049      342.389       17.763      856.493
05/04/2014  18:12:00     -573.227     -388.801      -12.099      283.229      259.718      137.692    80218.502    67453.227    18958.950       32.323        8.332      692.644      149.016        0.046      342.283       17.582      856.534
05/04/2014  18:13:00     -611.348     -362.562      -16.139      433.027      232.506      128.103   187512.371    54058.837    16410.309       38.167       12.899      710.772      177.363        0.062      342.322       17.648      856.520
05/04/2014  18:14:00     -562.641     -302.912      -12.391      301.963      216.377      114.778    91181.532    46819.154    13173.896       27.979        7.559      639.000      126.900        0.039      342.357       17.707      856.541
05/04/2014  18:15:00     -679.726     -466.033      -34.058      249.269      229.424      118.018    62134.792    52635.435    13928.220       40.451        6.435      824.144      130.878        0.025      342.252       17.529      856.528
05/04/2014  18:16:00     -440.728     -294.805       21.443      317.434      208.264      119.082   100764.350    43373.848    14180.485       21.993        7.916      530.237      146.770        0.077      342.399       17.779      856.462
05/04/2014  18:17:00     -391.142     -333.310       -4.288      220.804      184.265      115.683    48754.353    33953.519    13382.470       18.008        4.805      513.895      111.527        0.047      342.391       17.765      856.509
05/04/2014  18:18:00     -367.065     -278.383       20.807      339.984      236.923      150.972   115589.118    56132.301    22792.518       20.355        9.726      460.688      177.874        0.149      342.357       17.706      856.503
05/04/2014  18:19:00     -384.854     -297.917        0.508      267.953      230.561      113.383    71798.726    53158.335    12855.736       18.731        6.891      486.690      138.344        0.081      342.356       17.705      856.505
05/04/2014  18:20:00     -636.800     -255.847      -17.421      256.507      198.242      121.807    65795.910    39299.862    14836.972       29.558        5.997      686.273      130.878        0.036      342.311       17.628      856.500
05/04/2014  18:21:00     -345.320     -343.118      -16.231      246.362      191.880      123.540    60694.381    36817.864    15262.075       17.498        5.639      486.801      109.652        0.051      342.242       17.511      856.497
05/04/2014  18:22:00     -437.426     -223.766       -4.868      251.081      226.582      111.165    63041.620    51339.409    12357.671       18.406        6.337      491.337      112.921        0.053      342.352       17.699      856.467
05/04/2014  18:23:00     -626.483     -366.654      -30.037      319.434      238.389      122.719   102038.351    56829.390    15059.831       35.084        8.696      725.890      153.429        0.045      342.302       17.614      856.501
05/04/2014  18:24:00     -479.221     -239.673        5.300      259.570      212.748      116.480    67376.772    45261.630    13567.519       20.664        6.310      535.814      139.044        0.067      342.338       17.674      856.561
05/04/2014  18:25:00     -511.056     -427.877      -20.050      290.915      246.237      140.502    84631.485    60632.428    19740.680       30.480        8.250      666.526      154.777        0.054      342.318       17.641      856.565
05/04/2014  18:26:00     -521.982     -367.268      -14.832      284.680      236.925      139.314    81042.812    56133.305    19408.411       28.205        7.829      638.240      156.487        0.060      342.153       17.360      856.596
05/04/2014  18:27:00     -527.199     -279.564        4.650      252.884      196.100      107.708    63950.122    38455.308    11600.927       23.504        5.700      596.736      120.798        0.041      342.200       17.440      856.573
05/04/2014  18:28:00     -565.773      -53.041      -32.513      227.827      196.212      113.381    51905.288    38499.063    12855.175       21.359        5.163      568.254      101.871        0.032      342.235       17.500      856.447
05/04/2014  18:29:00     -562.403     -133.143       -8.760      279.637      169.313       96.045    78196.795    28666.810     9224.711       22.507        5.804      577.948      110.821        0.037      342.288       17.589      856.494
05/04/2014  18:30:00     -338.348     -148.205      -13.605      237.064      159.848       91.578    56199.236    25551.431     8386.557       11.337        4.507      369.383      105.948        0.082      342.265       17.552      856.443
05/04/2014  18:31:00     -423.072     -255.051       -7.841      270.363      212.713      109.252    73096.386    45247.004    11936.101       18.716        6.514      494.005      122.358        0.061      342.231       17.493      856.464
05/04/2014  18:32:00     -420.422     -212.913      -15.803      204.764      192.668       97.921    41928.390    37120.811     9588.534       15.547        4.432      471.261      110.517        0.055      342.214       17.463      856.454
05/04/2014  18:33:00     -294.775     -154.684       -1.006      226.307      185.454       89.813    51214.671    34393.046     8066.448       10.223        4.684      332.895      103.959        0.098      342.335       17.671      856.485
05/04/2014  18:34:00     -377.057     -157.727      -20.385      258.861      206.321       98.748    67009.267    42568.554     9751.255       14.337        5.966      408.717      118.686        0.084      342.329       17.659      856.472
05/04/2014  18:35:00     -475.209     -181.806      -29.420      282.295      202.117      107.245    79690.337    40851.333    11501.469       19.587        6.602      508.800      102.807        0.041      342.286       17.587      856.462
05/04/2014  18:36:00     -505.326     -233.161       10.347      281.356      296.631      136.626    79161.149    87989.696    18666.618       24.778        9.291      556.523      138.134        0.062      342.241       17.509      856.458
05/04/2014  18:37:00     -481.070     -256.522       -7.220      218.931      210.223      110.075    47930.897    44193.639    12116.578       20.074        5.212      545.190      115.461        0.045      342.112       17.290      856.502
05/04/2014  18:38:00     -345.490     -309.184       -3.420      239.541      206.126      125.343    57379.981    42487.936    15710.940       16.525        5.779      463.636      144.222        0.097      342.167       17.383      856.465
05/04/2014  18:39:00     -406.109     -268.922       -2.941      276.831      229.419      123.331    76635.444    52633.032    15210.416       19.084        7.224      487.077      139.098        0.082      342.157       17.368      856.420
05/04/2014  18:40:00     -613.802     -267.727       -7.555      355.506      228.065      114.065   126384.193    52013.554    13010.801       31.991        9.570      669.649      145.015        0.047      342.157       17.367      856.410
05/04/2014  18:41:00     -517.823     -250.005      -23.814      310.337      230.403      112.438    96308.970    53085.365    12642.297       24.659        8.102      575.015      130.616        0.052      342.173       17.394      856.487
05/04/2014  18:42:00     -392.713     -250.632        2.938      284.698      231.128      119.313    81052.970    53419.998    14235.544       18.285        7.435      465.875      147.435        0.100      342.147       17.351      856.528
05/04/2014  18:43:00     -546.792     -145.495      -11.524      267.669      187.197       92.181    71646.630    35042.652     8497.280       21.771        5.759      565.818       81.280        0.021      342.109       17.285      856.558
05/04/2014  18:44:00     -397.803     -123.391      -13.062      164.664      145.928       74.740    27114.174    21294.882     5586.090       11.381        2.700      416.501       78.633        0.036      342.146       17.348      856.531
05/04/2014  18:45:00     -524.029     -307.311      -19.434      222.591      173.361       89.203    49546.871    30054.194     7957.239       22.847        4.378      607.492       98.676        0.026      342.107       17.283      856.493
05/04/2014  18:46:00     -526.282     -247.602      -20.637      262.343      249.396      119.256    68823.742    62198.412    14221.948       24.195        7.262      581.618      143.267        0.061      342.076       17.229      856.532
05/04/2014  18:47:00     -410.659     -230.303      -28.252      243.831      225.686      113.715    59453.394    50934.215    12931.005       17.287        6.166      470.830      121.125        0.066      342.071       17.222      856.444
05/04/2014  18:48:00     -478.065     -265.432      -17.532      236.883      213.315      103.050    56113.402    45503.462    10619.347       20.575        5.612      546.809      101.438        0.034      342.085       17.244      856.451
05/04/2014  18:49:00     -392.008     -225.698        3.660      258.520      229.367      114.793    66832.719    52609.443    13177.411       16.860        6.631      452.338      140.546        0.097      342.099       17.268      856.482
05/04/2014  18:50:00     -384.170     -163.521      -15.630      234.406      206.843       94.473    54946.117    42783.917     8925.139       14.059        5.333      417.524      102.863        0.061      342.110       17.288      856.523
05/04/2014  18:51:00     -455.490     -320.666      -29.193      262.473      188.100      102.087    68892.245    35381.798    10421.694       21.290        5.735      557.044      129.790        0.054      342.015       17.125      856.515
05/04/2014  18:52:00     -333.514     -108.266       -9.402      167.549      124.793       71.434    28072.681    15573.358     5102.796        8.589        2.437      350.647       71.707        0.042      342.104       17.278      856.501
05/04/2014  18:53:00     -615.090     -296.476      -30.440      295.190      254.912      124.112    87136.911    64979.898    15403.816       31.731        8.376      682.813      138.554        0.041      342.024       17.142      856.461
05/04/2014  18:54:00     -355.730     -257.910        6.334      270.571      174.054      120.855    73208.605    30294.888    14605.980       15.558        5.905      439.387      147.535        0.113      342.066       17.211      856.531
05/04/2014  18:55:00     -530.183     -279.261      -22.626      280.328      184.053       91.708    78583.613    33875.517     8410.330       24.021        6.043      599.234       90.376        0.023      341.977       17.062      856.547
05/04/2014  18:56:00     -421.899     -269.648        0.249      252.029      184.806      109.385    63518.472    34153.147    11965.133       18.015        5.482      500.709      126.548        0.064      341.972       17.051      856.517
05/04/2014  18:57:00     -383.054     -307.208       -6.456      247.543      165.735       98.992    61277.518    27468.201     9799.340       16.983        4.927      491.026      122.450        0.062      341.951       17.016      856.483
05/04/2014  18:58:00     -287.373     -215.300        3.879      222.270      177.786      113.178    49403.816    31607.831    12809.225       11.137        4.691      359.078      128.003        0.127      341.996       17.094      856.443
05/04/2014  18:59:00     -250.676     -156.990        4.790      205.347      176.842      101.173    42167.425    31273.112    10235.902        8.558        4.184      295.777      104.604        0.125      342.028       17.148      856.464
05/04/2014  19:00:00     -370.083     -245.538      -18.022      182.125      167.302       83.355    33169.653    27990.021     6948.137       13.283        3.405      444.128       86.434        0.038      341.972       17.054      856.531
05/04/2014  19:01:00     -466.961     -373.354       -8.411      300.191      241.613      109.538    90114.519    58377.000    11998.467       25.897        8.024      597.868      140.161        0.055      341.923       16.969      856.518
05/04/2014  19:02:00     -634.566     -402.893      -10.750      297.188      216.126      118.007    88320.502    46710.337    13925.734       35.700        7.448      751.663      138.711        0.034      341.837       16.823      856.448
05/04/2014  19:03:00     -379.622     -203.777      -19.702      209.849      166.296       96.671    44036.810    27654.306     9345.190       13.351        4.052      430.857      100.902        0.055      341.924       16.971      856.468
05/04/2014  19:04:00     -312.960     -181.793       10.582      251.592      228.827      108.061    63298.564    52361.774    11677.082       12.920        6.367      361.929      131.795        0.133      341.968       17.046      856.437
05/04/2014  19:05:00     -417.294     -198.638       16.024      351.209      269.881      152.006   123347.787    72835.665    23105.745       21.653       10.964      462.160      187.507        0.165      341.896       16.923      856.475
05/04/2014  19:06:00     -506.020     -206.189      -14.288      270.189      176.046      105.485    73001.952    30992.112    11127.016       20.692        5.756      546.416      117.617        0.046      341.854       16.852      856.498
05/04/2014  19:07:00     -299.922      -74.035        1.864      221.121      146.271       85.439    48894.512    21395.330     7299.758        8.650        3.879      308.925       96.091        0.097      341.870       16.879      856.494
05/04/2014  19:08:00     -460.457     -237.890       -8.070      179.167      192.585       91.977    32100.944    37088.967     8459.847       17.315        3.882      518.278       95.917        0.034      341.862       16.864      856.461
05/04/2014  19:09:00     -530.206     -285.647      -21.075      255.205      177.761      105.121    65129.632    31598.869    11050.471       23.545        5.389      602.256      115.352        0.037      341.812       16.781      856.470
05/04/2014  19:10:00     -511.115     -169.092      -35.167      258.542      196.711       96.336    66843.890    38695.174     9280.573       20.292        5.741      538.359      109.494        0.041      341.805       16.770      856.489
05/04/2014  19:11:00     -437.295     -316.912       -6.068      245.143      193.042      121.462    60095.056    37265.378    14753.138       20.188        5.606      540.055      135.444        0.063      341.794       16.750      856.501
05/04/2014  19:12:00     -416.806     -342.928       -6.985      259.313      167.372      119.857    67243.381    28013.419    14365.596       20.048        5.481      539.747      140.367        0.068      341.786       16.738      856.529
05/04/2014  19:13:00     -321.101     -214.246      -11.308      197.367      143.862       90.481    38953.542    20696.401     8186.763       10.847        3.392      386.015       97.702        0.064      341.811       16.779      856.545
05/04/2014  19:14:00     -381.706      -79.456      -17.517      198.288      138.473       83.354    39318.047    19174.869     6947.910       10.887        3.272      389.888       89.264        0.052      341.815       16.787      856.541
05/04/2014  19:15:00     -365.871     -187.840       -5.637      197.974      190.699       89.395    39193.624    36366.287     7991.459       12.635        4.178      411.273      104.743        0.065      341.778       16.724      856.571
05/04/2014  19:16:00     -295.906     -111.006       21.617      250.807      201.504       97.529    62904.302    40604.033     9511.846       10.666        5.651      316.042      121.312        0.147      341.792       16.747      856.578
05/04/2014  19:17:00     -541.920     -271.979      -16.744      248.833      174.140      109.015    61918.081    30324.717    11884.219       23.601        5.206      606.342      116.154        0.037      341.701       16.592      856.598
05/04/2014  19:18:00     -416.301     -228.807       -1.719      267.958      225.987      111.390    71801.640    51070.152    12407.652       18.044        6.764      475.036      140.051        0.087      341.692       16.578      856.585
05/04/2014  19:19:00     -438.040     -288.557      -27.768      277.516      170.940       99.186    77015.243    29220.463     9837.806       19.597        5.804      524.542      122.963        0.055      341.687       16.571      856.566
05/04/2014  19:20:00     -397.038     -120.259       -0.312      254.137      160.731       85.959    64585.707    25834.367     7388.945       13.494        4.890      414.851       96.276        0.054      341.756       16.685      856.562
05/04/2014  19:21:00     -263.110     -213.012       10.792      240.878      196.986      118.687    58022.424    38803.646    14086.627       11.279        5.546      338.528      101.349        0.090      341.759       16.691      856.556
05/04/2014  19:22:00     -306.089     -209.131       18.708      256.102      192.181      120.742    65588.276    36933.408    14578.607       12.741        5.855      370.711      149.457        0.163      341.714       16.615      856.607
05/04/2014  19:23:00     -293.374     -233.757       14.169      203.111      176.405      107.539    41254.119    31118.855    11564.661       11.241        4.197      375.115      107.955        0.083      341.683       16.564      856.597
05/04/2014  19:24:00     -387.271     -272.266      -16.000      200.243      150.097       92.781    40097.351    22529.216     8608.253       14.779        3.562      473.400       95.784        0.041      341.678       16.555      856.623
05/04/2014  19:25:00     -249.791     -124.945        4.236      191.981      128.517       68.411    36856.603    16516.587     4680.116        6.803        2.903      279.297       70.893        0.064      341.715       16.617      856.618
05/04/2014  19:26:00     -502.948     -116.979      -38.313      227.545      171.344       84.035    51776.683    29358.924     7061.799       17.814        4.410      516.372      101.194        0.038      341.618       16.453      856.608
05/04/2014  19:27:00     -360.178     -203.243       -8.836      239.934      165.889      102.571    57568.280    27519.230    10520.819       13.334        4.780      413.565      120.543        0.085      341.600       16.423      856.588
05/04/2014  19:28:00     -354.215     -197.415        7.116      191.800      145.851       79.332    36787.235    21272.377     6293.645       11.441        3.218      405.513       89.445        0.049      341.587       16.399      856.584
05/04/2014  19:29:00     -276.379     -219.575       20.534      235.649      169.201      109.798    55530.547    28629.084    12055.520       11.060        4.811      352.985      130.757        0.137      341.551       16.338      856.536
05/04/2014  19:30:00     -431.843     -238.756      -13.051      209.885      174.464      105.343    44051.895    30437.570    11097.201       16.461        4.279      493.450      100.789        0.042      341.518       16.283      856.527
05/04/2014  19:31:00     -265.138     -155.287        6.954      260.765      193.409       82.526    67998.211    37407.080     6810.521       10.332        5.611      307.266      120.214        0.153      341.493       16.243      856.538
05/04/2014  19:32:00     -266.129     -193.454       14.974      189.349      117.991       73.348    35853.023    13921.836     5379.999        8.180        2.758      329.012       73.430        0.050      341.493       16.240      856.536
05/04/2014  19:33:00     -351.688     -206.562       -7.765      198.579      158.564       86.853    39433.514    25142.387     7543.527       11.925        3.606      407.863       99.986        0.060      341.490       16.236      856.555
05/04/2014  19:34:00     -280.241     -155.667        2.012      119.470      134.604       70.505    14273.130    18118.323     4970.916        7.006        1.868      320.573       55.026        0.029      341.494       16.241      856.596
05/04/2014  19:35:00     -395.984     -160.418       -7.934      163.876      203.783       87.350    26855.389    41527.684     7630.009       12.929        3.801      427.244       66.361        0.024      341.399       16.080      856.607
05/04/2014  19:36:00     -249.287     -125.350      -24.316      159.271      123.681       68.277    25367.163    15296.966     4661.798        6.188        2.266      279.028       80.322        0.083      341.412       16.104      856.601
05/04/2014  19:37:00     -494.200     -201.652       -7.070      207.354      143.450       92.240    42995.749    20577.987     8508.128       17.850        3.604      533.757      106.768        0.040      341.384       16.055      856.597
05/04/2014  19:38:00     -462.715      -76.407      -12.447      247.422      175.394      103.571    61217.489    30762.995    10727.003       16.138        5.135      468.981      101.912        0.047      341.357       16.010      856.588
05/04/2014  19:39:00     -500.748     -232.959       -9.297      207.386      249.100      103.224    43009.058    62051.000    10655.152       21.039        5.786      552.285      101.656        0.034      341.360       16.014      856.616
05/04/2014  19:40:00     -229.672     -162.765       -5.361      157.225      138.213       75.216    24719.832    19102.935     5657.411        6.437        2.474      281.499       66.910        0.056      341.401       16.083      856.662
05/04/2014  19:41:00     -310.238     -149.881       -6.342      115.637      119.320       62.395    13371.980    14237.367     3893.116        7.512        1.575      344.546       58.398        0.029      341.363       16.020      856.664
05/04/2014  19:42:00     -213.031     -198.920        5.832      165.019      176.077       97.085    27231.348    31002.952     9425.501        7.631        3.383      291.464      102.128        0.123      341.297       15.910      856.684
05/04/2014  19:43:00     -342.174     -201.691      -15.204      194.323      177.114       81.066    37761.460    31369.278     6571.681       11.683        3.785      397.193       96.835        0.059      341.300       15.914      856.677
05/04/2014  19:44:00     -398.299     -220.149      -16.217      184.980      149.024       84.252    34217.547    22208.271     7098.478       13.543        3.176      455.091       84.810        0.035      341.260       15.846      856.704
05/04/2014  19:45:00     -423.258     -224.030      -15.192      211.006      205.952       99.143    44523.704    42416.023     9829.252       16.315        4.838      478.891      116.069        0.059      341.239       15.811      856.690
05/04/2014  19:46:00     -397.950     -120.977       -8.379      216.933      189.974      100.799    47059.987    36089.978    10160.521       13.317        4.666      415.932      113.938        0.075      341.208       15.759      856.680
05/04/2014  19:47:00     -400.137     -249.374       -9.417      222.255      182.552      100.785    49397.251    33325.263    10157.571       15.761        4.644      471.484      104.039        0.049      341.186       15.721      856.690
05/04/2014  19:48:00     -445.365     -190.871       -7.098      273.672      191.619       99.107    74896.628    36717.942     9822.247       17.811        6.072      484.543      114.687        0.056      341.157       15.671      856.685
05/04/2014  19:49:00     -421.061      -64.441      -36.153      243.591      142.614       91.741    59336.631    20338.880     8416.329       13.540        4.405      425.964      106.958        0.063      341.161       15.677      856.697
05/04/2014  19:50:00     -332.745     -153.560        4.743      168.138      162.030       78.370    28270.314    26253.669     6141.880        9.748        3.033      366.469       79.009        0.046      341.172       15.697      856.726
05/04/2014  19:51:00     -242.993      -91.698       16.604      208.540      157.276       83.417    43488.751    24735.688     6958.441        7.144        3.759      259.719      102.674        0.156      341.158       15.673      856.745
05/04/2014  19:52:00     -330.021     -126.774       12.983      229.364      144.304       89.354    52607.727    20823.654     7984.076       10.327        4.071      353.533      107.112        0.092      341.151       15.661      856.756
05/04/2014  19:53:00     -497.236     -224.683      -14.472      209.565      181.153      100.032    43917.353    32816.276    10006.398       19.232        4.337      545.643       90.282        0.027      341.095       15.568      856.775
05/04/2014  19:54:00     -350.900     -184.670        5.630      208.367      153.965      106.288    43417.011    23705.314    11297.219       11.783        3.921      396.527      111.081        0.078      341.090       15.558      856.745
05/04/2014  19:55:00     -325.459     -214.605      -10.594      192.627      154.301      103.397    37105.223    23808.855    10690.870       11.183        3.580      389.845      101.124        0.067      341.066       15.517      856.751
05/04/2014  19:56:00     -423.972      -59.776      -18.554      239.657      213.885       89.859    57435.378    45746.864     8074.561       14.744        5.563      428.166       92.985        0.047      341.064       15.514      856.799
05/04/2014  19:57:00     -374.925      -73.208       -2.409      227.334      171.952      109.923    51680.899    29567.578    12083.073       11.961        4.667      382.005      127.181        0.111      341.037       15.469      856.805
05/04/2014  19:58:00     -430.822     -220.673      -26.151      232.775      174.454       99.647    54184.254    30434.134     9929.495       16.475        4.727      484.049      117.120        0.059      341.032       15.459      856.808
05/04/2014  19:59:00     -306.740     -231.383        0.758      172.989      175.650       77.259    29925.287    30853.007     5969.011       10.717        3.337      384.223       77.749        0.041      341.017       15.435      856.821
05/04/2014  20:00:00     -441.538     -143.423      -28.023      150.381      117.245       68.531    22614.481    13746.466     4696.464       12.868        2.053      464.247       71.741        0.024      340.980       15.372      856.814
05/04/2014  20:01:00     -274.233     -137.560        8.288      224.924      169.448       99.016    50590.742    28712.724     9804.201        9.163        4.455      306.800      123.300        0.162      340.953       15.326      856.810
05/04/2014  20:02:00     -397.706     -130.815      -13.714      168.647      195.472       83.929    28441.764    38209.317     7044.066       12.457        3.685      418.668       85.061        0.041      340.928       15.282      856.849
05/04/2014  20:03:00     -299.306     -195.079       -4.047      162.577      172.385       85.546    26431.217    29716.676     7318.147        9.555        3.173      357.267       75.824        0.045      340.930       15.287      856.860
05/04/2014  20:04:00     -220.959     -302.347       11.652      226.946      182.105       93.964    51504.622    33162.202     8829.140       11.692        4.675      374.482       87.014        0.054      340.964       15.344      856.802
05/04/2014  20:05:00     -280.079     -223.431       -2.919      205.690      116.188       82.441    42308.467    13499.605     6796.559        9.548        3.130      358.282       98.574        0.076      340.931       15.289      856.857
05/04/2014  20:06:00     -368.678     -152.282      -14.688      237.703      150.602       93.570    56502.642    22681.092     8755.270       12.362        4.397      398.890      118.150        0.088      340.901       15.239      856.900
05/04/2014  20:07:00     -335.229     -232.332      -12.441      239.729      183.775       91.981    57469.855    33773.199     8460.458       13.309        4.985      407.869      105.708        0.067      340.895       15.229      856.902
05/04/2014  20:08:00     -404.129     -304.276       -6.346      204.626      164.197      107.965    41871.953    26960.497    11656.428       16.820        4.024      505.870      117.222        0.054      340.834       15.124      856.928
05/04/2014  20:09:00     -264.829     -222.456       13.531      212.681      130.941      102.437    45233.324    17145.578    10493.286        9.632        3.644      345.862      107.586        0.097      340.837       15.129      856.889
05/04/2014  20:10:00     -245.528      -75.766      -12.672      163.915      179.015       71.027    26868.257    32046.380     5044.839        6.506        3.198      256.952       68.931        0.072      340.824       15.110      856.887
05/04/2014  20:11:00     -413.734      -75.249      -10.437      252.961      191.328      107.172    63989.050    36606.508    11485.907       14.449        5.604      420.522      124.534        0.088      340.774       15.022      856.907
05/04/2014  20:12:00     -336.123     -158.802      -25.071      212.582      133.414      106.707    45190.912    17799.228    11386.320       10.659        3.719      371.749      112.274        0.091      340.741       14.967      856.944
05/04/2014  20:13:00     -454.343     -196.248      -13.446      213.896      142.342       71.962    45751.320    20261.331     5178.501       15.814        3.560      494.915       89.957        0.033      340.702       14.900      856.934
05/04/2014  20:14:00     -190.853     -115.109       19.035      174.301      143.567       79.970    30380.966    20611.615     6395.215        5.370        2.869      222.879       91.312        0.168      340.684       14.871      856.915
05/04/2014  20:15:00     -175.523     -126.972       13.424      160.881      148.210       79.988    25882.670    21966.156     6398.105        5.067        2.712      216.634       90.832        0.176      340.710       14.915      856.948
05/04/2014  20:16:00     -212.983      -83.368       -7.322      190.006      127.655       90.866    36102.134    16295.688     8256.714        5.650        3.033      228.719       75.075        0.108      340.746       14.976      856.940
05/04/2014  20:17:00     -411.525     -165.955      -19.954      178.199      178.858       84.954    31754.772    31990.180     7217.170       13.411        3.548      443.727       91.813        0.043      340.628       14.777      856.949
05/04/2014  20:18:00     -458.248     -176.220       -4.159      205.063      187.844       98.460    42050.864    35285.553     9694.289       16.403        4.352      490.963       80.519        0.027      340.602       14.733      856.995
05/04/2014  20:19:00     -492.693       -3.720      -39.009      189.063      159.481       82.896    35744.793    25434.047     6871.692       15.615        3.403      492.707       77.675        0.025      340.604       14.736      857.006
05/04/2014  20:20:00     -283.030     -142.489        2.313      195.810      157.945       82.468    38341.479    24946.499     6800.903        8.524        3.504      316.874       99.657        0.099      340.583       14.700      857.007
05/04/2014  20:21:00     -361.480      -71.911        1.808      233.009      179.770      100.737    54293.195    32317.096    10147.957       11.628        4.838      368.563      113.622        0.095      340.592       14.714      857.027
05/04/2014  20:22:00     -412.036     -195.363        0.139      244.342      216.173      121.981    59702.774    46730.895    14879.389       16.460        6.066      456.005      135.621        0.088      340.551       14.646      857.082
05/04/2014  20:23:00     -216.696      -76.309       -6.650      196.311      154.886       94.576    38537.835    23989.730     8944.537        6.213        3.574      229.739      105.341        0.210      340.567       14.674      857.079
05/04/2014  20:24:00     -510.514     -158.738       -1.443      222.721      157.757       82.767    49604.774    24887.365     6850.447       18.357        4.067      534.624       84.122        0.025      340.495       14.552      857.077
05/04/2014  20:25:00     -309.410     -177.651       -6.547      292.157      215.625      120.805    85355.505    46494.016    14593.788       13.686        7.322      356.784      139.863        0.154      340.472       14.514      857.075
05/04/2014  20:26:00     -399.761     -121.103       -8.225      249.105      170.025       92.527    62053.400    28908.334     8561.176       13.701        4.976      417.702      109.175        0.068      340.451       14.477      857.086
05/04/2014  20:27:00     -558.444     -105.195      -27.125      260.395      197.153       97.889    67805.739    38869.491     9582.183       21.994        5.813      568.265      108.139        0.036      340.433       14.446      857.130
05/04/2014  20:28:00     -351.511     -121.865        3.094      278.338      199.819      106.095    77472.264    39927.469    11256.089       13.351        6.433      372.036      132.838        0.127      340.425       14.433      857.153
05/04/2014  20:29:00     -431.212      -83.087      -27.685      278.911      205.787       87.848    77791.232    42348.311     7717.205       16.071        6.393      439.144      105.713        0.058      340.440       14.458      857.146
05/04/2014  20:30:00     -490.429     -147.278      -13.736      215.456      201.336      100.136    46421.408    40536.040    10027.318       17.967        4.849      512.066      111.025        0.047      340.406       14.401      857.166
05/04/2014  20:31:00     -425.886       20.520      -14.112      263.190      143.180       98.355    69268.975    20500.604     9673.776       14.070        4.972      426.380      120.971        0.080      340.400       14.391      857.203
05/04/2014  20:32:00     -481.656     -211.070      -20.470      184.569      134.575       89.687    34065.817    18110.458     8043.802       16.858        3.011      525.874       78.147        0.022      340.384       14.363      857.212
05/04/2014  20:33:00     -312.684     -161.063       -6.353      190.605      164.902       95.226    36330.278    27192.537     9067.944        9.816        3.630      351.728       82.294        0.055      340.366       14.335      857.254
05/04/2014  20:34:00     -230.648     -162.617       -0.709      171.897      117.787       76.045    29548.428    13873.838     5782.804        6.441        2.460      282.211       91.622        0.105      340.380       14.358      857.258
05/04/2014  20:35:00     -350.479     -200.004       -7.609      185.438      139.247       70.238    34387.351    19389.733     4933.365       11.079        2.936      403.530       70.262        0.030      340.355       14.318      857.262
05/04/2014  20:36:00     -271.526     -113.182       12.085      249.859      171.096       86.904    62429.764    29273.950     7552.347        9.295        4.963      294.171      111.573        0.144      340.376       14.352      857.286
05/04/2014  20:37:00     -513.022     -194.326      -28.930      281.853      248.500      115.898    79440.953    61752.089    13432.405       22.818        7.731      548.593      125.046        0.052      340.395       14.383      857.266
05/04/2014  20:38:00     -548.248     -171.051      -15.665      282.194      217.307      124.701    79633.521    47222.413    15550.363       23.621        7.120      574.312      138.120        0.058      340.389       14.372      857.270
05/04/2014  20:39:00     -281.632     -270.432       15.451      263.830      218.863      139.884    69606.074    47901.196    19567.667       14.485        6.854      390.448      155.089        0.158      340.357       14.319      857.252
05/04/2014  20:40:00     -359.719     -204.373      -13.798      191.057      169.940      101.160    36502.759    28879.512    10233.321       12.347        3.781      413.723       97.651        0.056      340.369       14.338      857.272
05/04/2014  20:41:00     -455.733      -76.692      -27.687      282.666      175.471       97.820    79900.084    30790.006     9568.662       16.728        6.013      462.141      116.490        0.064      340.339       14.288      857.301
05/04/2014  20:42:00     -337.295     -200.481      -18.736      180.910      156.633       87.296    32728.486    24534.009     7620.570       10.958        3.244      392.378       85.573        0.048      340.300       14.221      857.328
05/04/2014  20:43:00     -219.340     -119.530        4.887      179.522      159.924       78.732    32228.083    25575.775     6198.722        6.320        3.200      249.794       94.719        0.144      340.296       14.215      857.334
05/04/2014  20:44:00     -206.451      -48.625       11.171      185.064      137.985       83.394    34248.642    19039.926     6954.610        5.267        3.012      212.100       89.371        0.178      340.300       14.223      857.288
05/04/2014  20:45:00     -451.949     -168.689       -4.004      255.234      162.666       97.969    65144.245    26460.206     9597.884       16.695        5.060      482.404      111.972        0.054      340.271       14.173      857.274
05/04/2014  20:46:00     -338.624     -182.545       -8.442      213.791      183.927      112.258    45706.585    33829.047    12601.947       12.008        4.607      384.693      113.932        0.088      340.278       14.186      857.254
05/04/2014  20:47:00     -415.130     -268.178       -5.531      238.032      233.386      108.214    56659.118    54468.933    11710.201       18.354        6.142      494.219      122.316        0.061      340.268       14.168      857.258
05/04/2014  20:48:00     -374.991     -234.872        2.836      230.960      178.943       93.790    53342.526    32020.646     8796.573       14.496        4.708      442.474      106.063        0.057      340.225       14.095      857.259
05/04/2014  20:49:00     -502.367      -89.879       -9.080      267.389      227.259      105.451    71497.084    51646.553    11119.947       19.737        6.713      510.344       96.729        0.036      340.253       14.140      857.254
05/04/2014  20:50:00     -462.309      -92.467      -16.863      172.928      228.553       89.272    29904.045    52236.685     7969.417       15.632        4.506      471.465       83.862        0.032      340.221       14.088      857.245
05/04/2014  20:51:00     -247.795     -176.044        2.850      209.872      190.802       97.135    44046.311    36405.450     9435.142        9.113        4.494      303.963       98.712        0.105      340.222       14.090      857.221
05/04/2014  20:52:00     -505.798     -235.834      -13.757      214.241      209.167      102.124    45899.294    43750.819    10429.332       20.584        5.004      558.076      113.485        0.041      340.235       14.112      857.229
05/04/2014  20:53:00     -340.034      -82.752        6.620      210.851      186.666      110.880    44458.282    34844.098    12294.386       10.704        4.580      349.959      115.763        0.109      340.241       14.122      857.201
05/04/2014  20:54:00     -453.253     -321.861      -23.447      252.704      227.177      108.199    63859.379    51609.456    11706.963       21.835        6.359      555.907      130.768        0.055      340.230       14.104      857.200
05/04/2014  20:55:00     -344.398     -269.236       -7.997      254.487      203.475      108.019    64763.471    41401.913    11668.065       15.447        5.892      437.147      111.813        0.065      340.218       14.083      857.164
05/04/2014  20:56:00     -301.256     -137.626       -4.766      184.464      157.933       85.854    34026.966    24942.706     7370.922        8.802        3.317      331.204       87.452        0.070      340.231       14.104      857.189
05/04/2014  20:57:00     -419.943     -193.911       -2.464      199.474      198.479      116.531    39790.062    39393.770    13579.546       15.334        4.638      462.551      105.781        0.052      340.210       14.069      857.159
05/04/2014  20:58:00     -502.030     -264.082       -9.509      276.746      224.650      116.910    76588.358    50467.491    13667.927       23.127        7.036      567.250      142.202        0.063      340.215       14.079      857.150
05/04/2014  20:59:00     -532.182     -133.669       -3.365      229.843      194.574      118.126    52828.025    37859.012    13953.712       20.285        5.232      548.713      123.759        0.051      340.222       14.090      857.186
05/04/2014  21:00:00     -601.401     -155.518      -22.945      274.366      225.576      113.519    75276.646    50884.496    12886.598       26.269        6.952      621.183      129.161        0.043      340.236       14.113      857.189
05/04/2014  21:01:00     -479.311     -192.951      -20.986      253.528      243.754      101.554    64276.618    59415.850    10313.278       20.068        6.700      516.691       95.388        0.034      340.228       14.100      857.213
05/04/2014  21:02:00     -223.001     -171.671       -0.195      186.680      197.818       92.394    34849.512    39132.158     8536.734        8.084        4.126      281.426      101.359        0.130      340.232       14.106      857.216
05/04/2014  21:03:00     -486.492     -239.314      -31.845      192.295      178.035       92.290    36977.492    31696.488     8517.405       18.606        3.860      542.167      100.421        0.034      340.206       14.063      857.259
05/04/2014  21:04:00     -297.206     -110.553        0.429      226.413      127.351       77.855    51262.740    16218.367     6061.435        8.703        3.677      317.102       91.004        0.082      340.201       14.055      857.272
05/04/2014  21:05:00     -287.974     -124.604       -7.829      176.227      136.158       79.194    31056.067    18538.954     6271.750        7.718        2.793      313.776       83.738        0.071      340.180       14.020      857.274
05/04/2014  21:06:00     -342.592     -115.427        0.318      220.849      162.722       92.966    48774.264    26478.425     8642.749       10.728        4.195      361.514      116.403        0.104      340.187       14.031      857.251
05/04/2014  21:07:00     -634.818     -166.793      -23.258      278.083      201.284      108.391    77329.918    40515.047    11748.699       28.045        6.480      656.364      126.164        0.037      340.176       14.013      857.272
05/04/2014  21:08:00     -324.436     -201.835      -11.554      214.733      205.502      114.896    46110.394    42230.933    13201.125       12.382        5.077      382.094      113.697        0.089      340.157       13.980      857.302
05/04/2014  21:09:00     -310.983      -50.230       -7.114      249.739      168.946       94.118    62369.507    28542.796     8858.239        9.951        4.989      315.013      107.588        0.117      340.181       14.021      857.319
05/04/2014  21:10:00     -406.712      -93.349       -1.430      276.135      139.840       98.799    76250.332    19555.112     9761.189       13.983        5.278      417.288      133.422        0.102      340.203       14.058      857.239
05/04/2014  21:11:00     -472.666     -137.924      -13.855      288.476      151.423       85.428    83218.318    22928.843     7298.017       17.801        5.672      492.378      116.314        0.056      340.287       14.200      857.284
05/04/2014  21:12:00     -471.947      -87.291      -37.284      231.637      155.841       89.417    53655.648    24286.375     7995.344       15.882        4.297      479.952      105.297        0.048      340.259       14.150      857.348
05/04/2014  21:13:00     -348.433     -100.705      -10.774      193.859      136.787       78.501    37581.371    18710.610     6162.339        9.705        3.123      362.694       83.563        0.053      340.255       14.146      857.373
05/04/2014  21:14:00     -421.682     -119.881       -6.795      225.574      148.288       93.137    50883.668    21989.213     8674.545       13.687        4.077      438.391       92.050        0.044      340.225       14.094      857.369
05/04/2014  21:15:00     -124.231      -33.979       40.915      131.804      119.989       77.633    17372.328    14397.467     6026.932        2.802        1.890      128.794       78.285        0.369      340.230       14.104      857.333
05/04/2014  21:16:00     -217.324      -49.766       -1.654      161.119      116.372       70.348    25959.264    13542.406     4948.841        4.707        2.223      222.950       68.236        0.094      340.244       14.126      857.345
05/04/2014  21:17:00     -261.149      -59.173       16.442      197.794      139.580       90.757    39122.510    19482.711     8236.824        6.939        3.342      267.769      109.225        0.166      340.225       14.095      857.354
05/04/2014  21:18:00     -525.268     -156.582       -2.024      186.625      178.387      100.859    34828.705    31821.753    10172.571       18.861        3.841      548.110      103.614        0.036      340.151       13.970      857.346
05/04/2014  21:19:00     -335.568     -175.606       14.195      237.199      148.557       93.852    56263.143    22069.324     8808.153       11.538        4.357      378.739      109.280        0.083      340.162       13.989      857.418
05/04/2014  21:20:00     -341.594     -185.324       -5.014      185.704      156.495       83.167    34485.940    24490.576     6916.667       10.846        3.295      388.628      102.679        0.070      340.124       13.926      857.448
05/04/2014  21:21:00     -185.725      -74.745       -9.697      176.948       87.431       58.595    31310.731     7644.198     3433.375        4.127        2.119      200.202       56.011        0.078      340.121       13.919      857.434
05/04/2014  21:22:00     -210.084      -68.605        2.414      150.555      125.617       65.615    22666.878    15779.720     4305.287        4.579        2.138      221.002       63.074        0.081      340.113       13.907      857.440
05/04/2014  21:23:00     -547.231     -148.662      -29.736      229.942      170.964       90.114    52873.108    29228.647     8120.604       20.632        4.511      567.065       90.490        0.025      340.114       13.907      857.404
05/04/2014  21:24:00     -543.305     -119.124      -36.254      198.823      180.391       95.691    39530.738    32541.040     9156.746       19.594        4.061      556.211       95.032        0.029      340.151       13.971      857.396
05/04/2014  21:25:00     -382.964     -127.079      -32.621      178.314      138.764       75.382    31795.777    19255.574     5682.513       11.029        2.837      403.497       91.699        0.052      340.134       13.943      857.427
05/04/2014  21:26:00     -298.908     -109.203       -6.107      180.137      167.449       80.419    32449.478    28039.210     6467.291        8.412        3.348      318.232       90.056        0.080      340.199       14.052      857.518
05/04/2014  21:27:00     -166.355     -162.531       13.219      128.533      127.423       70.441    16520.786    16236.554     4961.939        4.598        1.886      232.573       76.199        0.107      340.287       14.202      857.574
05/04/2014  21:28:00     -284.989     -189.078      -17.421      102.847       84.981       55.737    10577.530     7221.787     3106.558        6.908        1.045      342.007       41.986        0.015      340.290       14.205      857.567
05/04/2014  21:29:00     -133.187      -88.719       -2.499      108.500       84.629       45.670    11772.162     7161.989     2085.784        2.331        1.051      160.031       54.018        0.114      340.288       14.204      857.598
05/04/2014  21:30:00     -197.405      -95.637        7.086      144.089       96.316       65.044    20761.744     9276.737     4230.685        4.121        1.713      219.352       74.173        0.114      340.263       14.161      857.638
05/04/2014  21:31:00     -340.214     -158.554      -18.696      149.864      113.795       74.479    22459.280    12949.190     5547.132        9.109        2.048      375.346       65.267        0.030      340.306       14.232      857.651
05/04/2014  21:32:00     -183.887     -181.067       -1.316      167.088      153.853       64.751    27918.410    23670.687     4192.748        6.118        2.789      258.069       62.972        0.060      340.265       14.162      857.620
05/04/2014  21:33:00     -162.553     -184.790        3.141      133.672      101.080       68.309    17868.120    10217.091     4666.110        4.666        1.638      246.111       63.527        0.067      340.295       14.212      857.684
05/04/2014  21:34:00     -107.335      -59.667       45.738      180.802       94.837       88.092    32689.483     8994.128     7760.277        3.330        2.472      122.805      105.617        0.740      340.304       14.229      857.752
05/04/2014  21:35:00     -234.618     -185.970       -5.374      214.229      155.677       77.964    45893.974    24235.390     6078.380        8.292        3.810      299.384       98.918        0.109      340.231       14.106      857.766
05/04/2014  21:36:00     -276.291      -77.966       21.327      192.631      141.374      107.302    37106.653    19986.582    11513.771        7.572        3.430      287.081      110.528        0.148      340.170       14.003      857.760
05/04/2014  21:37:00     -184.883     -108.486       -1.122       96.165      106.351       53.447     9247.787    11310.486     2856.582        3.468        1.171      214.362       43.854        0.042      340.244       14.127      857.748
05/04/2014  21:38:00     -176.442      -24.633        1.995      101.802      108.069       54.006    10363.620    11678.997     2916.686        2.835        1.248      178.153       62.306        0.122      340.230       14.105      857.783
05/04/2014  21:39:00     -197.908      -26.813       -0.681      127.832      100.908       55.801    16340.902    10182.428     3113.743        3.476        1.482      199.716       49.668        0.062      340.199       14.051      857.826
05/04/2014  21:40:00     -165.011     -131.015        0.864      130.540       83.211       59.268    17040.723     6924.082     3512.638        3.593        1.374      210.698       50.193        0.057      340.198       14.049      857.869
05/04/2014  21:41:00     -173.031      -76.033       -3.339      116.375      109.800       46.198    13543.099    12055.947     2134.301        3.173        1.387      188.999       47.093        0.062      340.232       14.108      857.819
05/04/2014  21:42:00     -113.801     -106.514        3.545       98.692       63.291       47.816     9740.140     4005.803     2286.335        2.017        0.802      155.871       41.004        0.069      340.253       14.145      857.848
05/04/2014  21:43:00       -1.742      -22.403       27.268       44.232       58.495       35.570     1956.473     3421.642     1265.197        0.394        0.332       22.471       28.988        1.664      340.207       14.068      857.906
05/04/2014  21:44:00      -72.293     -100.309      -32.565      149.620       61.371       53.280    22386.286     3766.407     2838.797        2.266        1.450      123.645       25.103        0.041      340.235       14.115      857.940
05/04/2014  21:45:00       26.547       60.330       46.258       56.730       57.968       54.507     3218.326     3360.256     2970.989        0.802        0.477       65.912       32.237        0.239      339.868       13.495      857.953
05/04/2014  21:46:00      -90.008      -90.399       -9.239       48.248       62.590       36.437     2327.870     3917.450     1327.634        1.196        0.379      127.567       28.393        0.050      340.316       14.251      858.057
05/04/2014  21:47:00      -22.563       16.286        9.461       42.620       40.814       30.616     1816.502     1665.743      937.323        0.264        0.221       27.827       11.306        0.165      340.085       13.862      858.076
05/04/2014  21:48:00       42.983       68.046       69.665       79.668       51.528       62.362     6347.013     2655.086     3889.015        1.211        0.645       80.485       36.778        0.209      339.922       13.588      857.975
05/04/2014  21:49:00       93.788      117.273      110.153       79.200       70.498       75.037     6272.636     4969.985     5630.490        2.577        0.844      150.164       58.181        0.150      340.188       14.032      857.933
05/04/2014  21:50:00      174.865      116.324       18.986       48.460       37.744       25.630     2348.340     1424.602      656.920        2.445        0.221      210.021       15.618        0.006      340.207       14.066      858.010
05/04/2014  21:51:00       77.518       86.891        9.589       43.393       48.748       35.206     1882.933     2376.405     1239.493        0.957        0.275      116.443       31.627        0.074      340.170       14.005      858.052
05/04/2014  21:52:00       90.699       24.897        7.002       33.828       36.190       27.487     1144.322     1309.749      755.539        0.605        0.160       94.054       18.298        0.038      340.209       14.071      858.077
05/04/2014  21:53:00       54.559       71.014       68.994       69.817       63.943       76.216     4874.440     4088.744     5808.939        1.377        0.739       89.553       72.875        0.662      339.833       13.437      858.068
05/04/2014  21:54:00        9.750       80.586      115.332       43.129       62.879       35.553     1860.130     3953.711     1264.027        1.348        0.354       81.173       41.908        0.267      339.930       13.601      858.081
05/04/2014  21:55:00       77.839       -7.154       35.780       59.205       33.463       30.901     3505.188     1119.788      954.893        0.648        0.279       78.167       33.489        0.184      339.910       13.567      858.144
05/04/2014  21:56:00       23.977       15.601       27.276       30.508       20.391       20.712      930.756      415.813      428.991        0.167        0.089       28.605       14.321        0.251      339.732       13.266      858.206
05/04/2014  21:57:00       88.390       42.130       26.869       36.023       28.690       36.567     1297.622      823.114     1337.126        0.688        0.173       97.917       26.013        0.071      339.687       13.193      858.216
05/04/2014  21:58:00      100.734       23.213        6.338       60.314       32.101       31.494     3637.743     1030.455      991.887        0.819        0.283      103.374       30.879        0.089      340.040       13.786      858.175
05/04/2014  21:59:00       60.186       29.652        1.630       34.532       29.280       26.560     1192.477      857.341      705.439        0.363        0.138       67.094       13.879        0.043      340.051       13.805      858.174
05/04/2014  22:00:00       54.080       37.158        9.003       36.050       20.761       18.916     1299.571      431.039      357.803        0.324        0.104       65.616       12.196        0.035      339.977       13.681      858.192
05/04/2014  22:01:00       62.732       45.343       12.660       25.882       29.006       24.299      669.868      841.348      590.444        0.413        0.105       77.403       20.527        0.070      340.106       13.896      858.236
05/04/2014  22:02:00       75.760       44.113       20.649       32.600       20.169       24.036     1062.777      406.788      577.738        0.508        0.102       87.667       11.345        0.017      339.936       13.612      858.291
05/04/2014  22:03:00       19.603       22.016       17.410       20.492       16.829       20.818      419.933      283.220      433.404        0.115        0.057       29.478       11.046        0.140      339.671       13.165      858.304
05/04/2014  22:04:00       39.663        5.907        9.488       16.475       20.322       19.173      271.420      412.991      367.612        0.137        0.053       40.100       12.421        0.096      339.589       13.025      858.291
05/04/2014  22:05:00       39.141       -5.889        5.179       29.993       16.465       23.800      899.585      271.091      566.448        0.166        0.087       39.581       19.972        0.255      339.379       12.672      858.323
05/04/2014  22:06:00        2.530       35.549       52.082       23.057       35.793       23.945      531.616     1281.112      573.382        0.318        0.119       35.639       26.447        0.551      339.301       12.540      858.311
05/04/2014  22:07:00       88.767       65.539       44.909       43.974       26.495       34.420     1933.744      701.996     1184.734        0.901        0.191      110.340       20.246        0.034      339.524       12.916      858.232
05/04/2014  22:08:00       41.873       37.256       28.702       41.502       27.827       29.745     1722.386      774.365      884.790        0.367        0.169       56.048       23.167        0.171      339.887       13.529      858.178
05/04/2014  22:09:00       49.297       59.955       -2.691       37.630       24.344       23.778     1416.054      592.638      565.381        0.430        0.129       77.619       17.424        0.050      340.074       13.842      858.173
05/04/2014  22:10:00       35.990       90.121      -16.942       30.345       42.759       24.266      920.840     1828.322      588.827        0.652        0.167       97.042       26.286        0.073      340.006       13.729      858.200
05/04/2014  22:11:00      -32.625       58.386      -14.467       35.897       53.923       19.952     1288.573     2907.678      398.101        0.464        0.230       66.883       25.511        0.145      340.094       13.877      858.239
05/04/2014  22:12:00     -106.259       16.528      -18.367       33.636       28.630       20.390     1131.409      819.682      415.759        0.713        0.118      107.537       15.640        0.021      340.278       14.188      858.252
05/04/2014  22:13:00     -116.851       50.440      -11.853       44.517       35.920       28.034     1981.748     1290.245      785.895        1.020        0.203      127.273       24.445        0.037      340.190       14.039      858.243
05/04/2014  22:14:00     -120.732      130.092      -24.094       84.390       76.426       49.304     7121.613     5840.909     2430.907        2.373        0.770      177.483       48.340        0.074      340.228       14.101      858.216
05/04/2014  22:15:00     -197.488       -5.925      -28.383       83.868       94.122       40.239     7033.909     8858.932     1619.157        2.867        0.876      197.577       43.332        0.048      340.218       14.085      858.157
05/04/2014  22:16:00     -117.261       -1.775       -9.628       82.932       55.222       33.449     6877.634     3049.416     1118.848        1.244        0.552      117.274       32.185        0.075      340.172       14.008      858.090
05/04/2014  22:17:00      -55.717       35.903       -6.756       45.414       51.142       21.973     2062.415     2615.457      482.797        0.480        0.258       66.283       20.868        0.099      340.253       14.145      858.043
05/04/2014  22:18:00     -229.352      -19.256       -9.217      152.952      123.838       52.789    23394.351    15335.883     2786.660        4.728        2.076      230.159       64.036        0.077      340.172       14.007      858.024
05/04/2014  22:19:00     -195.069      -29.111       -6.551      133.836       89.242       56.046    17912.095     7964.110     3141.160        3.397        1.451      197.229       66.123        0.112      340.084       13.859      858.077
05/04/2014  22:20:00     -113.892      -62.250       -5.220       70.533       53.131       31.256     4974.930     2822.930      976.918        1.282        0.439      129.794       36.710        0.080      340.076       13.848      858.047
05/04/2014  22:21:00     -154.140     -157.351       -4.652      119.339       87.950       50.979    14241.805     7735.289     2598.908        3.655        1.229      220.269       60.565        0.076      340.162       13.989      858.008
05/04/2014  22:22:00     -156.533      -56.377      -13.635       89.807       52.191       32.439     8065.360     2723.931     1052.296        1.985        0.592      166.376       34.330        0.043      340.137       13.948      857.997
05/04/2014  22:23:00     -127.914     -141.931       -0.212      128.290      126.742       46.109    16458.318    16063.462     2126.064        3.557        1.732      191.066       46.596        0.059      340.184       14.028      857.990
05/04/2014  22:24:00     -144.190      -31.201        9.614      108.437       86.353       44.775    11758.509     7456.795     2004.780        2.153        1.061      147.527       55.590        0.142      340.198       14.049      858.058
05/04/2014  22:25:00     -142.855     -127.931       -3.679      131.528      104.221       59.538    17299.649    10862.008     3544.716        3.424        1.585      191.766       64.567        0.113      340.087       13.863      858.108
05/04/2014  22:26:00     -217.396      -98.462        1.450      137.017       85.161       63.439    18773.758     7252.424     4024.552        4.350        1.503      238.654       69.868        0.086      340.020       13.749      858.085
05/04/2014  22:27:00     -225.177     -101.550        7.232      137.560      124.615       65.284    18922.627    15528.943     4262.063        4.988        1.936      247.017       62.291        0.064      339.922       13.583      857.988
05/04/2014  22:28:00     -183.043       -6.562       14.815      141.722       99.168       59.676    20085.140     9834.333     3561.272        3.362        1.674      183.161       61.970        0.114      339.880       13.513      857.992
05/04/2014  22:29:00     -213.297     -166.505       10.203      135.495      129.005       62.180    18358.969    16642.337     3866.367        5.609        1.943      270.591       70.143        0.067      339.912       13.567      858.040
05/04/2014  22:30:00     -130.831     -161.311        4.322      110.107      112.375       62.306    12123.510    12628.185     3882.085        3.589        1.432      207.697       64.526        0.097      339.949       13.631      857.983
05/04/2014  22:31:00     -203.697     -144.703       12.255      175.100      140.512       75.180    30659.996    19743.707     5652.036        5.931        2.803      249.863       89.081        0.127      339.920       13.581      857.912
05/04/2014  22:32:00     -421.786      -65.496      -19.478      179.062      158.057       76.468    32063.221    24981.945     5847.298       12.272        3.145      426.841       89.488        0.044      340.006       13.726      857.963
05/04/2014  22:33:00     -408.193     -112.218       -8.360      199.178      193.067       88.556    39671.851    37274.691     7842.157       13.202        4.239      423.337      103.530        0.060      339.989       13.697      857.902
05/04/2014  22:34:00     -439.713      -27.384      -23.384      152.346      131.516       77.316    23209.317    17296.450     5977.734       12.055        2.324      440.564       80.714        0.034      339.965       13.656      857.878
05/04/2014  22:35:00     -367.027     -109.561       -5.793      191.563      153.766       87.477    36696.232    23644.098     7652.280       10.736        3.400      383.031       92.176        0.058      339.901       13.547      857.885
05/04/2014  22:36:00     -489.398      -29.313      -12.307      173.067      116.296       86.647    29952.188    13524.825     7507.713       14.574        2.549      490.275       89.716        0.033      339.872       13.498      857.901
05/04/2014  22:37:00     -344.404      -85.337       15.681      266.745      158.106      102.400    71153.050    24997.389    10485.760       11.637        5.332      354.819      131.435        0.137      339.918       13.578      857.886
05/04/2014  22:38:00     -424.675     -155.564      -19.592      180.400      147.956       86.334    32544.330    21891.109     7453.482       13.340        3.094      452.271       86.201        0.036      339.977       13.676      857.871
05/04/2014  22:39:00     -197.858      -42.305        5.921      140.558      131.006       74.498    19756.660    17162.497     5550.005        4.171        2.123      202.330       80.688        0.159      339.918       13.578      857.850
05/04/2014  22:40:00     -249.480      -90.271       -0.614      159.737      123.713       70.824    25516.014    15304.974     5015.987        5.810        2.292      265.310       78.244        0.087      339.914       13.571      857.936
05/04/2014  22:41:00     -159.251     -206.071       20.004      193.963      119.503       70.937    37621.586    14281.032     5032.028        6.257        2.847      260.435       82.072        0.099      339.909       13.562      857.990
05/04/2014  22:42:00     -200.320     -172.575       17.170      140.392      112.310       75.670    19709.997    12613.523     5725.999        5.412        1.902      264.405       74.253        0.079      339.894       13.537      858.000
05/04/2014  22:43:00     -159.121      -95.407       -5.614      124.113       80.187       42.379    15404.106     6429.888     1796.018        2.904        1.182      185.531       54.860        0.087      339.927       13.594      858.016
05/04/2014  22:44:00      -62.535     -238.011        6.119       83.088      121.876       39.595     6903.610    14853.748     1567.791        4.196        1.166      246.089       33.668        0.019      339.955       13.641      858.071
05/04/2014  22:45:00      -59.254     -158.897       -1.021      111.010       61.157       43.447    12323.156     3740.171     1887.622        2.335        0.898      169.585       34.673        0.042      339.960       13.649      858.128
05/04/2014  22:46:00      -72.887     -115.867        0.934       78.791       91.356       57.648     6208.084     8345.991     3323.267        1.830        0.894      136.885       48.714        0.127      339.985       13.693      858.126
05/04/2014  22:47:00     -171.601      -52.294      -12.242       97.031       65.617       38.148     9415.033     4305.539     1455.307        2.375        0.759      179.393       28.366        0.025      339.925       13.588      858.031
05/04/2014  22:48:00     -128.972      -35.722        5.482       82.345       85.629       37.040     6780.728     7332.313     1371.985        1.671        0.774      133.828       48.940        0.134      339.926       13.592      857.894
05/04/2014  22:49:00     -108.581      -72.280       10.168      117.902      106.557       62.432    13900.827    11354.345     3897.742        2.313        1.458      130.439       57.791        0.196      339.989       13.699      858.052
05/04/2014  22:50:00     -107.665     -143.648      -13.916      102.875       95.736       69.782    10583.200     9165.470     4869.551        2.851        1.231      179.517       62.142        0.120      340.024       13.757      858.152
05/04/2014  22:51:00      -35.148      -51.230        5.940       61.013       68.456       47.978     3722.638     4686.291     2301.859        0.730        0.536       62.128       36.049        0.337      339.995       13.711      858.146
05/04/2014  22:52:00      -52.729      -54.058       -1.460       48.960       31.079       22.571     2397.102      965.877      509.441        0.479        0.194       75.516       21.577        0.082      340.085       13.862      858.190
05/04/2014  22:53:00        5.357      -65.343        5.906       81.889       54.697       31.812     6705.887     2991.717     1011.997        0.752        0.535       65.562       22.440        0.117      340.063       13.826      858.152
05/04/2014  22:54:00       66.506       41.054       42.041       39.328       45.008       33.770     1546.701     2025.730     1140.419        0.629        0.236       78.156       22.327        0.082      339.737       13.276      858.065
05/04/2014  22:55:00       43.591       37.684       31.650       39.113       41.345       31.134     1529.788     1709.419      969.355        0.426        0.210       57.622       17.590        0.093      339.783       13.352      857.968
05/04/2014  22:56:00      -10.695       -4.010       42.455       27.173       49.403       28.732      738.377     2440.650      825.548        0.297        0.200       11.423       23.023        4.063      339.989       13.701      857.967
05/04/2014  22:57:00       20.283       12.961       33.214       40.899       33.275       32.867     1672.741     1107.194     1080.211        0.277        0.193       24.071       19.937        0.686      339.991       13.703      858.023
05/04/2014  22:58:00       54.120       32.061       22.654       68.535       38.250       25.403     4696.995     1463.043      645.311        0.564        0.340       62.904       23.138        0.135      339.931       13.603      858.088
05/04/2014  22:59:00      -52.513       -3.341       -4.921       40.699       56.719       20.902     1656.416     3217.051      436.896        0.405        0.266       52.620       26.641        0.256      339.989       13.700      858.158
05/04/2014  23:00:00      -41.561       -5.744        3.171       31.190       59.085       19.276      972.794     3491.022      371.555        0.330        0.242       41.956       18.186        0.188      339.970       13.668      858.175
05/04/2014  23:01:00       25.396      163.878      -34.198       39.432       42.880       18.736     1554.905     1838.696      351.024        1.621        0.187      165.834       24.187        0.021      339.854       13.473      858.101
05/04/2014  23:02:00      -36.885       -6.994      -16.649       61.132       73.536       36.102     3737.084     5407.486     1303.375        0.607        0.522       37.542       14.760        0.155      339.869       13.499      858.079
05/04/2014  23:03:00       30.784       -4.332       53.071       32.650       48.425       38.203     1066.046     2344.975     1459.495        0.433        0.244       31.087       31.712        1.041      339.875       13.508      858.152
05/04/2014  23:04:00        8.901       25.177       30.661       20.905       49.216       24.085      437.036     2422.182      580.103        0.255        0.172       26.704       29.961        1.259      339.611       13.063      858.185
05/04/2014  23:05:00       29.997       47.855       68.075       37.704       48.353       23.119     1421.566     2338.056      534.468        0.606        0.215       56.480       15.129        0.072      339.296       12.531      858.151
05/04/2014  23:06:00       12.264       19.562       67.295       39.836       52.201       44.917     1586.881     2724.900     2017.536        0.569        0.316       23.088       32.754        2.013      339.606       13.055      858.142
05/04/2014  23:07:00       -0.030        7.361       47.421       29.213       50.257       28.024      853.400     2525.749      785.363        0.323        0.208        7.361       22.761        9.561      339.623       13.082      858.224
05/04/2014  23:08:00      -25.694        2.302        6.269       25.715       25.415       19.788      661.255      645.898      391.584        0.120        0.085       25.797       13.395        0.270      339.641       13.116      858.279
05/04/2014  23:09:00       25.518       92.701      -22.359       40.982       51.396       21.439     1679.484     2641.578      459.620        0.726        0.239       96.149       22.336        0.054      339.706       13.224      858.217
05/04/2014  23:10:00       23.987       99.948      -18.852       38.998       53.857       26.767     1520.834     2900.618      716.464        0.803        0.257      102.786       27.035        0.069      339.743       13.286      858.223
05/04/2014  23:11:00       34.023       60.240       -9.396       28.604       37.119       18.045      818.207     1377.805      325.621        0.370        0.126       69.184       17.265        0.062      339.657       13.141      858.236
05/04/2014  23:12:00      -81.262      -18.888      -12.390       78.894       33.616       26.253     6224.292     1130.007      689.228        0.758        0.402       83.428       28.156        0.114      339.663       13.154      858.286
05/04/2014  23:13:00     -101.594       56.111       -3.902       42.342       33.383       25.407     1792.821     1114.415      645.511        0.852        0.178      116.060       20.501        0.031      339.734       13.271      858.280
05/04/2014  23:14:00      -95.337       62.409       15.069       98.200       36.855       33.952     9643.143     1358.284     1152.741        1.268        0.608      113.948       48.114        0.178      339.742       13.283      858.219
05/04/2014  23:15:00     -190.653       41.499      -19.700       93.251       57.652       37.449     8695.802     3323.734     1402.392        2.594        0.671      195.117       41.622        0.046      339.751       13.299      858.161
05/04/2014  23:16:00     -153.464       15.079      -13.946       84.717       51.610       37.632     7177.018     2663.640     1416.196        1.761        0.563      154.203       42.586        0.076      339.734       13.268      858.115
05/04/2014  23:17:00     -139.252     -132.413       -3.105       63.886       55.350       36.972     4081.441     3063.607     1366.907        2.272        0.426      192.157       37.769        0.039      339.707       13.223      858.168
05/04/2014  23:18:00      -99.117      -78.073        8.649       67.665       53.749       35.102     4578.525     2888.958     1232.168        1.235        0.435      126.172       37.323        0.088      339.687       13.190      858.257
05/04/2014  23:19:00      -97.320      -60.269       -6.718       43.108       31.913       24.620     1858.261     1018.448      606.162        0.832        0.174      114.470       23.004        0.040      339.685       13.189      858.289
05/04/2014  23:20:00       -8.605      -21.139       12.719       27.960       30.860       20.017      781.767      952.365      400.697        0.141        0.107       22.824       19.465        0.727      339.739       13.278      858.239
05/04/2014  23:21:00       -5.755      -75.817        7.026       72.793       63.591       34.994     5298.878     4043.812     1224.611        0.820        0.528       76.035       22.351        0.086      339.769       13.330      858.216
05/04/2014  23:22:00     -102.140      -34.839       -1.598       52.885       45.614       26.370     2796.814     2080.602      695.359        0.861        0.279      107.918       17.556        0.026      339.702       13.218      858.227
05/04/2014  23:23:00      -87.688      -42.271       -0.932       41.392       27.246       14.707     1713.301      742.362      216.285        0.607        0.134       97.345       16.122        0.027      339.707       13.225      858.225
05/04/2014  23:24:00      -37.494      -43.081       -0.320       31.623       22.085       22.467      999.987      487.744      504.767        0.263        0.100       57.112        8.963        0.025      339.673       13.164      858.210
05/04/2014  23:25:00       -4.518      -14.508        4.127       28.544       39.084       23.812      814.778     1527.578      566.995        0.158        0.145       15.195       26.498        3.041      339.656       13.138      858.231
05/04/2014  23:26:00      -95.019      -27.472        2.555       45.223       41.798       23.259     2045.096     1747.097      540.979        0.706        0.217       98.911       20.153        0.042      339.699       13.211      858.244
05/04/2014  23:27:00      -85.147     -123.308        0.758       44.545       36.541       29.860     1984.224     1335.231      891.634        1.333        0.211      149.849       27.370        0.033      339.680       13.178      858.239
05/04/2014  23:28:00      -59.184     -150.704      -11.180       37.802       33.535       22.175     1428.972     1124.615      491.748        1.469        0.152      161.909       13.215        0.007      339.744       13.286      858.223
05/04/2014  23:29:00      -13.353      -82.594       13.821       72.316       80.617       41.619     5229.666     6499.163     1732.143        1.032        0.673       83.667       34.469        0.170      339.816       13.409      858.202
05/04/2014  23:30:00        9.768      -90.396       -4.883       76.016       42.681       32.623     5778.412     1821.679     1064.272        0.848        0.433       90.922       35.832        0.155      339.835       13.441      858.199
05/04/2014  23:31:00      -74.797      -64.851        5.563       69.632       49.513       33.331     4848.649     2451.576     1110.953        0.912        0.421       98.996       36.223        0.134      339.772       13.336      858.215
05/04/2014  23:32:00     -169.935     -113.302       -3.967       97.422       66.894       35.938     9490.994     4474.872     1291.522        2.849        0.763      204.243       43.900        0.046      339.688       13.189      858.225
05/04/2014  23:33:00     -173.918      -63.886       -5.033       39.809       45.449       27.916     1584.729     2065.573      779.320        1.939        0.221      185.281        9.836        0.003      339.627       13.087      858.206
05/04/2014  23:34:00     -105.505       19.558       -8.268       42.274       41.190       24.520     1787.121     1696.612      601.253        0.783        0.204      107.303       15.581        0.021      339.636       13.105      858.173
05/04/2014  23:35:00     -139.783       -2.347      -11.474       66.991       43.985       31.146     4487.800     1934.712      970.045        1.353        0.370      139.803       31.910        0.052      339.776       13.340      858.160
05/04/2014  23:36:00      -85.568       -3.953        2.055       50.503       43.151       25.153     2550.504     1862.052      632.674        0.619        0.252       85.659       28.970        0.114      339.705       13.221      858.166
05/04/2014  23:37:00     -102.528       30.145       -8.885       45.773       34.061       22.595     2095.161     1160.162      510.537        0.763        0.188      106.868       13.851        0.017      339.727       13.260      858.190
05/04/2014  23:38:00     -124.598       29.881       -7.252       41.885       18.431       19.330     1754.337      339.716      373.632        0.947        0.123      128.131       14.834        0.013      339.670       13.162      858.226
05/04/2014  23:39:00      -53.171       37.776       -6.410       48.938       29.876       22.206     2394.925      892.573      493.128        0.404        0.189       65.224       11.166        0.029      339.631       13.096      858.279
05/04/2014  23:40:00      -69.017        2.939        1.470       49.869       38.421       24.696     2486.905     1476.148      609.897        0.467        0.229       69.079       24.715        0.128      339.566       12.987      858.271
05/04/2014  23:41:00       -7.525       63.780       17.001       48.793       70.048       43.913     2380.796     4906.758     1928.344        0.681        0.461       64.222       42.531        0.439      339.480       12.843      858.186
05/04/2014  23:42:00      -71.454      -38.222       -1.108       52.314       51.779       29.362     2736.727     2681.078      862.122        0.642        0.314       81.034       24.805        0.094      339.570       12.994      858.228
05/04/2014  23:43:00      -45.731      -46.464       17.614       42.623       38.241       28.800     1816.705     1462.390      829.432        0.433        0.205       65.194       18.753        0.083      339.553       12.965      858.259
05/04/2014  23:44:00       -3.308      -33.983       19.237       93.498       95.161       57.718     8741.866     9055.571     3331.413        1.133        1.056       34.144       64.983        3.622      339.440       12.775      858.306
05/04/2014  23:45:00       29.733       14.430       76.585       72.024       89.997       81.232     5187.416     8099.381     6598.632        1.342        0.994       33.049       77.509        5.500      339.464       12.816      858.339
05/04/2014  23:46:00       29.510       36.615      108.403       81.361      113.253       83.508     6619.551    12826.191     6973.596        2.019        1.321       47.027       87.912        3.495      339.625       13.086      858.281
05/04/2014  23:47:00        3.088       11.942       46.803       33.513       74.323       52.077     1123.097     5523.911     2711.975        0.585        0.468       12.335       56.050       20.649      339.655       13.136      858.243
05/04/2014  23:48:00       -3.349       21.310       14.305       15.526       15.898       17.094      241.057      252.743      292.207        0.073        0.039       21.571       12.182        0.319      339.623       13.083      858.257
05/04/2014  23:49:00      -16.180      -17.595        4.230       32.014       26.632       13.673     1024.881      709.277      186.958        0.125        0.096       23.904       14.376        0.362      339.703       13.219      858.270
05/04/2014  23:50:00       30.107       46.461       44.709       39.321       63.072       52.749     1546.172     3978.045     2782.439        0.668        0.415       55.363       48.217        0.759      339.643       13.119      858.237
05/04/2014  23:51:00       27.481       69.161       99.418       60.583       59.127       34.484     3670.338     3496.029     1189.163        1.189        0.418       74.421       35.049        0.222      339.596       13.037      858.243
05/04/2014  23:52:00      -17.244       20.391       71.555       23.103       42.747       30.302      533.768     1827.319      918.182        0.456        0.164       26.705       27.857        1.088      339.546       12.955      858.293
05/04/2014  23:53:00       -6.284      -13.919       34.804       22.445       65.835       32.958      503.762     4334.287     1086.240        0.368        0.296       15.272       38.940        6.501      339.558       12.973      858.320
05/04/2014  23:54:00       17.531      -24.208       20.656       44.909       40.755       23.715     2016.811     1660.953      562.420        0.278        0.212       29.890       15.110        0.256      339.548       12.956      858.313
05/04/2014  23:55:00       13.808       36.840       64.178       40.529       37.537       29.341     1642.584     1409.035      860.871        0.479        0.196       39.343       27.985        0.506      339.420       12.743      858.245
05/04/2014  23:56:00       -7.759        1.603       44.963       25.534       61.202       31.933      652.009     3745.724     1019.702        0.375        0.271        7.923       37.956       22.951      339.483       12.847      858.212
05/04/2014  23:57:00      -82.552     -141.718       -9.278       88.707       82.529       37.286     7868.859     6811.076     1390.264        2.152        0.804      164.008       39.587        0.058      339.662       13.147      858.323
05/04/2014  23:58:00      -85.126      -79.814       -2.043       45.434       62.302       27.031     2064.238     3881.598      730.664        1.015        0.334      116.691       30.429        0.068      339.607       13.056      858.439
05/04/2014  23:59:00      -54.536      -51.113        2.172       29.766       27.742       19.345      886.014      769.625      374.236        0.381        0.101       74.744       15.207        0.041      339.642       13.116      858.455
